[[{"header":{"parameterUnit":"m.s-1","parameterCategory":1,"la1":31.0,"la2":29.5877,"lo1":-88.7671,"lo2":-86.6584,"dy":0.0162,"dx":0.0185,"nx":115,"ny":88,"refTime":"2023-09-13T18:00:00:Z","depth":0,"parameterNumber":2,"parameterNumberName":"U-component_of_WINDS"},"data":[0.0,0.0,0.0,0.0,0.0,0.0,0.0,0.0,0.0,0.0,0.0,0.0,0.0,0.0,0.0,0.0,0.0,0.0,0.0,0.0,0.0,0.0,0.0,0.0,0.0,0.0,0.0,0.0,0.0,0.0,0.0,0.0,0.0,0.0,0.0,0.0,0.0,0.0,0.0,0.0,0.0,0.0,0.0,0.0,0.0,0.0,0.0,0.0,0.0,0.0,0.0,0.0,0.0,0.0,0.0,0.0,0.0,0.0,0.0,0.0,0.0,0.0,0.0,0.0,0.0,0.0,0.0,0.0,0.0,0.0,0.0,0.0,0.0,0.0,0.0,0.0,0.0,0.0,0.0,0.0,0.0,0.0,0.0,0.0,0.0,0.0,0.0,0.0,0.0,0.0,0.0,0.0,0.0,0.0,0.0,0.0,0.0,0.0,0.0,0.0,0.0,0.0,0.0,0.0,0.0,0.0,0.0,0.0,0.0,0.0,0.0,0.0,0.0,0.0,0.0,0.0,0.0,0.0,0.0,0.0,0.0,0.0,0.0,0.0,0.0,0.0,0.0,0.0,0.0,0.0,0.0,0.0,0.0,0.0,0.0,0.0,0.0,0.0,0.0,0.0,0.0,0.0,0.0,0.0,0.0,0.0,0.0,0.0,0.0,0.0,0.0,0.0,0.0,0.0,0.0,0.0,0.0,0.0,0.0,0.0,0.0,0.0,0.0,0.0,0.0,0.0,0.0,0.0,0.0,0.0,0.0,0.0,0.0,0.0,0.0,0.0,0.0,0.0,0.0,0.0,0.0,0.0,0.0,0.0,0.0,0.0,0.0,0.0,0.0,0.0,0.0,0.0,0.0,0.0,0.0,0.0,0.0,0.0,0.0,0.0,0.0,0.0,0.0,0.0,0.0,0.0,0.0,0.0,0.0,0.0,0.0,0.0,0.0,0.0,0.0,0.0,0.0,0.0,0.0,0.0,0.0,0.0,0.0,0.0,0.0,0.0,0.0,0.0,0.0,0.0,0.0,0.0,0.0,0.0,0.0,0.0,0.0,0.0,0.0,0.0,0.0,0.0,0.0,0.0,0.0,0.0,0.0,0.0,0.0,0.0,0.0,0.0,0.0,0.0,0.0,0.0,0.0,0.0,0.0,0.0,0.0,0.0,0.0,0.0,0.0,0.0,0.0,0.0,0.0,0.0,0.0,0.0,0.0,0.0,0.0,0.0,0.0,0.0,0.0,0.0,0.0,0.0,0.0,0.0,0.0,0.0,0.0,0.0,0.0,0.0,0.0,0.0,0.0,0.0,0.0,0.0,0.0,0.0,0.0,0.0,0.0,0.0,0.0,0.0,0.0,0.0,0.0,0.0,0.0,0.0,0.0,0.0,0.0,0.0,0.0,0.0,0.0,0.0,0.0,0.0,0.0,0.0,0.0,0.0,0.0,0.0,0.0,0.0,0.0,0.0,0.0,0.0,0.0,0.0,0.0,0.0,0.0,0.0,0.0,0.0,0.0,0.0,0.0,0.0,0.0,0.0,0.0,0.0,0.0,0.0,0.0,0.0,0.0,0.0,0.0,0.0,0.0,0.0,0.0,0.0,0.0,0.0,0.0,0.0,0.0,0.0,0.0,0.0,0.0,0.0,0.0,0.0,0.0,0.0,0.0,0.0,0.0,0.0,0.0,0.0,0.0,0.0,0.0,0.0,0.0,0.0,0.0,0.0,0.0,0.0,0.0,0.0,0.0,0.0,0.0,0.0,0.0,0.0,0.0,0.0,0.0,0.0,0.0,0.0,0.0,0.0,0.0,0.0,0.0,0.0,0.0,0.0,0.0,0.0,0.0,0.0,0.0,0.0,0.0,0.0,0.0,0.0,0.0,0.0,0.0,0.0,0.0,0.0,0.0,0.0,0.0,0.0,0.0,0.0,0.0,0.0,0.0,0.0,0.0,0.0,0.0,0.0,0.0,0.0,0.0,0.0,0.0,0.0,0.0,0.0,0.0,0.0,0.0,0.0,0.0,0.0,0.0,0.0,0.0,0.0,0.0,0.0,0.0,0.0,0.0,0.0,0.0,0.0,0.0,0.0,0.0,0.0,0.0,0.0,0.0,0.0,0.0,0.0,0.0,0.0,0.0,0.0,0.0,0.0,0.0,0.0,0.0,0.0,0.0,0.0,0.0,0.0,0.0,0.0,0.0,0.0,0.0,0.0,0.0,0.0,0.0,0.0,0.0,0.0,0.0,0.0,0.0,0.0,0.0,0.0,0.0,0.0,0.0,0.0,0.0,0.0,0.0,0.0,0.0,0.0,0.0,0.0,0.0,0.0,0.0,0.0,0.0,0.0,0.0,0.0,0.0,0.0,0.0,0.0,0.0,0.0,0.0,0.0,0.0,0.0,0.0,0.0,0.0,0.0,0.0,0.0,0.0,0.0,0.0,0.0,0.0,0.0,0.0,0.0,0.0,0.0,0.0,0.0,0.0,0.0,0.0,0.0,0.0,0.0,0.0,0.0,0.0,0.0,0.0,0.0,0.0,0.0,0.0,0.0,0.0,0.0,0.0,0.0,0.0,0.0,0.0,0.0,0.0,0.0,0.0,0.0,0.0,0.0,0.0,0.0,0.0,0.0,0.0,0.0,0.0,0.0,0.0,0.0,0.0,0.0,0.0,0.0,0.0,0.0,0.0,0.0,0.0,0.0,0.0,0.0,0.0,0.0,0.0,0.0,0.0,0.0,0.0,0.0,0.0,0.0,0.0,0.0,0.0,0.0,0.0,0.0,0.0,0.0,0.0,0.0,0.0,0.0,0.0,0.0,0.0,0.0,0.0,0.0,0.0,0.0,0.0,0.0,0.0,0.0,0.0,0.0,0.0,0.0,0.0,0.0,0.0,0.0,0.0,0.0,0.0,0.0,0.0,0.0,0.0,0.0,0.0,0.0,0.0,0.0,0.0,0.0,0.0,0.0,0.0,0.0,0.0,0.0,0.0,0.0,0.0,0.0,0.0,0.0,0.0,0.0,0.0,0.0,0.0,0.0,0.0,0.0,0.0,0.0,0.0,0.0,0.0,0.0,0.0,0.0,0.0,0.0,0.0,0.0,0.0,0.0,0.0,0.0,0.0,0.0,0.0,0.0,0.0,0.0,0.0,0.0,0.0,0.0,0.0,0.0,0.0,0.0,0.0,0.0,0.0,0.0,0.0,0.0,0.0,0.0,0.0,0.0,0.0,0.0,0.0,0.0,0.0,0.0,0.0,0.0,0.0,0.0,0.0,0.0,0.0,0.0,0.0,0.0,0.0,0.0,0.0,0.0,0.0,0.0,0.0,0.0,0.0,0.0,0.0,0.0,0.0,0.0,0.0,0.0,0.0,0.0,0.0,0.0,0.0,0.0,0.0,0.0,0.0,0.0,0.0,0.0,0.0,0.0,0.0,0.0,0.0,0.0,0.0,0.0,0.0,0.0,0.0,0.0,0.0,0.0,0.0,0.0,0.0,0.0,0.0,0.0,0.0,0.0,0.0,0.0,0.0,0.0,0.0,0.0,0.0,0.0,0.0,0.0,0.0,0.0,0.0,0.0,0.0,0.0,0.0,0.0,0.0,0.0,0.0,0.0,0.0,0.0,0.0,0.0,0.0,0.0,0.0,0.0,0.0,0.0,0.0,0.0,0.0,0.0,0.0,0.0,0.0,0.0,0.0,0.0,0.0,0.0,0.0,0.0,0.0,0.0,0.0,0.0,0.0,0.0,0.0,0.0,0.0,0.0,0.0,0.0,0.0,0.0,0.0,0.0,0.0,0.0,0.0,0.0,0.0,0.0,0.0,0.0,0.0,0.0,0.0,0.0,0.0,0.0,0.0,0.0,0.0,0.0,0.0,0.0,0.0,0.0,0.0,0.0,0.0,0.0,0.0,0.0,0.0,0.0,0.0,0.0,0.0,0.0,0.0,0.0,0.0,0.0,0.0,0.0,0.0,0.0,0.0,0.0,0.0,0.0,0.0,0.0,0.0,0.0,0.0,0.0,0.0,0.0,0.0,0.0,0.0,0.0,0.0,0.0,0.0,0.0,0.0,0.0,0.0,0.0,0.0,0.0,0.0,0.0,0.0,0.0,0.0,0.0,0.0,0.0,0.0,0.0,0.0,0.0,0.0,0.0,0.0,0.0,0.0,0.0,0.0,0.0,0.0,0.0,0.0,0.0,0.0,0.0,0.0,0.0,0.0,0.0,0.0,0.0,0.0,0.0,0.0,0.0,0.0,0.0,0.0,0.0,0.0,0.0,0.0,0.0,2.5529,0.0,0.0,0.0,0.0,0.0,0.0,0.0,0.0,0.0,0.0,0.0,0.0,0.0,0.0,0.0,0.0,0.0,0.0,0.0,0.0,0.0,0.0,0.0,0.0,0.0,0.0,0.0,0.0,0.0,0.0,0.0,0.0,0.0,0.0,0.0,0.0,0.0,0.0,0.0,0.0,0.0,0.0,0.0,0.0,0.0,0.0,0.0,0.0,0.0,0.0,0.0,0.0,0.0,0.0,0.0,0.0,0.0,0.0,0.0,0.0,0.0,0.0,0.0,0.0,0.0,0.0,0.0,0.0,0.0,0.0,0.0,0.0,0.0,0.0,0.0,0.0,0.0,0.0,0.0,0.0,0.0,0.0,0.0,0.0,0.0,0.0,0.0,0.0,0.0,0.0,0.0,0.0,0.0,0.0,0.0,0.0,0.0,0.0,0.0,0.0,0.0,0.0,0.0,0.0,0.0,0.0,0.0,0.0,0.0,0.0,2.7047,2.6988,2.6631,2.6413,2.634,0.0,0.0,0.0,0.0,0.0,0.0,0.0,0.0,0.0,0.0,0.0,0.0,0.0,0.0,0.0,0.0,0.0,0.0,0.0,0.0,0.0,0.0,0.0,0.0,0.0,0.0,0.0,0.0,0.0,0.0,0.0,0.0,0.0,0.0,0.0,0.0,0.0,0.0,0.0,0.0,0.0,0.0,0.0,0.0,0.0,0.0,0.0,0.0,0.0,0.0,0.0,0.0,0.0,0.0,0.0,0.0,0.0,0.0,0.0,0.0,0.0,0.0,0.0,0.0,0.0,0.0,0.0,0.0,0.0,0.0,0.0,0.0,0.0,0.0,0.0,0.0,0.0,0.0,0.0,0.0,0.0,0.0,0.0,0.0,0.0,0.0,0.0,0.0,0.0,0.0,0.0,0.0,0.0,0.0,0.0,0.0,0.0,0.0,0.0,0.0,0.0,0.0,0.0,0.0,0.0,0.0,0.0,0.0,0.0,0.0,0.0,0.0,2.7262,2.7095,2.689,0.0,0.0,0.0,0.0,0.0,0.0,0.0,0.0,0.0,0.0,0.0,0.0,0.0,0.0,0.0,0.0,0.0,0.0,0.0,0.0,0.0,0.0,0.0,0.0,0.0,0.0,0.0,0.0,0.0,0.0,0.0,0.0,0.0,0.0,0.0,0.0,0.0,0.0,0.0,0.0,0.0,0.0,0.0,0.0,0.0,0.0,0.0,0.0,0.0,0.0,0.0,0.0,0.0,0.0,0.0,0.0,0.0,0.0,0.0,0.0,0.0,0.0,0.0,0.0,0.0,0.0,0.0,0.0,0.0,0.0,0.0,0.0,0.0,0.0,0.0,0.0,0.0,0.0,0.0,0.0,0.0,0.0,0.0,0.0,0.0,0.0,0.0,0.0,0.0,0.0,0.0,0.0,0.0,0.0,0.0,0.0,0.0,0.0,0.0,0.0,0.0,0.0,0.0,0.0,0.0,0.0,0.0,0.0,0.0,0.0,2.9176,2.916,2.8412,0.0,2.6965,0.0,0.0,0.0,0.0,0.0,0.0,0.0,0.0,0.0,0.0,0.0,0.0,0.0,0.0,0.0,0.0,0.0,0.0,0.0,0.0,0.0,0.0,0.0,0.0,0.0,0.0,0.0,0.0,0.0,0.0,0.0,0.0,0.0,0.0,0.0,0.0,0.0,0.0,0.0,0.0,0.0,0.0,0.0,0.0,0.0,0.0,0.0,0.0,0.0,0.0,0.0,0.0,0.0,0.0,0.0,0.0,0.0,0.0,0.0,0.0,0.0,0.0,0.0,0.0,0.0,0.0,0.0,0.0,0.0,0.0,0.0,0.0,0.0,0.0,0.0,0.0,0.0,0.0,0.0,0.0,0.0,0.0,0.0,0.0,0.0,0.0,0.0,0.0,0.0,0.0,0.0,0.0,0.0,0.0,0.0,0.0,0.0,0.0,0.0,0.0,0.0,0.0,0.0,0.0,0.0,0.0,0.0,0.0,0.0,0.0,2.9386,2.9386,2.9067,2.8733,0.0,0.0,0.0,0.0,0.0,0.0,0.0,0.0,0.0,0.0,0.0,0.0,0.0,0.0,0.0,0.0,0.0,0.0,0.0,0.0,0.0,0.0,0.0,0.0,0.0,0.0,0.0,0.0,0.0,0.0,0.0,0.0,0.0,0.0,0.0,0.0,0.0,0.0,0.0,0.0,0.0,0.0,0.0,0.0,0.0,0.0,0.0,0.0,0.0,0.0,0.0,0.0,0.0,0.0,0.0,0.0,0.0,0.0,0.0,0.0,0.0,0.0,0.0,0.0,0.0,0.0,0.0,0.0,0.0,0.0,0.0,0.0,0.0,0.0,0.0,0.0,0.0,0.0,0.0,0.0,0.0,0.0,0.0,0.0,0.0,0.0,0.0,0.0,0.0,0.0,0.0,0.0,0.0,0.0,0.0,0.0,0.0,0.0,0.0,0.0,0.0,0.0,0.0,0.0,0.0,0.0,0.0,0.0,0.0,0.0,2.9386,2.9386,2.9386,2.9386,2.9386,2.9386,0.0,0.0,0.0,0.0,0.0,0.0,0.0,0.0,0.0,0.0,0.0,0.0,0.0,0.0,0.0,0.0,0.0,0.0,0.0,0.0,0.0,0.0,0.0,0.0,0.0,0.0,0.0,0.0,0.0,0.0,0.0,0.0,0.0,0.0,0.0,0.0,0.0,0.0,0.0,0.0,0.0,0.0,0.0,0.0,0.0,0.0,0.0,0.0,0.0,0.0,0.0,0.0,0.0,0.0,0.0,0.0,0.0,0.0,0.0,0.0,0.0,0.0,0.0,0.0,0.0,0.0,0.0,0.0,0.0,0.0,0.0,0.0,0.0,0.0,0.0,0.0,0.0,0.0,0.0,0.0,0.0,0.0,0.0,0.0,0.0,0.0,0.0,0.0,0.0,0.0,0.0,0.0,0.0,0.0,0.0,0.0,0.0,0.0,0.0,0.0,0.0,0.0,0.0,0.0,0.0,0.0,0.0,0.0,2.9386,2.9386,2.9386,2.9386,2.9386,2.9386,0.0,0.0,0.0,0.0,0.0,0.0,0.0,0.0,0.0,0.0,0.0,0.0,0.0,0.0,0.0,0.0,0.0,0.0,0.0,0.0,0.0,0.0,0.0,0.0,0.0,0.0,0.0,0.0,0.0,0.0,0.0,0.0,0.0,0.0,0.0,0.0,0.0,0.0,0.0,0.0,0.0,0.0,0.0,0.0,0.0,0.0,0.0,0.0,0.0,0.0,0.0,0.0,0.0,0.0,0.0,0.0,0.0,0.0,0.0,0.0,0.0,0.0,0.0,0.0,0.0,0.0,0.0,0.0,0.0,0.0,0.0,0.0,0.0,0.0,0.0,0.0,0.0,0.0,0.0,0.0,0.0,0.0,0.0,0.0,0.0,0.0,0.0,0.0,0.0,0.0,0.0,0.0,0.0,0.0,0.0,0.0,0.0,0.0,0.0,0.0,0.0,0.0,0.0,0.0,0.0,0.0,0.0,0.0,0.0,2.9386,2.9386,2.9386,2.9386,2.9386,2.9386,0.0,0.0,0.0,0.0,0.0,0.0,0.0,0.0,0.0,0.0,0.0,0.0,0.0,0.0,0.0,0.0,0.0,0.0,0.0,0.0,0.0,0.0,0.0,0.0,0.0,0.0,0.0,0.0,0.0,0.0,0.0,0.0,0.0,0.0,0.0,0.0,0.0,0.0,0.0,0.0,0.0,0.0,0.0,0.0,0.0,0.0,0.0,0.0,0.0,0.0,0.0,0.0,0.0,0.0,0.0,0.0,0.0,0.0,0.0,0.0,0.0,0.0,0.0,0.0,0.0,0.0,0.0,0.0,0.0,0.0,0.0,0.0,0.0,0.0,0.0,0.0,0.0,0.0,0.0,0.0,0.0,0.0,0.0,0.0,0.0,0.0,0.0,0.0,0.0,0.0,0.0,0.0,0.0,0.0,0.0,0.0,0.0,0.0,0.0,0.0,0.0,0.0,0.0,0.0,0.0,0.0,0.0,0.0,0.0,2.9386,0.0,2.9508,2.9773,2.9532,2.9511,0.0,0.0,0.0,0.0,0.0,0.0,0.0,0.0,0.0,0.0,0.0,0.0,0.0,0.0,0.0,0.0,0.0,0.0,0.0,0.0,0.0,0.0,0.0,0.0,0.0,0.0,0.0,0.0,0.0,0.0,0.0,0.0,0.0,0.0,0.0,0.0,0.0,0.0,0.0,0.0,0.0,0.0,0.0,0.0,0.0,0.0,0.0,0.0,0.0,0.0,0.0,0.0,0.0,0.0,0.0,0.0,0.0,0.0,0.0,0.0,0.0,0.0,0.0,0.0,0.0,0.0,0.0,0.0,0.0,0.0,0.0,0.0,0.0,0.0,0.0,0.0,0.0,0.0,0.0,0.0,0.0,0.0,0.0,0.0,0.0,0.0,0.0,0.0,0.0,0.0,0.0,0.0,0.0,0.0,0.0,0.0,0.0,0.0,0.0,0.0,0.0,0.0,0.0,0.0,0.0,0.0,0.0,0.0,2.9457,2.9436,2.9457,2.9869,3.0549,2.9882,2.9829,0.0,0.0,0.0,0.0,0.0,0.0,0.0,0.0,0.0,0.0,0.0,0.0,0.0,0.0,0.0,0.0,0.0,0.0,0.0,0.0,0.0,0.0,0.0,0.0,0.0,0.0,0.0,0.0,0.0,0.0,0.0,0.0,0.0,0.0,0.0,0.0,0.0,0.0,0.0,0.0,0.0,0.0,0.0,0.0,0.0,0.0,0.0,0.0,0.0,0.0,0.0,0.0,0.0,0.0,0.0,0.0,0.0,0.0,0.0,0.0,0.0,0.0,0.0,0.0,0.0,0.0,0.0,0.0,0.0,0.0,0.0,0.0,0.0,0.0,0.0,0.0,0.0,0.0,0.0,0.0,0.0,0.0,0.0,0.0,0.0,0.0,0.0,0.0,0.0,0.0,0.0,0.0,0.0,0.0,0.0,0.0,0.0,0.0,0.0,0.0,0.0,0.0,0.0,0.0,0.0,0.0,0.0,0.0,0.0,3.1069,3.105,3.1162,3.1403,3.1199,3.118,0.0,0.0,0.0,0.0,0.0,0.0,0.0,0.0,0.0,0.0,0.0,0.0,0.0,0.0,0.0,0.0,0.0,0.0,0.0,0.0,0.0,0.0,0.0,0.0,0.0,0.0,0.0,0.0,0.0,0.0,0.0,0.0,0.0,0.0,0.0,0.0,0.0,0.0,0.0,0.0,0.0,0.0,0.0,0.0,0.0,0.0,0.0,0.0,0.0,0.0,0.0,0.0,0.0,0.0,0.0,0.0,0.0,0.0,0.0,0.0,0.0,0.0,0.0,0.0,0.0,0.0,0.0,0.0,0.0,0.0,0.0,0.0,0.0,0.0,0.0,0.0,0.0,0.0,0.0,0.0,0.0,0.0,0.0,0.0,0.0,0.0,0.0,0.0,0.0,0.0,0.0,0.0,0.0,0.0,0.0,0.0,0.0,0.0,0.0,0.0,0.0,0.0,0.0,0.0,0.0,0.0,0.0,0.0,0.0,3.268,3.2109,3.1937,3.224,3.1958,3.1939,3.2215,0.0,0.0,0.0,0.0,0.0,0.0,0.0,0.0,0.0,0.0,0.0,0.0,0.0,0.0,0.0,0.0,0.0,0.0,0.0,0.0,0.0,0.0,0.0,0.0,0.0,0.0,0.0,0.0,0.0,0.0,0.0,0.0,0.0,0.0,0.0,0.0,0.0,0.0,0.0,0.0,0.0,0.0,0.0,0.0,0.0,0.0,0.0,0.0,0.0,0.0,0.0,0.0,0.0,0.0,0.0,0.0,0.0,0.0,0.0,0.0,0.0,0.0,0.0,0.0,0.0,0.0,0.0,0.0,0.0,0.0,0.0,0.0,0.0,0.0,0.0,0.0,0.0,0.0,0.0,0.0,0.0,0.0,0.0,0.0,0.0,0.0,0.0,0.0,0.0,0.0,0.0,0.0,0.0,0.0,0.0,0.0,0.0,0.0,0.0,0.0,0.0,0.0,0.0,0.0,0.0,0.0,0.0,0.0,3.4219,3.2723,3.2311,3.303,3.2348,3.2292,0.0,0.0,0.0,0.0,0.0,0.0,0.0,0.0,0.0,0.0,0.0,0.0,0.0,0.0,0.0,0.0,0.0,0.0,0.0,0.0,0.0,0.0,0.0,0.0,0.0,0.0,0.0,0.0,0.0,0.0,0.0,0.0,0.0,0.0,0.0,0.0,0.0,0.0,0.0,0.0,0.0,0.0,0.0,0.0,0.0,0.0,0.0,0.0,0.0,0.0,0.0,0.0,0.0,0.0,0.0,0.0,0.0,0.0,0.0,0.0,0.0,0.0,0.0,0.0,0.0,0.0,0.0,0.0,0.0,0.0,0.0,0.0,0.0,0.0,0.0,0.0,0.0,0.0,0.0,0.0,0.0,0.0,0.0,0.0,0.0,0.0,0.0,0.0,0.0,0.0,0.0,0.0,0.0,0.0,0.0,0.0,0.0,0.0,0.0,0.0,0.0,0.0,0.0,0.0,0.0,0.0,0.0,0.0,0.0,3.4182,3.3791,3.3661,3.3887,3.3683,3.3664,0.0,0.0,0.0,0.0,0.0,0.0,0.0,0.0,0.0,0.0,0.0,0.0,0.0,0.0,0.0,0.0,0.0,0.0,0.0,0.0,0.0,0.0,0.0,0.0,0.0,0.0,0.0,0.0,0.0,0.0,0.0,0.0,0.0,0.0,0.0,0.0,0.0,0.0,0.0,0.0,0.0,0.0,0.0,0.0,0.0,0.0,0.0,0.0,0.0,0.0,0.0,0.0,0.0,0.0,0.0,0.0,0.0,0.0,0.0,0.0,0.0,0.0,0.0,0.0,0.0,0.0,0.0,0.0,0.0,0.0,0.0,0.0,0.0,0.0,0.0,0.0,0.0,0.0,0.0,0.0,0.0,0.0,0.0,0.0,0.0,0.0,0.0,0.0,0.0,0.0,0.0,0.0,0.0,0.0,0.0,0.0,0.0,0.0,0.0,0.0,0.0,0.0,0.0,0.0,0.0,0.0,0.0,0.0,3.4219,3.4219,3.4219,3.4219,3.4219,3.4219,3.4219,0.0,0.0,0.0,0.0,0.0,0.0,0.0,0.0,0.0,0.0,0.0,0.0,0.0,0.0,0.0,0.0,0.0,0.0,0.0,0.0,0.0,0.0,0.0,0.0,0.0,0.0,0.0,0.0,0.0,0.0,0.0,0.0,0.0,0.0,0.0,0.0,0.0,0.0,0.0,0.0,0.0,0.0,0.0,0.0,0.0,0.0,0.0,0.0,0.0,0.0,0.0,0.0,0.0,0.0,0.0,0.0,0.0,0.0,0.0,0.0,0.0,0.0,0.0,0.0,0.0,0.0,0.0,0.0,0.0,0.0,0.0,0.0,0.0,0.0,0.0,0.0,0.0,0.0,0.0,0.0,0.0,0.0,0.0,0.0,0.0,0.0,0.0,0.0,0.0,0.0,0.0,0.0,0.0,0.0,0.0,0.0,0.0,0.0,0.0,0.0,0.0,0.0,0.0,0.0,0.0,0.0,0.0,0.0,3.4188,3.4219,3.4219,3.4219,3.4197,3.417,3.4164,0.0,0.0,0.0,0.0,0.0,0.0,0.0,0.0,0.0,0.0,0.0,0.0,0.0,0.0,0.0,0.0,0.0,0.0,0.0,0.0,0.0,0.0,0.0,0.0,0.0,0.0,0.0,0.0,0.0,0.0,0.0,0.0,0.0,0.0,0.0,0.0,0.0,0.0,0.0,0.0,0.0,0.0,0.0,0.0,0.0,0.0,0.0,0.0,0.0,0.0,0.0,0.0,0.0,0.0,0.0,0.0,0.0,0.0,0.0,0.0,0.0,0.0,0.0,0.0,0.0,0.0,0.0,0.0,0.0,0.0,0.0,0.0,0.0,0.0,0.0,0.0,0.0,0.0,0.0,0.0,0.0,0.0,0.0,0.0,0.0,0.0,0.0,0.0,0.0,0.0,0.0,0.0,0.0,0.0,0.0,0.0,0.0,0.0,0.0,0.0,0.0,0.0,0.0,0.0,0.0,0.0,0.0,0.0,3.4148,3.4197,3.4219,3.4219,3.4219,3.39,3.3887,0.0,0.0,0.0,0.0,0.0,0.0,0.0,0.0,0.0,0.0,0.0,0.0,0.0,0.0,0.0,0.0,0.0,0.0,0.0,0.0,0.0,0.0,0.0,0.0,0.0,0.0,0.0,0.0,0.0,0.0,0.0,0.0,0.0,0.0,0.0,0.0,0.0,0.0,0.0,0.0,0.0,0.0,0.0,0.0,0.0,0.0,0.0,0.0,3.051,0.0,0.0,0.0,0.0,0.0,0.0,0.0,0.0,0.0,0.0,0.0,0.0,0.0,0.0,0.0,0.0,0.0,0.0,0.0,0.0,0.0,0.0,0.0,0.0,0.0,0.0,0.0,0.0,0.0,0.0,0.0,0.0,0.0,0.0,0.0,0.0,0.0,0.0,0.0,0.0,0.0,0.0,0.0,0.0,0.0,0.0,0.0,0.0,0.0,0.0,0.0,0.0,0.0,0.0,0.0,0.0,0.0,0.0,0.0,3.4089,3.4151,3.4157,3.417,3.4185,3.369,3.3656,0.0,0.0,0.0,0.0,0.0,0.0,0.0,0.0,0.0,0.0,0.0,0.0,0.0,0.0,0.0,0.0,0.0,0.0,0.0,0.0,0.0,0.0,0.0,0.0,0.0,0.0,0.0,0.0,0.0,0.0,0.0,0.0,0.0,0.0,0.0,0.0,0.0,0.0,0.0,0.0,0.0,0.0,0.0,0.0,0.0,0.0,0.0,0.0,0.0,0.0,0.0,0.0,0.0,0.0,0.0,0.0,0.0,0.0,0.0,0.0,0.0,0.0,0.0,0.0,0.0,0.0,0.0,0.0,0.0,0.0,0.0,0.0,0.0,0.0,0.0,0.0,0.0,0.0,0.0,0.0,0.0,0.0,0.0,0.0,0.0,0.0,0.0,0.0,0.0,0.0,0.0,0.0,0.0,0.0,0.0,0.0,0.0,0.0,0.0,0.0,0.0,0.0,0.0,0.0,0.0,0.0,0.0,3.4039,3.4021,3.4086,3.404,3.4052,3.4111,3.3532,3.3479,3.4037,0.0,0.0,0.0,0.0,0.0,0.0,0.0,0.0,0.0,0.0,0.0,0.0,0.0,0.0,0.0,0.0,0.0,0.0,0.0,0.0,0.0,0.0,0.0,0.0,0.0,0.0,0.0,0.0,0.0,0.0,0.0,0.0,0.0,0.0,0.0,0.0,0.0,0.0,3.1296,3.1084,0.0,0.0,0.0,0.0,0.0,0.0,0.0,0.0,3.2598,0.0,0.0,0.0,0.0,0.0,0.0,0.0,0.0,0.0,0.0,0.0,0.0,0.0,0.0,0.0,0.0,0.0,0.0,0.0,0.0,0.0,0.0,0.0,0.0,0.0,0.0,0.0,0.0,0.0,0.0,0.0,0.0,0.0,0.0,0.0,0.0,0.0,0.0,0.0,0.0,0.0,0.0,0.0,0.0,0.0,0.0,0.0,0.0,0.0,0.0,0.0,0.0,0.0,0.0,0.0,0.0,3.4036,3.4061,3.4061,3.4014,3.3798,3.373,3.3762,3.3412,3.328,3.3426,0.0,0.0,0.0,0.0,0.0,0.0,0.0,0.0,0.0,0.0,0.0,0.0,0.0,0.0,0.0,0.0,0.0,0.0,0.0,0.0,0.0,0.0,0.0,0.0,0.0,0.0,0.0,0.0,0.0,0.0,0.0,0.0,0.0,0.0,0.0,0.0,0.0,0.0,0.0,3.1256,3.1462,0.0,0.0,0.0,0.0,0.0,0.0,0.0,0.0,3.244,0.0,0.0,0.0,0.0,0.0,0.0,0.0,0.0,0.0,0.0,0.0,0.0,0.0,0.0,0.0,0.0,0.0,0.0,0.0,0.0,0.0,0.0,0.0,0.0,0.0,0.0,0.0,0.0,0.0,0.0,0.0,0.0,0.0,0.0,0.0,0.0,0.0,0.0,0.0,0.0,0.0,0.0,0.0,0.0,0.0,0.0,0.0,0.0,0.0,0.0,0.0,0.0,0.0,0.0,0.0,3.4001,3.3963,3.394,3.3937,3.3654,3.3539,3.3582,3.3135,3.2911,0.0,0.0,0.0,0.0,0.0,0.0,0.0,0.0,0.0,0.0,0.0,0.0,0.0,0.0,0.0,0.0,0.0,0.0,0.0,0.0,0.0,0.0,0.0,0.0,0.0,0.0,0.0,0.0,0.0,0.0,0.0,0.0,0.0,0.0,0.0,0.0,0.0,0.0,0.0,0.0,3.194,3.1977,3.2126,0.0,0.0,0.0,0.0,0.0,0.0,3.2287,3.227,0.0,0.0,0.0,0.0,0.0,0.0,0.0,0.0,0.0,0.0,0.0,0.0,0.0,0.0,0.0,0.0,0.0,0.0,0.0,0.0,0.0,0.0,0.0,0.0,0.0,0.0,0.0,0.0,0.0,0.0,0.0,0.0,0.0,0.0,0.0,0.0,0.0,0.0,0.0,0.0,0.0,0.0,0.0,0.0,0.0,0.0,0.0,0.0,0.0,0.0,0.0,0.0,0.0,0.0,0.0,3.4493,3.4325,3.4228,3.4242,3.3884,3.3698,3.3733,3.3195,3.2973,0.0,0.0,0.0,0.0,0.0,0.0,0.0,0.0,0.0,0.0,0.0,0.0,0.0,0.0,0.0,0.0,0.0,0.0,0.0,0.0,0.0,0.0,0.0,0.0,0.0,0.0,0.0,0.0,0.0,0.0,0.0,0.0,0.0,0.0,0.0,0.0,0.0,0.0,0.0,0.0,0.0,3.2243,3.1964,3.1919,0.0,0.0,0.0,0.0,3.2291,3.2034,0.0,0.0,0.0,0.0,0.0,0.0,0.0,0.0,0.0,0.0,0.0,0.0,0.0,0.0,0.0,0.0,0.0,0.0,0.0,0.0,0.0,0.0,0.0,0.0,0.0,0.0,0.0,0.0,0.0,0.0,0.0,0.0,0.0,0.0,0.0,0.0,0.0,0.0,0.0,0.0,0.0,0.0,0.0,0.0,0.0,0.0,0.0,0.0,0.0,0.0,0.0,0.0,0.0,0.0,0.0,0.0,3.6182,3.5835,3.5598,3.5463,3.4883,3.4535,3.4566,3.4207,3.4093,0.0,0.0,0.0,0.0,0.0,0.0,0.0,0.0,0.0,0.0,0.0,0.0,0.0,0.0,0.0,0.0,0.0,0.0,0.0,0.0,0.0,0.0,0.0,0.0,0.0,0.0,0.0,0.0,0.0,0.0,0.0,0.0,0.0,0.0,0.0,0.0,0.0,0.0,0.0,0.0,0.0,3.1973,3.2287,3.2338,3.2389,0.0,0.0,3.2287,3.1924,3.1581,0.0,0.0,0.0,0.0,0.0,0.0,0.0,0.0,0.0,0.0,0.0,0.0,0.0,0.0,0.0,0.0,0.0,0.0,0.0,0.0,0.0,0.0,0.0,0.0,0.0,0.0,0.0,0.0,0.0,0.0,0.0,0.0,0.0,0.0,0.0,0.0,0.0,0.0,0.0,0.0,0.0,0.0,0.0,0.0,0.0,0.0,0.0,0.0,0.0,0.0,0.0,0.0,0.0,0.0,0.0,3.6194,3.647,3.6043,3.5758,3.5668,3.5013,3.4649,3.4644,3.4305,3.423,0.0,0.0,0.0,0.0,0.0,0.0,0.0,0.0,0.0,0.0,0.0,0.0,0.0,0.0,0.0,0.0,0.0,0.0,0.0,0.0,0.0,0.0,0.0,0.0,0.0,0.0,0.0,0.0,0.0,0.0,0.0,0.0,0.0,0.0,0.0,0.0,0.0,0.0,0.0,0.0,0.0,0.0,3.203,3.1841,0.0,0.0,0.0,3.1709,3.175,0.0,0.0,0.0,0.0,0.0,0.0,0.0,0.0,0.0,0.0,0.0,0.0,0.0,0.0,0.0,0.0,0.0,0.0,0.0,0.0,0.0,0.0,0.0,0.0,0.0,0.0,0.0,0.0,0.0,0.0,0.0,0.0,0.0,0.0,0.0,0.0,0.0,0.0,0.0,0.0,0.0,0.0,0.0,0.0,0.0,0.0,0.0,0.0,0.0,0.0,0.0,0.0,0.0,0.0,0.0,0.0,0.0,3.7083,3.6376,3.606,3.613,3.5419,3.5038,3.5028,3.4787,0.0,0.0,0.0,0.0,0.0,0.0,0.0,0.0,0.0,0.0,0.0,0.0,0.0,0.0,0.0,0.0,0.0,0.0,0.0,0.0,0.0,0.0,0.0,0.0,0.0,0.0,0.0,3.3143,0.0,0.0,0.0,0.0,0.0,0.0,0.0,0.0,0.0,0.0,0.0,0.0,0.0,0.0,3.2278,3.1773,3.1487,3.1291,0.0,0.0,3.1674,3.1832,3.1798,3.1883,0.0,0.0,0.0,0.0,0.0,0.0,0.0,0.0,0.0,0.0,0.0,0.0,0.0,0.0,0.0,0.0,0.0,0.0,0.0,0.0,0.0,0.0,0.0,0.0,0.0,0.0,0.0,0.0,0.0,0.0,0.0,0.0,0.0,0.0,0.0,0.0,0.0,0.0,0.0,0.0,0.0,0.0,0.0,0.0,0.0,0.0,0.0,0.0,0.0,0.0,0.0,0.0,0.0,0.0,0.0,3.866,3.7484,3.698,3.734,3.6596,3.6187,3.6182,3.6161,3.6203,0.0,0.0,0.0,0.0,0.0,0.0,0.0,0.0,0.0,0.0,0.0,0.0,0.0,0.0,0.0,0.0,0.0,0.0,0.0,0.0,0.0,0.0,0.0,0.0,0.0,0.0,0.0,0.0,0.0,0.0,0.0,0.0,0.0,0.0,0.0,0.0,0.0,0.0,0.0,0.0,0.0,3.224,3.1764,3.1672,3.1557,0.0,0.0,3.2671,3.2316,3.2811,3.3259,3.3301,0.0,0.0,0.0,0.0,0.0,0.0,0.0,0.0,0.0,0.0,0.0,0.0,0.0,0.0,0.0,0.0,0.0,0.0,0.0,0.0,0.0,0.0,0.0,0.0,0.0,0.0,0.0,0.0,0.0,0.0,0.0,0.0,0.0,0.0,0.0,0.0,0.0,0.0,0.0,0.0,0.0,0.0,0.0,0.0,0.0,0.0,0.0,0.0,0.0,0.0,0.0,0.0,0.0,3.8319,3.8517,3.7711,3.7219,3.71,3.6582,3.6284,3.6284,3.6284,3.6365,0.0,0.0,0.0,0.0,0.0,0.0,0.0,0.0,0.0,0.0,0.0,0.0,0.0,0.0,0.0,0.0,0.0,0.0,0.0,0.0,0.0,0.0,0.0,0.0,0.0,0.0,0.0,0.0,3.3702,3.359,3.3368,0.0,0.0,0.0,0.0,0.0,0.0,0.0,0.0,0.0,0.0,3.2685,3.2461,3.262,0.0,0.0,3.2931,3.3152,3.2997,3.3215,3.3384,3.3384,3.3443,0.0,0.0,0.0,0.0,0.0,0.0,0.0,0.0,0.0,0.0,0.0,0.0,0.0,0.0,0.0,0.0,0.0,0.0,0.0,0.0,0.0,0.0,0.0,0.0,0.0,0.0,0.0,0.0,0.0,0.0,0.0,0.0,0.0,0.0,0.0,0.0,0.0,0.0,0.0,0.0,0.0,0.0,0.0,0.0,0.0,0.0,0.0,0.0,0.0,0.0,0.0,0.0,3.8463,3.8306,3.7537,3.7075,3.6895,3.6518,3.6284,3.6284,3.6284,3.6355,0.0,0.0,0.0,0.0,0.0,0.0,0.0,0.0,0.0,0.0,0.0,0.0,0.0,0.0,0.0,0.0,0.0,0.0,0.0,0.0,0.0,0.0,0.0,0.0,0.0,0.0,0.0,0.0,3.3357,3.3254,3.3293,0.0,0.0,0.0,0.0,0.0,0.0,0.0,0.0,0.0,0.0,3.3255,3.3066,3.3237,3.3384,3.3384,3.3587,3.3722,3.3722,3.3925,3.405,3.4055,0.0,0.0,0.0,0.0,0.0,0.0,0.0,0.0,0.0,0.0,0.0,0.0,0.0,0.0,0.0,0.0,0.0,0.0,0.0,0.0,0.0,0.0,0.0,0.0,0.0,0.0,0.0,0.0,0.0,0.0,3.4219,0.0,0.0,0.0,0.0,0.0,0.0,0.0,0.0,0.0,0.0,0.0,0.0,0.0,0.0,0.0,0.0,0.0,0.0,0.0,0.0,0.0,0.0,3.793,3.8267,3.7025,3.6521,3.6865,3.6495,3.6284,3.6284,3.6284,3.6306,3.6306,0.0,0.0,0.0,0.0,0.0,0.0,0.0,0.0,0.0,0.0,0.0,0.0,0.0,0.0,0.0,0.0,0.0,0.0,0.0,0.0,0.0,0.0,0.0,0.0,0.0,0.0,3.3268,3.2757,3.2847,0.0,0.0,0.0,0.0,0.0,0.0,0.0,0.0,0.0,0.0,3.3963,3.3835,3.344,3.3401,3.3458,3.3429,3.4027,3.4477,3.4472,3.5053,3.5571,0.0,0.0,0.0,0.0,0.0,0.0,0.0,0.0,0.0,0.0,0.0,0.0,0.0,0.0,0.0,0.0,0.0,0.0,0.0,0.0,0.0,0.0,0.0,0.0,0.0,0.0,0.0,3.38,3.3818,0.0,0.0,0.0,0.0,0.0,0.0,0.0,0.0,0.0,0.0,0.0,3.6164,3.6231,0.0,0.0,0.0,0.0,0.0,0.0,0.0,0.0,0.0,0.0,0.0,0.0,3.8011,3.7816,3.709,3.6638,3.6495,3.6379,3.6284,3.6284,3.6284,3.6284,3.6284,0.0,0.0,0.0,0.0,0.0,0.0,0.0,0.0,0.0,0.0,0.0,0.0,0.0,0.0,0.0,0.0,0.0,0.0,0.0,0.0,0.0,0.0,0.0,0.0,0.0,3.4259,0.0,0.0,0.0,0.0,0.0,0.0,0.0,0.0,0.0,0.0,0.0,3.3751,3.3507,3.3885,3.4165,3.4014,3.437,3.4695,0.0,0.0,0.0,0.0,0.0,0.0,0.0,0.0,0.0,0.0,0.0,0.0,0.0,0.0,3.4718,3.3943,3.3807,3.3838,3.4007,0.0,0.0,0.0,0.0,0.0,0.0,0.0,0.0,0.0,0.0,0.0,0.0,0.0,0.0,0.0,0.0,3.3979,0.0,0.0,0.0,0.0,0.0,0.0,0.0,0.0,3.6513,3.6717,3.6943,3.7022,3.718,0.0,3.8013,3.8252,0.0,0.0,0.0,0.0,0.0,0.0,0.0,0.0,3.785,3.7396,3.6944,3.6574,3.6299,3.6284,3.6284,3.6284,3.6284,3.6284,3.6284,3.6286,3.6286,0.0,0.0,0.0,0.0,0.0,0.0,0.0,0.0,0.0,0.0,0.0,0.0,0.0,0.0,0.0,0.0,0.0,0.0,0.0,0.0,0.0,0.0,0.0,3.4673,0.0,0.0,0.0,0.0,0.0,0.0,0.0,0.0,0.0,3.3968,3.4031,3.4023,3.3944,3.4354,3.4639,3.4639,0.0,0.0,0.0,0.0,0.0,0.0,0.0,3.552,3.556,3.5566,3.5594,3.5577,3.5622,3.5622,3.5622,0.0,0.0,3.445,3.4286,3.4313,3.4337,3.4358,3.4437,3.4656,3.468,3.4776,0.0,0.0,0.0,0.0,0.0,0.0,0.0,0.0,3.4057,3.4304,0.0,3.4699,0.0,0.0,0.0,0.0,0.0,3.6385,0.0,0.0,3.6351,3.6888,3.7628,3.7711,3.8066,3.8678,3.8927,3.8938,3.8721,3.887,0.0,0.0,0.0,0.0,0.0,0.0,3.7387,3.7001,3.6534,3.6306,3.6284,3.6284,3.6284,3.6284,3.6284,3.6284,3.6278,3.6233,3.6229,3.629,3.624,0.0,0.0,0.0,0.0,0.0,0.0,0.0,0.0,0.0,0.0,0.0,0.0,0.0,0.0,0.0,0.0,0.0,0.0,0.0,0.0,3.4737,0.0,0.0,0.0,0.0,0.0,0.0,0.0,0.0,0.0,0.0,3.4398,3.4276,3.4487,3.5168,0.0,0.0,0.0,0.0,3.528,3.5297,3.5285,3.5291,3.5314,3.5303,3.536,3.5486,0.0,0.0,3.5583,3.5583,3.5622,3.5622,3.5622,3.56,3.5571,3.5526,3.5543,3.5549,3.552,3.5594,3.5599,3.552,3.557,3.7353,0.0,0.0,0.0,0.0,3.5272,3.4962,3.4438,3.4785,3.5008,3.5132,3.5132,0.0,0.0,0.0,0.0,0.0,0.0,3.6908,3.7525,3.7692,3.8001,3.8472,3.8523,3.8504,3.8419,3.8774,3.8463,3.7582,3.8139,3.8543,3.8737,0.0,0.0,0.0,0.0,3.7082,3.6911,3.6523,3.6284,3.6284,3.6284,3.6284,3.6284,3.6284,3.6284,3.6284,3.6292,3.6255,3.6229,3.6208,0.0,0.0,0.0,0.0,0.0,0.0,0.0,0.0,0.0,0.0,0.0,0.0,0.0,0.0,0.0,0.0,0.0,0.0,0.0,3.5361,3.5674,3.5757,0.0,0.0,0.0,0.0,0.0,0.0,0.0,0.0,0.0,3.4893,3.4939,3.5022,0.0,0.0,3.5163,3.5157,3.5065,3.5047,3.5152,0.0,0.0,0.0,3.5308,3.5308,3.536,3.544,3.5503,3.552,3.5566,3.5622,3.5622,3.5622,3.5622,3.5622,3.5622,3.5622,3.5622,3.5622,3.5622,3.5622,3.5622,3.5616,3.9154,3.763,3.6918,3.66,3.661,3.6493,3.6166,3.5708,3.5656,3.5845,3.6086,3.5656,3.6002,3.6921,3.6716,0.0,0.0,0.0,3.772,3.8223,3.8891,3.9331,3.9549,3.9546,3.9451,3.9226,3.9282,3.891,3.8116,3.8458,3.885,3.92,0.0,0.0,3.7716,3.722,3.687,3.6663,3.6425,3.6284,3.6284,3.6284,3.6284,3.6284,3.6284,3.6285,3.626,3.62,3.6152,3.6122,3.6063,3.6025,0.0,0.0,0.0,0.0,0.0,0.0,0.0,0.0,0.0,0.0,0.0,3.4804,3.4735,0.0,0.0,0.0,3.4725,3.5032,3.5607,3.599,0.0,0.0,0.0,0.0,0.0,0.0,0.0,3.4609,3.4838,3.5018,3.5018,3.5093,3.51,3.5029,3.5018,3.5018,3.5012,0.0,3.4935,3.5022,3.5012,3.5047,3.5134,3.5146,3.5163,3.5216,3.5309,3.544,3.5486,3.5532,3.5566,3.5594,3.5622,3.5622,3.5622,3.5622,3.5622,3.5622,3.5622,3.5622,3.5622,3.5622,3.5622,4.0542,4.0071,3.8937,3.8333,3.8059,3.7747,3.7544,3.7435,3.6744,3.686,3.7451,3.6447,3.6619,3.7739,3.7775,0.0,3.7168,3.8351,3.8651,3.8332,3.9795,4.0544,4.0679,4.0592,4.0562,4.0526,4.0193,3.9899,3.9667,3.9426,3.9449,3.9664,3.8298,3.7451,3.7195,3.7032,3.6755,3.6392,3.6335,3.6284,3.6284,3.6284,3.6284,3.6284,3.6284,3.6265,3.6187,3.6068,3.602,3.5981,3.5867,3.5839,3.5959,0.0,0.0,0.0,0.0,0.0,0.0,0.0,0.0,0.0,0.0,0.0,0.0,0.0,0.0,0.0,3.5672,0.0,3.5588,3.5882,0.0,0.0,0.0,3.5699,3.5337,3.5181,3.5099,3.5093,0.0,0.0,3.4988,3.5054,3.5075,3.5065,3.5038,3.4998,3.5048,3.5137,3.5093,3.517,3.5104,3.5081,3.5238,3.5221,3.5274,3.5391,3.5332,3.5448,3.553,3.5503,3.5548,3.5583,3.5588,3.5622,3.5622,3.5622,3.5622,3.5622,3.5622,3.5622,3.5622,3.5622,3.5622,4.3793,4.3334,4.2685,4.1091,3.8964,3.921,3.8926,3.8334,3.8451,3.8594,3.8747,3.8502,3.855,3.8831,3.8843,3.8604,3.8233,3.8518,3.8776,3.8987,3.935,3.9872,4.045,4.0437,4.032,4.0085,4.022,3.9825,3.8933,3.9119,3.9108,3.8873,3.8514,3.8456,3.8645,3.7803,3.7298,3.7219,3.6611,3.6284,3.6284,3.6284,3.6284,3.6284,3.6284,3.6271,3.6192,3.6177,3.6058,3.5861,3.5817,3.5767,3.5683,3.5789,0.0,0.0,0.0,0.0,0.0,0.0,0.0,0.0,0.0,3.5895,3.585,0.0,3.5795,0.0,3.5616,3.5588,3.552,3.5605,0.0,0.0,3.5401,3.5355,3.5158,3.5111,3.5059,3.4958,3.542,3.575,3.5738,3.6218,3.6589,3.6566,3.6092,3.5936,3.646,3.6566,3.6566,3.6533,3.6522,3.6582,3.6522,3.6566,3.6545,3.6626,3.6255,3.6008,3.6015,3.5734,3.5492,3.5531,3.5566,3.5611,3.5605,3.5622,3.5605,3.5622,3.5622,3.5622,3.5622,3.5622,3.5622,4.4262,4.3915,4.384,4.2719,4.0999,4.1256,4.0886,4.0118,4.0006,3.9856,3.9666,3.9333,3.9098,3.8939,3.8939,3.8803,3.8634,3.8951,3.9218,3.9438,3.9994,4.0481,4.0976,4.0927,4.0818,4.0702,4.0646,4.0278,3.9681,3.9838,3.9833,3.9629,3.9629,3.9749,3.9881,3.8641,3.799,3.799,3.7226,3.6841,3.6806,3.6473,3.6284,3.6296,3.6271,3.6219,3.6106,3.6052,3.5922,3.5734,3.57,3.5689,3.5622,3.5667,3.5739,0.0,0.0,0.0,0.0,0.0,0.0,0.0,0.0,0.0,0.0,0.0,3.5672,3.5622,3.5622,3.5583,3.5509,3.5435,3.5366,3.5227,3.5169,3.5099,3.5018,3.5311,3.5474,3.5408,3.6042,3.6483,3.65,3.6854,3.7228,3.7526,3.7238,3.6996,3.7063,3.7119,3.7119,3.7119,3.7119,3.7119,3.7119,3.7119,3.7119,3.7079,3.6827,3.6607,3.6662,3.6212,3.5828,3.5864,3.5722,3.5571,3.5566,3.5577,3.56,3.5622,3.5622,3.5622,3.5622,3.5622,3.5622,4.3711,4.3484,4.3845,4.3802,4.3483,4.3483,4.2982,4.2107,4.1481,4.1001,4.062,3.9878,3.9363,3.9037,3.8939,3.8899,3.8945,3.9549,3.9848,3.9922,4.0941,4.1512,4.1671,4.1544,4.155,4.1649,4.1197,4.0953,4.0894,4.0888,4.0888,4.0888,4.0888,4.0888,4.0837,3.9554,3.8795,3.8606,3.7967,3.7628,3.7628,3.6928,3.6567,3.655,3.6402,3.6266,3.6112,3.5918,3.5739,3.5611,3.5622,3.5622,3.5622,3.5622,3.5656,0.0,3.5801,0.0,0.0,0.0,0.0,0.0,0.0,0.0,0.0,3.5622,3.5622,3.5622,3.5622,3.5566,3.5497,3.5438,3.5389,3.5232,3.5197,3.5181,3.5214,3.5754,3.6135,3.6141,3.6781,3.7228,3.7245,3.7317,3.7642,3.8222,3.8305,3.8089,3.7576,3.7483,3.75,3.7384,3.7377,3.7566,3.7516,3.746,3.7466,3.7427,3.7328,3.7306,3.74,3.6822,3.639,3.6449,3.6042,3.5676,3.5615,3.5633,3.5583,3.56,3.5622,3.5622,3.5622,3.5622,3.5622,4.5208,4.4837,4.5038,4.5057,4.499,4.4996,4.4216,4.2965,4.281,4.2721,4.2569,4.1825,4.1426,4.1303,4.0727,4.0469,4.0457,4.0612,4.0687,4.0693,4.0914,4.1203,4.1522,4.1505,4.15,4.1545,4.1411,4.1214,4.0888,4.0888,4.0888,4.0888,4.0888,4.0888,4.0888,0.0,0.0,0.0,3.8468,3.8399,3.8381,3.8126,3.8002,3.7979,3.7312,0.0,3.6707,3.6129,3.5739,3.5611,3.5622,0.0,0.0,0.0,0.0,0.0,0.0,0.0,0.0,0.0,0.0,0.0,3.5633,3.5622,3.5622,3.5622,3.5622,3.5622,3.5622,3.5521,3.5371,3.5872,3.6088,3.5877,3.6342,3.6698,3.6704,3.6814,3.6887,3.6914,3.7536,3.7977,3.8017,3.8493,3.8911,3.9027,3.9093,3.9043,3.8878,3.8811,3.8861,3.8878,3.8772,3.8861,3.8894,3.8815,3.8762,3.8821,3.8361,3.8046,3.7947,3.7495,3.7089,3.7086,3.6631,3.6237,3.6291,3.5907,3.5588,3.5583,3.5622,3.5622,3.5622,3.5622,3.5622,4.5299,0.0,4.5274,4.5334,0.0,4.5421,4.4979,4.4251,4.389,4.3534,4.3172,4.2781,4.2596,4.2579,4.2206,4.2039,4.2033,4.205,4.2016,4.2033,4.2027,4.2137,4.2334,4.2352,4.2125,4.176,4.1743,4.1447,4.0918,4.0888,4.0888,4.0888,4.0888,4.0888,4.0888,4.0888,4.0503,3.975,3.9347,3.9106,3.9038,3.8614,3.8363,3.8288,0.0,0.0,0.0,0.0,0.0,0.0,0.0,0.0,0.0,0.0,0.0,3.5712,3.5712,3.5712,3.5717,3.5712,3.5678,3.5611,3.5622,3.5622,3.5622,3.5622,3.5577,3.5566,3.5852,3.5962,3.5812,3.6411,3.6753,3.6597,3.6874,3.7119,3.7145,3.7443,3.7636,3.7702,3.8295,3.8748,3.8742,3.9043,3.9282,3.9315,3.9315,3.9315,3.9315,3.9315,3.9315,3.9315,3.9315,3.9299,3.9315,3.9315,3.9285,3.9242,3.8987,3.8629,3.8295,3.7715,3.7249,3.7206,3.6751,3.645,3.6768,3.64,3.5991,3.6015,3.5791,3.5616,3.5622,3.5622,3.5622,4.4947,4.5157,4.519,4.5274,4.5421,4.5421,4.5421,4.5345,0.0,0.0,0.0,4.3465,4.3396,4.3385,4.3265,4.3219,4.3219,4.3219,4.3219,4.3219,4.3219,4.3219,4.3219,4.3219,4.2855,4.224,4.2217,4.1889,4.1326,4.1309,4.1303,4.1303,4.132,4.1234,4.1096,4.0981,4.0894,4.0836,4.0209,3.9818,3.9701,3.9071,3.8681,3.8588,3.8328,3.8184,3.8179,3.7987,3.791,3.7877,3.7319,3.6993,3.697,3.6377,3.6011,3.6005,3.6005,3.6005,3.5994,3.6011,3.6011,3.6017,3.6011,3.5893,3.5639,3.574,3.5797,3.5745,3.6333,3.6629,3.6458,3.707,3.7434,3.7307,3.741,3.7516,3.7533,3.8007,3.8387,3.847,3.8914,3.9299,3.9275,3.9282,3.9315,3.9315,3.9315,3.9315,3.9315,3.9315,3.9315,3.9315,3.9315,3.9255,3.9141,3.9094,3.9087,3.8894,3.8877,3.8768,3.8227,3.7634,3.7332,3.7457,3.6884,3.6836,3.7285,3.7052,3.6722,3.6712,3.6234,3.5825,3.5808,3.5712,3.5622,4.4886,4.5039,4.516,4.528,4.5421,4.5421,4.5421,4.5397,4.5283,4.5186,4.5059,4.4412,4.4132,4.4104,4.3483,4.3219,4.3219,4.3219,4.3219,0.0,4.3219,4.3219,4.3219,4.3219,4.3138,4.3034,4.304,4.2988,4.2879,4.2868,4.2885,4.2868,4.2885,4.2516,4.1849,4.1222,4.0846,4.0727,4.0624,4.056,4.0513,4.0216,4.0025,3.9973,3.9245,3.8855,3.8843,3.8256,3.791,3.7893,3.7792,3.7747,3.773,3.7612,3.7578,3.7572,3.7572,3.7578,3.7572,3.7578,3.7578,3.7572,3.7572,3.7037,3.5757,3.6254,3.6626,3.6642,3.7167,3.7474,3.7378,3.7855,3.8194,3.8102,3.8622,3.8977,3.8911,3.901,3.9093,3.9093,3.9226,3.9315,3.9315,3.9315,3.9315,3.9315,3.9315,3.9315,3.9315,3.9315,3.9315,3.9315,3.9315,3.9057,3.8645,3.8458,3.8289,3.7744,3.7744,3.7765,3.7561,3.739,3.7425,3.798,3.7443,3.7385,3.7996,3.7761,3.7431,3.7416,3.6952,3.6625,3.6609,3.6158,3.5673,4.4762,4.4893,4.4944,4.51,4.5311,4.5371,4.5421,4.5421,4.5421,4.5421,4.5363,4.5048,4.49,4.4865,4.4544,4.4389,4.4389,4.4382,4.4389,4.4389,4.44,4.4389,4.4395,4.4395,4.4195,4.381,4.38,4.3592,4.323,4.3219,4.3219,4.3219,4.3219,4.3017,4.2648,4.2303,4.1857,4.1297,4.0914,4.0647,4.0496,4.035,4.0257,4.0194,3.9799,3.9592,3.9592,3.9265,3.9096,3.9096,3.8723,3.8497,3.8497,3.8142,3.791,3.791,3.791,3.791,3.791,3.791,3.791,3.791,3.791,3.7623,3.6913,3.7178,3.7358,3.7309,3.7834,3.8147,3.8039,3.8539,3.8854,3.8788,3.9103,3.9299,3.9315,3.9315,3.9315,3.9315,3.9315,3.9315,3.9315,3.9315,3.9315,3.9315,3.9315,3.9315,3.9315,3.9315,3.9308,3.9272,3.9003,3.8676,3.8337,3.8001,3.772,3.7429,3.7383,3.7243,3.6989,3.6868,3.6981,3.722,3.7246,3.7463,3.7857,3.7959,3.7882,3.7626,3.7498,3.7318,3.7279,3.6789,3.6163,4.4689,4.4796,4.4796,4.4951,4.5197,4.5307,4.5371,4.5421,4.5421,4.5421,4.5421,4.5421,4.5421,4.5421,4.5421,4.5397,4.5421,4.5421,4.5404,4.5421,4.5421,4.5421,4.5421,4.5421,4.5093,4.4609,4.454,4.4246,4.3746,4.3683,4.3694,4.3683,4.3534,4.3431,4.3448,4.3227,4.2743,4.2026,4.1406,4.0833,4.0311,4.0286,4.0194,4.0119,4.0096,4.0106,4.0106,4.0106,4.0106,4.0072,3.9565,3.9254,3.9231,3.87,3.8396,3.8396,3.8413,3.8396,3.8396,3.8396,3.8396,3.8396,3.839,3.8396,3.8396,3.8396,3.8275,3.8098,3.8528,3.8808,3.8756,3.9016,3.9315,3.9315,3.9315,3.9315,3.9315,3.9315,3.9315,3.9315,3.9315,3.9315,3.9315,3.9315,3.9315,3.9315,3.9315,3.9315,3.9315,3.9315,3.9279,3.9016,3.8618,3.8273,3.8108,3.756,3.7146,3.7011,3.6921,3.6669,3.6321,3.6196,3.6305,3.6469,3.6822,3.718,3.7386,3.795,3.8173,3.7932,3.7909,3.7939,3.7825,3.7449,3.6693,4.4682,4.4783,4.4789,4.4961,4.5177,4.522,4.5294,4.539,4.5421,4.5421,4.5421,4.5421,4.5421,4.5421,4.5421,4.5421,4.5421,4.5421,4.5421,4.5421,4.5421,4.5421,4.5421,4.5421,4.5363,4.5283,4.5272,4.518,4.5083,4.5117,4.5162,4.5111,4.4533,4.4207,4.4119,4.3384,4.286,4.261,4.2429,4.1678,4.0384,4.0182,4.0102,4.0096,4.0106,4.0106,4.0106,4.0106,4.0106,4.0106,4.0039,3.9977,3.9977,3.9926,3.9869,3.9869,3.9869,3.9886,3.9869,3.9897,3.9836,3.9886,3.9836,3.9819,3.9819,3.9852,3.9592,3.9095,3.9307,3.9529,3.9581,3.9425,3.9299,3.9315,3.9315,3.9315,3.9315,3.9315,3.9315,3.9315,3.9315,3.9315,3.9315,3.9315,3.9315,3.9315,3.9315,3.9315,3.9308,3.9218,3.9007,3.859,3.8308,3.8001,3.7554,3.692,3.6383,3.5909,3.5717,3.5733,3.5701,3.5685,3.5733,3.6164,3.6453,3.6761,3.7228,3.7941,3.8372,3.8114,3.819,3.8471,3.8059,3.7753,3.7155,4.4626,4.4672,4.4682,4.4838,4.5073,4.5174,4.5274,4.5414,4.5421,4.5421,4.5421,4.5421,4.5421,4.5421,4.5421,4.5421,4.5421,4.5421,4.5421,4.5421,4.5421,4.5421,4.5421,4.5421,4.5421,4.5421,4.5421,4.5421,4.5421,4.5421,4.5421,4.538,4.5089,4.4951,4.4904,4.4494,4.4002,4.3423,4.3268,4.2645,4.1566,4.1006,4.0753,4.0709,4.0337,4.0106,4.0106,4.0106,4.0106,4.0106,4.0106,4.0106,4.0106,4.0106,4.0106,4.0106,4.0106,4.0106,4.0106,4.0106,4.0106,4.0106,4.0106,4.0106,4.0106,4.0106,3.9923,3.9623,3.9656,3.9703,3.9671,3.9448,3.9315,3.9315,3.9315,3.9315,3.9315,3.9315,3.9315,3.9315,3.9315,3.9315,3.9315,3.9315,3.9315,3.9315,3.9315,3.9315,3.9285,3.8966,3.8618,3.8278,3.7713,3.7123,3.6814,3.6274,3.5821,3.5578,3.5489,3.5489,3.5489,3.5489,3.5611,3.5862,3.6133,3.6235,3.618,3.7131,3.7807,3.7747,3.7982,3.8158,3.76,3.7494,3.6981,4.477,4.4608,4.4591,4.4737,4.4961,4.5046,4.5187,4.5327,4.5351,4.5377,4.5397,4.5421,4.5421,4.5421,4.5421,4.5421,4.5421,4.5421,4.5421,4.5421,4.5421,4.5421,4.5421,4.5421,4.5421,4.5421,4.5421,4.5421,4.5421,4.5421,4.5421,4.5421,4.5421,4.5377,4.5338,4.5214,4.4823,4.4214,4.4021,4.3603,4.2922,4.2195,4.1705,4.1491,4.1003,4.0692,4.0699,4.0506,4.0411,4.0388,4.0208,4.0106,4.0106,4.0106,4.0106,4.0106,4.0106,4.0106,4.0106,4.0106,4.0106,4.0106,4.0106,4.0106,4.0106,4.0106,4.0068,3.995,3.98,3.9701,3.9612,3.9445,3.9322,3.9315,3.9315,3.9315,3.9315,3.9315,3.9315,3.9315,3.9315,3.9315,3.9315,3.9315,3.9315,3.9315,3.9315,3.9315,3.9218,3.8751,3.828,3.8051,3.7109,3.6523,3.636,3.5949,3.557,3.5489,3.5489,3.5489,3.5489,3.5489,3.5489,3.5701,3.5982,3.6077,3.5918,3.6508,3.7258,3.7175,3.7451,3.7894,3.7741,3.7549,3.7332,4.5237,4.4625,4.4591,4.4682,4.4803,4.4841,4.4971,4.521,4.522,4.5274,4.539,4.5421,4.5421,4.5421,4.5421,4.5421,4.5421,4.5421,4.5421,4.5421,4.5421,4.5421,4.5421,4.5421,4.5421,4.5421,4.5421,4.5421,4.5421,4.5421,4.5421,4.5421,4.539,4.532,4.522,4.508,4.4913,4.4698,4.457,4.4479,4.4347,4.3666,4.2932,4.2378,4.2198,4.209,4.2056,4.1491,4.1163,4.1163,4.0557,4.0174,4.0123,4.0106,4.0106,4.0106,4.0106,4.0106,4.0106,4.0106,4.0106,4.0106,4.0106,4.0106,4.0106,4.0106,4.0094,4.0094,3.9833,3.9662,3.9541,3.9398,3.9315,3.9315,3.9315,3.9315,3.9315,3.9315,3.9315,3.9315,3.9315,3.9315,3.9315,3.9315,3.9315,3.9285,3.9285,3.9245,3.9094,3.8655,3.8001,3.7457,3.6868,3.6376,3.6321,3.5894,3.5554,3.5489,3.5489,3.5489,3.5489,3.5489,3.5489,3.5489,3.5619,3.5676,3.5667,3.606,3.6738,3.7071,3.7421,3.7694,3.7523,3.804,3.7822,4.5287,4.4615,4.4591,4.4682,4.4806,4.4796,4.4961,4.5183,4.519,4.528,4.5384,4.5421,4.5421,4.5421,4.5421,4.5421,4.5421,4.5421,4.5421,4.5421,4.5421,4.5421,4.5421,4.5421,4.5421,4.5421,4.5421,4.5421,4.5421,4.5421,4.5421,4.5384,4.5307,4.5237,4.518,4.4971,4.4845,4.4783,4.4661,4.4591,4.4574,4.4313,4.4019,4.3728,4.2784,4.2303,4.2303,4.2046,4.1897,4.1921,4.1633,4.1278,4.0821,4.0337,4.0106,4.0106,4.0106,4.0106,4.0106,4.0106,4.0106,4.0106,4.0106,4.0106,4.0106,4.0106,4.0075,3.9967,3.9813,3.9638,3.9504,3.9372,3.9315,3.9315,3.9315,3.9315,3.9315,3.9315,3.9315,3.9315,3.9315,3.9315,3.9315,3.9315,3.9315,3.9265,3.8948,3.8717,3.8493,3.7794,3.7056,3.6761,3.625,3.5814,3.5814,3.5676,3.5489,3.5489,3.5489,3.5489,3.5489,3.5489,3.5489,3.5489,3.5489,3.5497,3.5587,3.5758,3.6399,3.6577,3.6967,3.726,3.7095,3.7401,3.7342,4.5423,4.4956,4.4709,4.4654,4.4744,4.4737,4.4865,4.5066,4.512,4.5214,4.5314,4.5384,4.5421,4.5421,4.5421,4.5421,4.5421,4.5421,4.5421,4.5421,4.5421,4.5421,4.5421,4.5421,4.5421,4.5421,4.5421,4.5421,4.5397,4.5364,4.5344,4.532,4.5207,4.512,4.5052,4.4893,4.4776,4.473,4.4657,4.4591,4.4591,4.4591,4.4591,4.4455,4.3586,4.3051,4.3044,4.28,4.2652,4.2631,4.2445,4.2073,4.1566,4.0855,4.0455,4.0438,4.0218,4.0106,4.0106,4.0106,4.0106,4.0106,4.0106,4.0106,4.0106,4.0106,4.0037,3.9903,3.9781,3.9662,3.9504,3.9365,3.9315,3.9315,3.9315,3.9315,3.9315,3.9315,3.9315,3.9315,3.9315,3.9315,3.9315,3.9315,3.9181,3.9023,3.8546,3.8271,3.7908,3.7154,3.6399,3.636,3.5926,3.5627,3.5587,3.5538,3.5489,3.5489,3.5489,3.5489,3.5489,3.5489,3.5489,3.5489,3.5489,3.5489,3.5547,3.5662,3.5815,3.5981,3.6336,3.6762,3.6662,3.6577,3.67,4.5713,4.5551,4.4912,4.4608,4.4612,4.4612,4.4689,4.4838,4.4944,4.5086,4.5227,4.5327,4.539,4.5421,4.5421,4.5421,4.5421,4.5421,4.5421,4.5421,4.5421,4.5421,4.5421,4.5421,4.5421,4.5421,4.5421,4.5421,4.5414,4.528,4.521,4.5177,4.5083,4.4954,4.481,4.4789,4.473,4.464,4.4608,4.4591,4.4591,4.4591,4.4591,4.4591,4.4472,4.4405,4.4455,4.3792,4.3413,4.3338,4.2817,4.2361,4.2259,4.161,4.1214,4.1102,4.0557,4.0174,4.0146,4.014,4.0106,4.0106,4.0106,4.0106,4.0106,4.0106,4.0043,3.992,3.9798,3.9645,3.9504,3.9382,3.9315,3.9315,3.9315,3.9315,3.9315,3.9315,3.9315,3.9315,3.9315,3.9315,3.9315,3.9218,3.8966,3.8548,3.8203,3.7887,3.7405,3.6715,3.6407,3.625,3.587,3.5522,3.5489,3.5489,3.5489,3.5489,3.5489,3.5489,3.5489,3.5489,3.5489,3.5489,3.5489,3.5489,3.5538,3.5661,3.587,3.606,3.6273,3.6437,3.6476,3.6499,3.6499,4.6167,4.5628,4.4912,4.4591,4.4591,4.4591,4.4682,4.4796,4.4851,4.5002,4.518,4.5247,4.5307,4.5384,4.5421,4.5421,4.5421,4.5421,4.5414,4.5414,4.5397,4.5421,4.5421,4.5421,4.5421,4.5421,4.5421,4.5421,4.5377,4.5267,4.519,4.5167,4.4964,4.4851,4.4783,4.4716,4.4643,4.4598,4.4591,4.4591,4.4591,4.4591,4.4591,4.4591,4.4591,4.4591,4.4574,4.4347,4.4222,4.4205,4.4009,4.3636,4.3041,4.2371,4.1978,4.1887,4.1255,4.0855,4.0781,4.0388,4.0123,4.0106,4.0106,4.0106,4.0106,4.0106,4.0037,3.992,3.9791,3.9662,3.9504,3.9382,3.9322,3.9315,3.9315,3.9315,3.9315,3.9315,3.9315,3.9315,3.9315,3.9315,3.9211,3.8996,3.8555,3.8179,3.7582,3.6951,3.6692,3.6219,3.5805,3.5748,3.5529,3.5489,3.5489,3.5489,3.5489,3.5489,3.5489,3.5489,3.5489,3.5489,3.5489,3.5489,3.5489,3.5522,3.557,3.5709,3.5933,3.6099,3.6273,3.6398,3.6476,3.6499,3.6499,4.6532,4.5991,4.5024,4.4591,4.4591,4.4591,4.4664,4.472,4.4776,4.4906,4.5056,4.515,4.5264,4.5331,4.5384,4.5371,4.5327,4.5371,4.5371,4.5351,4.5367,4.5397,4.5421,4.5421,4.5421,4.539,4.5351,4.5338,4.5331,4.5147,4.5052,4.5012,4.4831,4.473,4.4723,4.4647,4.4591,4.4591,4.4591,4.4591,4.4591,4.4591,4.4591,4.4591,4.4591,4.4591,4.4591,4.4591,4.4591,4.4591,4.4591,4.4347,4.3819,4.3132,4.2709,4.2574,4.2066,4.1603,4.1542,4.0956,4.05,4.0483,4.0259,4.0106,4.0106,4.0106,4.003,3.9845,3.9749,3.9642,3.9445,3.9352,3.9299,3.9315,3.9315,3.9315,3.9315,3.9315,3.9315,3.9315,3.9315,3.9181,3.8884,3.8655,3.8058,3.764,3.692,3.625,3.6108,3.5765,3.5602,3.5512,3.5504,3.5489,3.5489,3.5489,3.5489,3.5489,3.5489,3.5489,3.5489,3.5489,3.5489,3.5489,3.5489,3.5547,3.5612,3.5821,3.6021,3.6163,3.6289,3.6414,3.6499,3.6499,3.6499,4.6827,4.6607,4.5261,4.4658,4.4608,4.4591,4.4598,4.4643,4.473,4.4789,4.4872,4.5066,4.5194,4.5241,4.5338,4.5324,4.5241,4.5287,4.5298,4.5247,4.53,4.5377,4.5397,4.5421,4.5421,4.5384,4.528,4.522,4.5214,4.4957,4.4796,4.4817,4.4702,4.4605,4.4612,4.4591,4.4591,4.4591,4.4591,4.4591,4.4591,4.4591,4.4591,4.4591,4.4591,4.4591,4.4591,4.4591,4.4591,4.4591,4.4591,4.4574,4.4438,4.3876,4.348,4.343,4.2784,4.2428,4.2208,4.1677,4.1248,4.1221,4.0658,4.0157,4.0252,4.0185,3.9982,3.9762,3.971,3.9586,3.9379,3.9315,3.9315,3.9315,3.9315,3.9315,3.9315,3.9315,3.9315,3.9315,3.9265,3.9057,3.85,3.8278,3.7648,3.6883,3.6414,3.6037,3.5765,3.5554,3.5506,3.5489,3.5489,3.5489,3.5489,3.5489,3.5489,3.5489,3.5489,3.5489,3.5489,3.5489,3.5489,3.5489,3.5514,3.558,3.5686,3.5878,3.6053,3.6172,3.6312,3.6445,3.6499,3.6499,3.6499,4.7286,4.6708,4.5812,4.5108,4.4625,4.4591,4.4591,4.4591,4.465,4.4716,4.48,4.4988,4.5089,4.519,4.5227,4.5234,4.5194,4.5133,4.5093,4.5086,4.5183,4.5307,4.5384,4.5397,4.5397,4.5377,4.5223,4.519,4.518,4.492,4.4789,4.4796,4.4661,4.4591,4.4591,4.4591,4.4591,4.4591,4.4591,4.4591,4.4591,4.4591,4.4591,4.4591,4.4591,4.4591,4.4591,4.4591,4.4591,4.4591,4.4591,4.4591,4.4574,4.4371,4.4205,4.4096,4.3548,4.3118,4.2973,4.2439,4.2056,4.1955,4.1329,4.0933,4.0889,4.0411,4.0024,3.9768,3.9697,3.9569,3.9365,3.9315,3.9315,3.9315,3.9315,3.9315,3.9315,3.9315,3.9315,3.9315,3.9308,3.8912,3.8379,3.7836,3.7325,3.6546,3.6045,3.5757,3.5554,3.5489,3.5489,3.5489,3.5489,3.5489,3.5489,3.5489,3.5489,3.5489,3.5489,3.5489,3.5489,3.5489,3.5489,3.5489,3.5538,3.5596,3.5718,3.5878,3.6022,3.6219,3.6344,3.6484,3.6492,3.6499,3.6499,4.7658,4.7158,4.6143,4.5449,4.5041,4.4729,4.4591,4.4591,4.4591,4.4633,4.4744,4.4851,4.4957,4.5032,4.5086,4.508,4.5032,4.5022,4.4964,4.4937,4.5103,4.5241,4.5294,4.5314,4.5298,4.5207,4.51,4.5039,4.4985,4.481,4.4713,4.4686,4.4633,4.4591,4.4591,4.4591,4.4591,4.4591,4.4591,4.4591,4.4591,4.4591,4.4591,4.4591,4.4591,4.4591,4.4591,4.4591,4.4591,4.4591,4.4591,4.4591,4.4591,4.4591,4.4591,4.4567,4.4137,4.3917,4.3768,4.3193,4.2787,4.2642,4.2083,4.1728,4.1525,4.099,4.0442,4.0245,3.9904,3.9593,3.9372,3.9315,3.9315,3.9315,3.9315,3.9315,3.9315,3.9315,3.9315,3.9252,3.903,3.8632,3.7978,3.7376,3.6738,3.6148,3.5741,3.5587,3.5489,3.5489,3.5489,3.5489,3.5489,3.5489,3.5489,3.5489,3.5489,3.5489,3.5489,3.5489,3.5489,3.5489,3.5497,3.5514,3.5547,3.5652,3.5806,3.5981,3.6148,3.632,3.6437,3.6476,3.6492,3.6499,3.6499,4.7971,4.7802,4.6474,4.5831,4.5602,4.5007,4.4709,4.4591,4.4591,4.4608,4.4633,4.4741,4.4824,4.481,4.493,4.4934,4.4824,4.4893,4.4879,4.4882,4.5012,4.5133,4.5133,4.5197,4.5154,4.5032,4.4872,4.4831,4.4803,4.4665,4.4605,4.4612,4.4598,4.4591,4.4591,4.4591,4.4591,4.4591,4.4591,4.4591,4.4591,4.4591,4.4591,4.4591,4.4591,4.4591,4.4591,4.4591,4.4591,4.4591,4.4591,4.4591,4.4591,4.4591,4.4591,4.4591,4.4523,4.4489,4.4465,4.3859,4.3531,4.343,4.2844,4.2428,4.2276,4.1738,4.1144,4.0692,4.0169,3.9754,3.9365,3.9315,3.9315,3.9315,3.9315,3.9315,3.9315,3.9315,3.9279,3.9188,3.8652,3.8158,3.7391,3.6837,3.6305,3.5878,3.5554,3.553,3.5489,3.5489,3.5489,3.5489,3.5489,3.5489,3.5489,3.5489,3.5489,3.5489,3.5489,3.5489,3.5489,3.5489,3.5506,3.5538,3.562,3.5766,3.5966,3.6132,3.6274,3.6383,3.6476,3.6492,3.6499,3.6499,3.6499,4.8428,4.7862,4.7541,4.6761,4.578,4.5534,4.5135,4.4625,4.4591,4.4591,4.4626,4.4727,4.48,4.4789,4.4817,4.4834,4.4786,4.4751,4.4716,4.481,4.4845,4.4893,4.4947,4.508,4.5103,4.4971,4.4858,4.4796,4.4772,4.4651,4.4591,4.4591,4.4591,4.4591,4.4591,4.4591,4.4591,4.4591,4.4591,4.4591,4.4591,4.4591,4.4591,4.4591,4.4591,4.4591,4.4591,4.4591,4.4591,4.4591,4.4591,4.4591,4.4591,4.4591,4.4591,4.4591,4.4591,4.4591,4.4557,4.4398,4.4313,4.4171,4.3606,4.3159,4.3125,4.2489,4.1697,4.1047,4.0615,4.0127,3.9445,3.9315,3.9315,3.9315,3.9315,3.9315,3.9315,3.9315,3.9104,3.8793,3.8779,3.8467,3.6959,3.7018,3.6477,3.5741,3.5489,3.5489,3.5489,3.5489,3.5489,3.5489,3.5489,3.5489,3.5489,3.5489,3.5489,3.5489,3.5489,3.5489,3.5489,3.5506,3.553,3.5596,3.5679,3.5871,3.6062,3.6179,3.6289,3.6398,3.6499,3.6499,3.6499,3.6499,3.6499,4.8757,4.8385,4.8031,4.744,4.6694,4.6,4.5476,4.5084,4.4736,4.4591,4.4605,4.4682,4.4709,4.4709,4.4709,4.4709,4.4696,4.4633,4.4633,4.4716,4.4772,4.4762,4.4751,4.4886,4.4954,4.4817,4.4734,4.4709,4.4682,4.464,4.4591,4.4591,4.4591,4.4591,4.4591,4.4591,4.4591,4.4591,4.4591,4.4591,4.4591,4.4591,4.4591,4.4591,4.4591,4.4591,4.4591,4.4591,4.4591,4.4591,4.4591,4.4591,4.4591,4.4591,4.4591,4.4591,4.4591,4.4591,4.4591,4.4591,4.4574,4.4591,4.4178,4.4052,4.3785,4.3267,4.2608,4.1872,4.1187,4.0374,3.9455,3.9315,3.9315,3.9315,3.9315,3.9315,3.9308,3.9292,3.9195,3.8751,3.8523,3.7969,3.734,3.6928,3.6399,3.5538,3.5489,3.5489,3.5489,3.5489,3.5489,3.5489,3.5489,3.5489,3.5489,3.5489,3.5489,3.5489,3.5489,3.5489,3.5489,3.5522,3.5554,3.5645,3.5775,3.5927,3.6109,3.6219,3.6336,3.6437,3.6499,3.6499,3.6499,3.6499,3.6499,4.9018,4.8951,4.8326,4.7998,4.7676,4.6481,4.5821,4.5561,4.4922,4.4591,4.4591,4.4591,4.4612,4.4598,4.4605,4.4591,4.4598,4.4598,4.4612,4.4626,4.4709,4.4696,4.4668,4.4723,4.4751,4.4598,4.4605,4.4605,4.4605,4.4591,4.4591,4.4591,4.4591,4.4591,4.4591,4.4591,4.4591,4.4591,4.4591,4.4591,4.4591,4.4591,4.4591,4.4591,4.4591,4.4591,4.4591,4.4591,4.4591,4.4591,4.4591,4.4591,4.4591,4.4591,4.4591,4.4591,4.4591,4.4591,4.4591,4.4591,4.4591,4.4591,4.4574,4.4557,4.4364,4.3947,4.3397,4.2585,4.171,4.0431,3.9597,3.9348,3.9332,3.9315,3.9315,3.9258,3.9161,3.9141,3.901,3.8717,3.8119,3.7466,3.6883,3.6383,3.5902,3.5529,3.5497,3.5489,3.5489,3.5489,3.5489,3.5489,3.5489,3.5489,3.5489,3.5489,3.5489,3.5489,3.5489,3.5489,3.5506,3.5572,3.5629,3.5758,3.5887,3.603,3.6195,3.6344,3.6437,3.6492,3.6499,3.6499,3.6499,3.6499,3.6499,4.9018,4.9001,4.8858,4.8469,4.7844,4.6964,4.6268,4.5635,4.4956,4.4591,4.4591,4.4591,4.4591,4.4591,4.4591,4.4591,4.4591,4.4591,4.4591,4.4591,4.4633,4.4612,4.4619,4.4626,4.4643,4.4598,4.4591,4.4591,4.4591,4.4591,4.4591,4.4591,4.4591,4.4591,4.4591,4.4591,4.4591,4.4591,4.4591,4.4591,4.4591,4.4591,4.4591,4.4591,4.4591,4.4591,4.4591,4.4591,4.4591,4.4591,4.4591,4.4591,4.4591,4.4591,4.4591,4.4591,4.4591,4.4591,4.4591,4.4591,4.4591,4.4591,4.4591,4.4591,4.4533,4.4401,4.388,4.2966,4.1786,4.0553,4.0264,3.9822,3.9391,3.9348,3.9284,3.91,3.8692,3.84,3.8224,3.7859,3.7429,3.7094,3.6577,3.6148,3.5822,3.557,3.5497,3.5489,3.5489,3.5489,3.5489,3.5489,3.5489,3.5489,3.5489,3.5489,3.5489,3.5489,3.5489,3.5489,3.5538,3.5629,3.5727,3.5847,3.5966,3.6124,3.6273,3.6445,3.6484,3.6499,3.6499,3.6499,3.6499,3.6499,3.6499,4.9018,4.9018,4.9018,4.8791,4.83,4.7242,4.6607,4.6133,4.5108,4.4591,4.4591,4.4591,4.4591,4.4591,4.4591,4.4591,4.4591,4.4591,4.4591,4.4591,4.4591,4.4591,4.4591,4.4591,4.4591,4.4591,4.4591,4.4591,4.4591,4.4591,4.4591,4.4591,4.4591,4.4591,4.4591,4.4591,4.4591,4.4591,4.4591,4.4591,4.4591,4.4591,4.4591,4.4591,4.4591,4.4591,4.4591,4.4591,4.4591,4.4591,4.4591,4.4591,4.4591,4.4591,4.4591,4.4591,4.4591,4.4591,4.4591,4.4591,4.4591,4.4591,4.4591,4.4591,4.4591,4.4485,4.4141,4.3186,4.2443,4.1384,4.0975,4.0538,4.0263,3.986,3.9583,3.9051,3.8396,3.7759,3.7334,3.7021,3.6822,3.6608,3.6368,3.5998,3.5782,3.5628,3.5514,3.5489,3.5489,3.5489,3.5489,3.5489,3.5489,3.5489,3.5489,3.5489,3.5489,3.5489,3.5489,3.5489,3.5554,3.5653,3.5783,3.5941,3.6068,3.6218,3.6343,3.6492,3.6492,3.6499,3.6499,3.6499,3.6499,3.6499,3.6499,4.9018,4.9018,4.9018,4.9018,4.8765,4.7419,4.6793,4.6498,4.5217,4.4591,4.4591,4.4591,4.4591,4.4591,4.4591,4.4591,4.4591,4.4591,4.4591,4.4591,4.4591,4.4591,4.4591,4.4591,4.4591,4.4591,4.4591,4.4591,4.4591,4.4591,4.4591,4.4591,4.4591,4.4591,4.4591,4.4591,4.4591,4.4591,4.4591,4.4591,4.4591,4.4591,4.4591,4.4591,4.4591,4.4591,4.4591,4.4591,4.4591,4.4591,4.4591,4.4591,4.4591,4.4591,4.4591,4.4591,4.4591,4.4591,4.4591,4.4591,4.4591,4.4591,4.4591,4.4591,4.457,4.4477,4.4155,4.3327,4.2729,4.2263,4.1714,4.1444,4.111,4.0658,4.0014,3.9308,3.8534,3.7776,3.6971,3.6637,3.6373,3.6171,3.5995,3.5854,3.5628,3.5611,3.5489,3.5489,3.5489,3.5489,3.5489,3.5489,3.5489,3.5489,3.5489,3.5489,3.5489,3.5489,3.5489,3.5489,3.5587,3.5669,3.583,3.5997,3.6187,3.6344,3.6437,3.6499,3.6499,3.6499,3.6499,3.6499,3.6499,3.6499,3.6499,4.9018,4.9018,4.9018,4.9018,4.8772,4.7402,4.6776,4.6556,4.5217,4.4608,4.4591,4.4591,4.4591,4.4591,4.4591,4.4591,4.4591,4.4591,4.4591,4.4591,4.4591,4.4591,4.4591,4.4591,4.4591,4.4591,4.4591,4.4591,4.4591,4.4591,4.4591,4.4591,4.4591,4.4591,4.4591,4.4591,4.4591,4.4591,4.4591,4.4591,4.4591,4.4591,4.4591,4.4591,4.4591,4.4591,4.4591,4.4591,4.4591,4.4591,4.4591,4.4591,4.4591,4.4591,4.4591,4.4591,4.4591,4.4591,4.4591,4.4591,4.4591,4.4591,4.4591,4.4591,4.4535,4.4422,4.4167,4.3856,4.3202,4.2741,4.2336,4.1806,4.1454,4.1034,4.0509,3.9886,3.9128,3.7841,3.701,3.6584,3.6429,3.6043,3.5731,3.5614,3.5497,3.5489,3.5489,3.5489,3.5489,3.5489,3.5489,3.5489,3.5489,3.5489,3.5489,3.5489,3.5489,3.5489,3.5489,3.5489,3.5587,3.5693,3.5893,3.6076,3.6265,3.6406,3.6476,3.6499,3.6499,3.6499,3.6499,3.6499,3.6499,3.6499,3.6499,4.9018,4.9018,4.9018,4.8757,4.8259,4.7242,4.6556,4.6015,4.5082,4.4591,4.4591,4.4591,4.4591,4.4591,4.4591,4.4591,4.4591,4.4591,4.4591,4.4591,4.4591,4.4591,4.4591,4.4591,4.4591,4.4591,4.4591,4.4591,4.4591,4.4591,4.4591,4.4591,4.4591,4.4591,4.4591,4.4591,4.4591,4.4591,4.4591,4.4591,4.4591,4.4591,4.4591,4.4591,4.4591,4.4591,4.4591,4.4591,4.4591,4.4591,4.4591,4.4591,4.4591,4.4591,4.4591,4.4591,4.4591,4.4591,4.4591,4.4591,4.4591,4.4591,4.4584,4.4549,4.444,4.4291,4.4126,4.391,4.351,4.3206,4.2995,4.2471,4.2204,4.1743,4.0887,4.0138,3.936,3.817,3.7203,3.6834,3.6498,3.6244,3.5945,3.5729,3.5624,3.5489,3.5489,3.5489,3.5489,3.5489,3.5489,3.5489,3.5489,3.5489,3.5489,3.5489,3.5489,3.5489,3.5489,3.5506,3.5578,3.5708,3.5917,3.6107,3.6281,3.6414,3.6476,3.6499,3.6499,3.6499,3.6499,3.6499,3.6499,3.6499,3.6499,4.8892,4.8731,4.8731,4.8402,4.7819,4.6921,4.6203,4.5669,4.4939,4.4591,4.4591,4.4591,4.4591,4.4591,4.4591,4.4591,4.4591,4.4591,4.4591,4.4591,4.4591,4.4591,4.4591,4.4591,4.4591,4.4591,4.4591,4.4591,4.4591,4.4591,4.4591,4.4591,4.4591,4.4591,4.4591,4.4591,4.4591,4.4591,4.4591,4.4591,4.4591,4.4591,4.4591,4.4591,4.4591,4.4591,4.4591,4.4591,4.4591,4.4591,4.4591,4.4591,4.4591,4.4591,4.4591,4.4591,4.4591,4.4591,4.4591,4.4591,4.4591,4.4591,4.4563,4.4506,4.4291,4.4148,4.4005,4.3839,4.3669,4.3578,4.35,4.3069,4.2751,4.2067,4.1159,4.0356,3.9509,3.8505,3.7785,3.7533,3.721,3.6851,3.6522,3.6073,3.5789,3.5564,3.5489,3.5489,3.5489,3.5489,3.5489,3.5489,3.5489,3.5489,3.5489,3.5489,3.5489,3.5489,3.5489,3.5531,3.5612,3.5773,3.5988,3.6171,3.6328,3.6422,3.6499,3.6499,3.6499,3.6499,3.6499,3.6499,3.6499,3.6499,3.6499,4.8597,4.7981,4.7964,4.7904,4.7727,4.6372,4.5771,4.5544,4.4895,4.4591,4.4591,4.4591,4.4591,4.4591,4.4591,4.4591,4.4591,4.4591,4.4591,4.4591,4.4591,4.4591,4.4591,4.4591,4.4591,4.4591,4.4591,4.4591,4.4591,4.4591,4.4591,4.4591,4.4591,4.4591,4.4591,4.4591,4.4591,4.4591,4.4591,4.4591,4.4591,4.4591,4.4591,4.4591,4.4591,4.4591,4.4591,4.4591,4.4591,4.4591,4.4591,4.4591,4.4591,4.4591,4.4591,4.4591,4.4591,4.4591,4.4591,4.4591,4.4591,4.4591,4.4563,4.4464,4.4184,4.4126,4.3952,4.3726,4.3628,4.3606,4.3591,4.3453,4.2821,4.232,4.1405,4.0628,3.9839,3.9052,3.8422,3.8224,3.7898,3.7494,3.7165,3.6746,3.6171,3.5908,3.5519,3.5489,3.5489,3.5489,3.5489,3.5489,3.5489,3.5489,3.5489,3.5489,3.5489,3.5489,3.5489,3.5565,3.5647,3.5847,3.6029,3.6187,3.6336,3.6429,3.6499,3.6499,3.6499,3.6499,3.6499,3.6499,3.6499,3.6499,3.6499,4.7462,4.7192,4.6744,4.6558,4.6508,4.5942,4.5449,4.5017,4.4726,4.4591,4.4591,4.4591,4.4591,4.4591,4.4591,4.4591,4.4591,4.4591,4.4591,4.4591,4.4591,4.4591,4.4591,4.4591,4.4591,4.4591,4.4591,4.4591,4.4591,4.4591,4.4591,4.4591,4.4591,4.4591,4.4591,4.4591,4.4591,4.4591,4.4591,4.4591,4.4591,4.4591,4.4591,4.4591,4.4591,4.4591,4.4591,4.4591,4.4591,4.4591,4.4591,4.4591,4.4591,4.4591,4.4591,4.4591,4.4591,4.4591,4.4591,4.4591,4.4591,4.4591,4.4577,4.4464,4.4133,4.4097,4.393,4.3732,4.3568,4.3516,4.3561,4.2874,4.2118,4.2037,4.1575,4.0754,4.0061,3.9268,3.8963,3.8736,3.8422,3.8063,3.7764,3.7449,3.6821,3.6261,3.5833,3.5489,3.5489,3.5489,3.5489,3.5489,3.5489,3.5489,3.5489,3.5489,3.5489,3.5489,3.5489,3.5612,3.5719,3.5878,3.606,3.621,3.6352,3.6453,3.6499,3.6499,3.6499,3.6499,3.6499,3.6499,3.6499,3.6499,3.6499,4.6675,4.6421,4.5923,4.5696,4.5662,4.5466,4.5091,4.4675,4.4608,4.4591,4.4591,4.4591,4.4591,4.4591,4.4591,4.4591,4.4591,4.4591,4.4591,4.4591,4.4591,4.4591,4.4591,4.4591,4.4591,4.4591,4.4591,4.4591,4.4591,4.4591,4.4591,4.4591,4.4591,4.4591,4.4591,4.4591,4.4591,4.4591,4.4591,4.4591,4.4591,4.4591,4.4591,4.4591,4.4591,4.4591,4.4591,4.4591,4.4591,4.4591,4.4591,4.4591,4.4591,4.4591,4.4591,4.4591,4.4591,4.4591,4.4591,4.4591,4.4591,4.4591,4.4591,4.4422,4.4205,4.409,4.3945,4.3619,4.3455,4.3295,4.325,4.238,4.1632,4.1476,4.1,4.0294,3.9994,3.9409,3.9346,3.9227,3.8937,3.8682,3.8437,3.8078,3.7263,3.656,3.5848,3.5549,3.5489,3.5489,3.5489,3.5489,3.5489,3.5489,3.5489,3.5489,3.5489,3.5489,3.5522,3.5644,3.5781,3.5933,3.6123,3.6328,3.6445,3.6484,3.6499,3.6499,3.6499,3.6499,3.6499,3.6499,3.6499,3.6499,3.6499,4.6329,4.5754,4.5679,4.5662,4.5561,4.4922,4.4625,4.4591,4.4591,4.4591,4.4591,4.4591,4.4591,4.4591,4.4591,4.4591,4.4591,4.4591,4.4591,4.4591,4.4591,4.4591,4.4591,4.4591,4.4591,4.4591,4.4591,4.4591,4.4591,4.4591,4.4591,4.4591,4.4591,4.4591,4.4591,4.4591,4.4591,4.4591,4.4591,4.4591,4.4591,4.4591,4.4591,4.4591,4.4591,4.4591,4.4591,4.4591,4.4591,4.4591,4.4591,4.4591,4.4591,4.4591,4.4591,4.4591,4.4591,4.4591,4.4591,4.4591,4.4591,4.4591,4.4584,4.4443,4.4191,4.4075,4.3872,4.3423,4.3058,4.2726,4.2388,4.1925,4.1302,4.0856,4.0391,4.0003,3.9699,3.9553,3.9451,3.9397,3.9397,3.9307,3.9092,3.8691,3.7781,3.6928,3.6013,3.5624,3.5564,3.5504,3.5504,3.5489,3.5489,3.5489,3.5489,3.5489,3.5489,3.5489,3.5562,3.5693,3.5845,3.6004,3.6202,3.6422,3.6484,3.6499,3.6499,3.6499,3.6499,3.6499,3.6499,3.6499,3.6499,3.6499,3.6499,4.5193,4.4973,4.498,4.4966,4.4939,4.4709,4.4591,4.4591,4.4591,4.4591,4.4591,4.4591,4.4591,4.4591,4.4591,4.4591,4.4591,4.4591,4.4591,4.4591,4.4591,4.4591,4.4591,4.4591,4.4591,4.4591,4.4591,4.4591,4.4591,4.4591,4.4591,4.4591,4.4591,4.4591,4.4591,4.4591,4.4591,4.4591,4.4591,4.4591,4.4591,4.4591,4.4591,4.4591,4.4591,4.4591,4.4591,4.4591,4.4591,4.4591,4.4591,4.4591,4.4591,4.4591,4.4591,4.4591,4.4591,4.4591,4.4591,4.4591,4.4591,4.4591,4.457,4.4443,4.4148,4.4104,4.3691,4.308,4.264,4.2269,4.1876,4.1235,4.0686,4.0529,4.0137,3.9735,3.9469,3.9451,3.9397,3.9397,3.9397,3.9397,3.9272,3.9011,3.8236,3.7631,3.6814,3.5983,3.5729,3.5579,3.5519,3.5504,3.5489,3.5489,3.5489,3.5489,3.5489,3.5489,3.5596,3.5743,3.5894,3.6053,3.6249,3.6453,3.6476,3.6499,3.6499,3.6499,3.6499,3.6499,3.6499,3.6499,3.6499,3.6499,3.6499,4.4591,4.4591,4.4591,4.4591,4.4591,4.4591,4.4591,4.4591,4.4591,4.4591,4.4591,4.4591,4.4591,4.4591,4.4591,4.4591,4.4591,4.4591,4.4591,4.4591,4.4591,4.4591,4.4591,4.4591,4.4591,4.4591,4.4591,4.4591,4.4591,4.4591,4.4591,4.4591,4.4591,4.4591,4.4591,4.4591,4.4591,4.4591,4.4591,4.4591,4.4591,4.4591,4.4591,4.4591,4.4591,4.4591,4.4591,4.4591,4.4591,4.4591,4.4591,4.4591,4.4591,4.4591,4.4591,4.4591,4.4591,4.4591,4.4591,4.4591,4.4591,4.4591,4.4591,4.4288,4.3897,4.3651,4.3071,4.2514,4.2118,4.1681,4.1184,4.0504,4.0181,4.0012,3.9862,3.9469,3.9415,3.9397,3.9397,3.9397,3.9397,3.9397,3.9367,3.9092,3.8652,3.8176,3.7661,3.6844,3.6043,3.5848,3.5684,3.5594,3.5534,3.5489,3.5489,3.5489,3.5489,3.5489,3.5636,3.5799,3.5942,3.6077,3.6281,3.6453,3.6476,3.6499,3.6499,3.6499,3.6499,3.6499,3.6499,3.6499,3.6499,3.6499,3.6499,4.4591,4.4591,4.4591,4.4591,4.4591,4.4591,4.4591,4.4591,4.4591,4.4591,4.4591,4.4591,4.4591,4.4591,4.4591,4.4591,4.4591,4.4591,4.4591,4.4591,4.4591,4.4591,4.4591,4.4591,4.4591,4.4591,4.4591,4.4591,4.4591,4.4591,4.4591,4.4591,4.4591,4.4591,4.4591,4.4591,4.4591,4.4591,4.4591,4.4591,4.4591,4.4591,4.4591,4.4591,4.4591,4.4591,4.4591,4.4591,4.4591,4.4591,4.4591,4.4591,4.4591,4.4591,4.4591,4.4591,4.4591,4.4591,4.4591,4.4591,4.4447,4.4405,4.4398,4.3907,4.3408,4.3053,4.2442,4.1747,4.1209,4.083,4.0383,3.9977,3.9571,3.9517,3.9508,3.9397,3.9397,3.9397,3.9397,3.9397,3.9397,3.9397,3.9397,3.9182,3.8973,3.8757,3.8302,3.7802,3.703,3.635,3.6126,3.5744,3.5654,3.5504,3.5489,3.5489,3.5489,3.5489,3.5669,3.5847,3.5982,3.6124,3.6328,3.6468,3.6484,3.6499,3.6499,3.6499,3.6499,3.6499,3.6499,3.6499,3.6499,3.6499,3.6499,4.4591,4.4591,4.4591,4.4591,4.4591,4.4591,4.4591,4.4591,4.4591,4.4591,4.4591,4.4591,4.4591,4.4591,4.4591,4.4591,4.4591,4.4591,4.4591,4.4591,4.4591,4.4591,4.4591,4.4591,4.4591,4.4591,4.4591,4.4591,4.4591,4.4591,4.4591,4.4591,4.4591,4.4591,4.4591,4.4591,4.4591,4.4591,4.4591,4.4591,4.4591,4.4591,4.4591,4.4591,4.4591,4.4591,4.4591,4.4591,4.4591,4.4591,4.4591,4.4591,4.4591,4.4591,4.4591,4.4591,4.4591,4.4591,4.4591,4.4591,4.4447,4.4047,4.3827,4.353,4.3015,4.2457,4.1845,4.1153,4.0598,4.0294,4.0012,3.9634,3.9397,3.9397,3.9397,3.9397,3.9397,3.9397,3.9397,3.9397,3.9397,3.9397,3.9397,3.9367,3.9197,3.9137,3.8922,3.8473,3.7967,3.7263,3.6523,3.6126,3.5833,3.5699,3.5534,3.5489,3.5489,3.5522,3.571,3.5879,3.5998,3.6171,3.6367,3.6476,3.6492,3.6499,3.6499,3.6499,3.6499,3.6499,3.6499,3.6499,3.6499,3.6499,3.6499,4.4591,4.4591,4.4591,4.4591,4.4591,4.4591,4.4591,4.4591,4.4591,4.4591,4.4591,4.4591,4.4591,4.4591,4.4591,4.4591,4.4591,4.4591,4.4591,4.4591,4.4591,4.4591,4.4591,4.4591,4.4591,4.4591,4.4591,4.4591,4.4591,4.4591,4.4591,4.4591,4.4591,4.4591,4.4591,4.4591,4.4591,4.4591,4.4591,4.4591,4.4591,4.4591,4.4591,4.4591,4.4591,4.4591,4.4591,4.4591,4.4591,4.4591,4.4591,4.4591,4.4591,4.4591,4.4591,4.4591,4.4591,4.4591,4.4591,4.4591,4.4307,4.3936,4.3486,4.3046,4.2481,4.1845,4.1255,4.066,4.0261,3.9906,3.9643,3.9397,3.9397,3.9397,3.9397,3.9397,3.9397,3.9397,3.9397,3.9397,3.9397,3.9397,3.9397,3.9397,3.9382,3.9307,3.9257,3.9062,3.8616,3.8056,3.7159,3.6455,3.6156,3.5908,3.5714,3.5489,3.5489,3.557,3.5789,3.5941,3.6045,3.621,3.6429,3.6492,3.6499,3.6499,3.6499,3.6499,3.6499,3.6499,3.6499,3.6499,3.6499,3.6499,3.6499,4.4591,4.4591,4.4591,4.4591,4.4591,4.4591,4.4591,4.4591,4.4591,4.4591,4.4591,4.4591,4.4591,4.4591,4.4591,4.4591,4.4591,4.4591,4.4591,4.4591,4.4591,4.4591,4.4591,4.4591,4.4591,4.4591,4.4591,4.4591,4.4591,4.4591,4.4591,4.4591,4.4591,4.4591,4.4591,4.4591,4.4591,4.4591,4.4591,4.4591,4.4591,4.4591,4.4591,4.4591,4.4591,4.4591,4.4591,4.4591,4.4591,4.4591,4.4591,4.4591,4.4591,4.4591,4.4591,4.4591,4.4591,4.4591,4.4591,4.4591,4.4492,4.4129,4.3704,4.2886,4.2117,4.142,4.0825,4.027,3.9844,3.969,3.9469,3.9397,3.9397,3.9397,3.9397,3.9397,3.9397,3.9397,3.9397,3.9397,3.9397,3.9397,3.9397,3.9397,3.9397,3.9397,3.9382,3.9331,3.9137,3.8661,3.7862,3.6889,3.644,3.6096,3.5669,3.5489,3.5489,3.5611,3.5813,3.5941,3.6013,3.6218,3.6484,3.6499,3.6499,3.6499,3.6499,3.6499,3.6499,3.6499,3.6499,3.6499,3.6499,3.6499,3.6499,4.4591,4.4591,4.4591,4.4591,4.4591,4.4591,4.4591,4.4591,4.4591,4.4591,4.4591,4.4591,4.4591,4.4591,4.4591,4.4591,4.4591,4.4591,4.4591,4.4591,4.4591,4.4591,4.4591,4.4591,4.4591,4.4591,4.4591,4.4591,4.4591,4.4591,4.4591,4.4591,4.4591,4.4591,4.4591,4.4591,4.4591,4.4591,4.4591,4.4591,4.4591,4.4591,4.4591,4.4591,4.4591,4.4591,4.4591,4.4591,4.4591,4.4591,4.4591,4.4591,4.4591,4.4591,4.4591,4.4591,4.4591,4.4591,4.4591,4.4532,4.4367,4.3693,4.3045,4.2465,4.1804,4.1111,4.0488,3.995,3.9571,3.9469,3.9397,3.9397,3.9397,3.9397,3.9397,3.9397,3.9397,3.9397,3.9397,3.9397,3.9397,3.9397,3.9397,3.9397,3.9397,3.9397,3.9397,3.9382,3.9367,3.9047,3.8407,3.7518,3.6755,3.6306,3.5833,3.5489,3.5489,3.5562,3.5733,3.5854,3.5981,3.6242,3.6499,3.6499,3.6499,3.6499,3.6499,3.6499,3.6499,3.6499,3.6499,3.6499,3.6499,3.6499,3.6499,4.4591,4.4591,4.4591,4.4591,4.4591,4.4591,4.4591,4.4591,4.4591,4.4591,4.4591,4.4591,4.4591,4.4591,4.4591,4.4591,4.4591,4.4591,4.4591,4.4591,4.4591,4.4591,4.4591,4.4591,4.4591,4.4591,4.4591,4.4591,4.4591,4.4591,4.4591,4.4591,4.4591,4.4591,4.4591,4.4591,4.4591,4.4591,4.4591,4.4591,4.4591,4.4591,4.4591,4.4591,4.4591,4.4591,4.4591,4.4591,4.4591,4.4591,4.4591,4.4591,4.4591,4.4591,4.4591,4.4591,4.4591,4.4591,4.4591,4.4468,4.4222,4.3468,4.2898,4.2519,4.1477,4.0815,4.0591,4.0067,3.9589,3.9424,3.9406,3.9397,3.9397,3.9397,3.9397,3.9397,3.9397,3.9397,3.9397,3.9397,3.9397,3.9397,3.9397,3.9397,3.9397,3.9397,3.9397,3.9397,3.9397,3.9391,3.8757,3.8093,3.7293,3.6665,3.6207,3.5804,3.5489,3.5578,3.5636,3.5894,3.61,3.6328,3.6499,3.6499,3.6499,3.6499,3.6499,3.6499,3.6499,3.6499,3.6499,3.6499,3.6499,3.6499,3.6499,4.4591,4.4591,4.4591,4.4591,4.4591,4.4591,4.4591,4.4591,4.4591,4.4591,4.4591,4.4591,4.4591,4.4591,4.4591,4.4591,4.4591,4.4591,4.4591,4.4591,4.4591,4.4591,4.4591,4.4591,4.4591,4.4591,4.4591,4.4591,4.4591,4.4591,4.4591,4.4591,4.4591,4.4591,4.4591,4.4591,4.4591,4.4591,4.4591,4.4591,4.4591,4.4591,4.4591,4.4591,4.4591,4.4591,4.4591,4.4591,4.4591,4.4591,4.4591,4.4591,4.4591,4.4591,4.4591,4.4591,4.4591,4.4591,4.4563,4.4405,4.404,4.3556,4.312,4.2276,4.1178,4.0643,4.0409,4.0084,3.9592,3.9424,3.9406,3.9397,3.9397,3.9397,3.9397,3.9397,3.9397,3.9397,3.9397,3.9397,3.9397,3.9397,3.9397,3.9397,3.9379,3.9388,3.937,3.9388,3.9397,3.9376,3.9071,3.8437,3.7734,3.715,3.6545,3.5968,3.5504,3.5385,3.5468,3.587,3.6195,3.6312,3.6429,3.6499,3.6499,3.6492,3.6499,3.6499,3.6499,3.6499,3.6499,3.6499,3.6499,3.6499,3.6499,4.4591,4.4591,4.4591,4.4591,4.4591,4.4591,4.4591,4.4591,4.4591,4.4591,4.4591,4.4591,4.4591,4.4591,4.4591,4.4591,4.4591,4.4591,4.4591,4.4591,4.4591,4.4591,4.4591,4.4591,4.4591,4.4591,4.4591,4.4591,4.4591,4.4591,4.4591,4.4591,4.4591,4.4591,4.4591,4.4591,4.4591,4.4591,4.4591,4.4591,4.4591,4.4591,4.4591,4.4591,4.4591,4.4591,4.4591,4.4591,4.4591,4.4591,4.4591,4.4591,4.4591,4.4591,4.4591,4.4591,4.4591,4.449,4.4419,4.4083,4.3662,4.3144,4.2488,4.1526,4.0651,4.0069,3.9879,3.9726,3.9415,3.9415,3.9397,3.9397,3.9397,3.9397,3.9397,3.9397,3.9397,3.9397,3.9397,3.9397,3.9397,3.9397,3.9397,3.937,3.9292,3.9247,3.9095,3.9113,3.9132,3.9226,3.9199,3.8531,3.783,3.7315,3.6575,3.5923,3.5465,3.5328,3.5175,3.5324,3.5639,3.6171,3.6273,3.6045,3.6312,3.6476,3.6484,3.6352,3.6499,3.6499,3.6499,3.6499,3.6499,3.6499,3.6499]},{"header":{"parameterUnit":"m.s-1","parameterCategory":1,"la1":31.0,"la2":29.5877,"lo1":-88.7671,"lo2":-86.6584,"dy":0.0162,"dx":0.0185,"nx":115,"ny":88,"refTime":"2023-09-13T18:00:00:Z","depth":0,"parameterNumber":3,"parameterNumberName":"V-component_of_WINDS"},"data":[0.0,0.0,0.0,0.0,0.0,0.0,0.0,0.0,0.0,0.0,0.0,0.0,0.0,0.0,0.0,0.0,0.0,0.0,0.0,0.0,0.0,0.0,0.0,0.0,0.0,0.0,0.0,0.0,0.0,0.0,0.0,0.0,0.0,0.0,0.0,0.0,0.0,0.0,0.0,0.0,0.0,0.0,0.0,0.0,0.0,0.0,0.0,0.0,0.0,0.0,0.0,0.0,0.0,0.0,0.0,0.0,0.0,0.0,0.0,0.0,0.0,0.0,0.0,0.0,0.0,0.0,0.0,0.0,0.0,0.0,0.0,0.0,0.0,0.0,0.0,0.0,0.0,0.0,0.0,0.0,0.0,0.0,0.0,0.0,0.0,0.0,0.0,0.0,0.0,0.0,0.0,0.0,0.0,0.0,0.0,0.0,0.0,0.0,0.0,0.0,0.0,0.0,0.0,0.0,0.0,0.0,0.0,0.0,0.0,0.0,0.0,0.0,0.0,0.0,0.0,0.0,0.0,0.0,0.0,0.0,0.0,0.0,0.0,0.0,0.0,0.0,0.0,0.0,0.0,0.0,0.0,0.0,0.0,0.0,0.0,0.0,0.0,0.0,0.0,0.0,0.0,0.0,0.0,0.0,0.0,0.0,0.0,0.0,0.0,0.0,0.0,0.0,0.0,0.0,0.0,0.0,0.0,0.0,0.0,0.0,0.0,0.0,0.0,0.0,0.0,0.0,0.0,0.0,0.0,0.0,0.0,0.0,0.0,0.0,0.0,0.0,0.0,0.0,0.0,0.0,0.0,0.0,0.0,0.0,0.0,0.0,0.0,0.0,0.0,0.0,0.0,0.0,0.0,0.0,0.0,0.0,0.0,0.0,0.0,0.0,0.0,0.0,0.0,0.0,0.0,0.0,0.0,0.0,0.0,0.0,0.0,0.0,0.0,0.0,0.0,0.0,0.0,0.0,0.0,0.0,0.0,0.0,0.0,0.0,0.0,0.0,0.0,0.0,0.0,0.0,0.0,0.0,0.0,0.0,0.0,0.0,0.0,0.0,0.0,0.0,0.0,0.0,0.0,0.0,0.0,0.0,0.0,0.0,0.0,0.0,0.0,0.0,0.0,0.0,0.0,0.0,0.0,0.0,0.0,0.0,0.0,0.0,0.0,0.0,0.0,0.0,0.0,0.0,0.0,0.0,0.0,0.0,0.0,0.0,0.0,0.0,0.0,0.0,0.0,0.0,0.0,0.0,0.0,0.0,0.0,0.0,0.0,0.0,0.0,0.0,0.0,0.0,0.0,0.0,0.0,0.0,0.0,0.0,0.0,0.0,0.0,0.0,0.0,0.0,0.0,0.0,0.0,0.0,0.0,0.0,0.0,0.0,0.0,0.0,0.0,0.0,0.0,0.0,0.0,0.0,0.0,0.0,0.0,0.0,0.0,0.0,0.0,0.0,0.0,0.0,0.0,0.0,0.0,0.0,0.0,0.0,0.0,0.0,0.0,0.0,0.0,0.0,0.0,0.0,0.0,0.0,0.0,0.0,0.0,0.0,0.0,0.0,0.0,0.0,0.0,0.0,0.0,0.0,0.0,0.0,0.0,0.0,0.0,0.0,0.0,0.0,0.0,0.0,0.0,0.0,0.0,0.0,0.0,0.0,0.0,0.0,0.0,0.0,0.0,0.0,0.0,0.0,0.0,0.0,0.0,0.0,0.0,0.0,0.0,0.0,0.0,0.0,0.0,0.0,0.0,0.0,0.0,0.0,0.0,0.0,0.0,0.0,0.0,0.0,0.0,0.0,0.0,0.0,0.0,0.0,0.0,0.0,0.0,0.0,0.0,0.0,0.0,0.0,0.0,0.0,0.0,0.0,0.0,0.0,0.0,0.0,0.0,0.0,0.0,0.0,0.0,0.0,0.0,0.0,0.0,0.0,0.0,0.0,0.0,0.0,0.0,0.0,0.0,0.0,0.0,0.0,0.0,0.0,0.0,0.0,0.0,0.0,0.0,0.0,0.0,0.0,0.0,0.0,0.0,0.0,0.0,0.0,0.0,0.0,0.0,0.0,0.0,0.0,0.0,0.0,0.0,0.0,0.0,0.0,0.0,0.0,0.0,0.0,0.0,0.0,0.0,0.0,0.0,0.0,0.0,0.0,0.0,0.0,0.0,0.0,0.0,0.0,0.0,0.0,0.0,0.0,0.0,0.0,0.0,0.0,0.0,0.0,0.0,0.0,0.0,0.0,0.0,0.0,0.0,0.0,0.0,0.0,0.0,0.0,0.0,0.0,0.0,0.0,0.0,0.0,0.0,0.0,0.0,0.0,0.0,0.0,0.0,0.0,0.0,0.0,0.0,0.0,0.0,0.0,0.0,0.0,0.0,0.0,0.0,0.0,0.0,0.0,0.0,0.0,0.0,0.0,0.0,0.0,0.0,0.0,0.0,0.0,0.0,0.0,0.0,0.0,0.0,0.0,0.0,0.0,0.0,0.0,0.0,0.0,0.0,0.0,0.0,0.0,0.0,0.0,0.0,0.0,0.0,0.0,0.0,0.0,0.0,0.0,0.0,0.0,0.0,0.0,0.0,0.0,0.0,0.0,0.0,0.0,0.0,0.0,0.0,0.0,0.0,0.0,0.0,0.0,0.0,0.0,0.0,0.0,0.0,0.0,0.0,0.0,0.0,0.0,0.0,0.0,0.0,0.0,0.0,0.0,0.0,0.0,0.0,0.0,0.0,0.0,0.0,0.0,0.0,0.0,0.0,0.0,0.0,0.0,0.0,0.0,0.0,0.0,0.0,0.0,0.0,0.0,0.0,0.0,0.0,0.0,0.0,0.0,0.0,0.0,0.0,0.0,0.0,0.0,0.0,0.0,0.0,0.0,0.0,0.0,0.0,0.0,0.0,0.0,0.0,0.0,0.0,0.0,0.0,0.0,0.0,0.0,0.0,0.0,0.0,0.0,0.0,0.0,0.0,0.0,0.0,0.0,0.0,0.0,0.0,0.0,0.0,0.0,0.0,0.0,0.0,0.0,0.0,0.0,0.0,0.0,0.0,0.0,0.0,0.0,0.0,0.0,0.0,0.0,0.0,0.0,0.0,0.0,0.0,0.0,0.0,0.0,0.0,0.0,0.0,0.0,0.0,0.0,0.0,0.0,0.0,0.0,0.0,0.0,0.0,0.0,0.0,0.0,0.0,0.0,0.0,0.0,0.0,0.0,0.0,0.0,0.0,0.0,0.0,0.0,0.0,0.0,0.0,0.0,0.0,0.0,0.0,0.0,0.0,0.0,0.0,0.0,0.0,0.0,0.0,0.0,0.0,0.0,0.0,0.0,0.0,0.0,0.0,0.0,0.0,0.0,0.0,0.0,0.0,0.0,0.0,0.0,0.0,0.0,0.0,0.0,0.0,0.0,0.0,0.0,0.0,0.0,0.0,0.0,0.0,0.0,0.0,0.0,0.0,0.0,0.0,0.0,0.0,0.0,0.0,0.0,0.0,0.0,0.0,0.0,0.0,0.0,0.0,0.0,0.0,0.0,0.0,0.0,0.0,0.0,0.0,0.0,0.0,0.0,0.0,0.0,0.0,0.0,0.0,0.0,0.0,0.0,0.0,0.0,0.0,0.0,0.0,0.0,0.0,0.0,0.0,0.0,0.0,0.0,0.0,0.0,0.0,0.0,0.0,0.0,0.0,0.0,0.0,0.0,0.0,0.0,0.0,0.0,0.0,0.0,0.0,0.0,0.0,0.0,0.0,0.0,0.0,0.0,0.0,0.0,0.0,0.0,0.0,0.0,0.0,0.0,0.0,0.0,0.0,0.0,0.0,0.0,0.0,0.0,0.0,0.0,0.0,0.0,0.0,0.0,0.0,0.0,0.0,0.0,0.0,0.0,0.0,0.0,0.0,0.0,0.0,0.0,0.0,0.0,0.0,0.0,0.0,0.0,0.0,0.0,0.0,0.0,0.0,0.0,0.0,0.0,0.0,0.0,0.0,0.0,0.0,0.0,0.0,0.0,0.0,0.0,0.0,0.0,0.0,0.0,0.0,0.0,0.0,0.0,0.0,0.0,0.0,0.0,0.0,0.0,0.0,0.0,0.0,0.0,0.0,0.0,0.0,0.0,0.0,0.0,0.0,0.0,0.0,0.0,0.0,0.0,0.0,0.0,0.0,0.0,0.0,0.0,0.0,0.0,0.0,0.0,0.0,0.0,0.0,0.0,0.0,0.0,0.0,0.0,0.0,0.0,0.0,0.0,0.0,0.0,0.0,0.0,0.0,0.0,0.821,0.0,0.0,0.0,0.0,0.0,0.0,0.0,0.0,0.0,0.0,0.0,0.0,0.0,0.0,0.0,0.0,0.0,0.0,0.0,0.0,0.0,0.0,0.0,0.0,0.0,0.0,0.0,0.0,0.0,0.0,0.0,0.0,0.0,0.0,0.0,0.0,0.0,0.0,0.0,0.0,0.0,0.0,0.0,0.0,0.0,0.0,0.0,0.0,0.0,0.0,0.0,0.0,0.0,0.0,0.0,0.0,0.0,0.0,0.0,0.0,0.0,0.0,0.0,0.0,0.0,0.0,0.0,0.0,0.0,0.0,0.0,0.0,0.0,0.0,0.0,0.0,0.0,0.0,0.0,0.0,0.0,0.0,0.0,0.0,0.0,0.0,0.0,0.0,0.0,0.0,0.0,0.0,0.0,0.0,0.0,0.0,0.0,0.0,0.0,0.0,0.0,0.0,0.0,0.0,0.0,0.0,0.0,0.0,0.0,0.0,0.806,0.8323,0.8221,0.8265,0.8495,0.0,0.0,0.0,0.0,0.0,0.0,0.0,0.0,0.0,0.0,0.0,0.0,0.0,0.0,0.0,0.0,0.0,0.0,0.0,0.0,0.0,0.0,0.0,0.0,0.0,0.0,0.0,0.0,0.0,0.0,0.0,0.0,0.0,0.0,0.0,0.0,0.0,0.0,0.0,0.0,0.0,0.0,0.0,0.0,0.0,0.0,0.0,0.0,0.0,0.0,0.0,0.0,0.0,0.0,0.0,0.0,0.0,0.0,0.0,0.0,0.0,0.0,0.0,0.0,0.0,0.0,0.0,0.0,0.0,0.0,0.0,0.0,0.0,0.0,0.0,0.0,0.0,0.0,0.0,0.0,0.0,0.0,0.0,0.0,0.0,0.0,0.0,0.0,0.0,0.0,0.0,0.0,0.0,0.0,0.0,0.0,0.0,0.0,0.0,0.0,0.0,0.0,0.0,0.0,0.0,0.0,0.0,0.0,0.0,0.0,0.0,0.0,0.8817,0.8763,0.8697,0.0,0.0,0.0,0.0,0.0,0.0,0.0,0.0,0.0,0.0,0.0,0.0,0.0,0.0,0.0,0.0,0.0,0.0,0.0,0.0,0.0,0.0,0.0,0.0,0.0,0.0,0.0,0.0,0.0,0.0,0.0,0.0,0.0,0.0,0.0,0.0,0.0,0.0,0.0,0.0,0.0,0.0,0.0,0.0,0.0,0.0,0.0,0.0,0.0,0.0,0.0,0.0,0.0,0.0,0.0,0.0,0.0,0.0,0.0,0.0,0.0,0.0,0.0,0.0,0.0,0.0,0.0,0.0,0.0,0.0,0.0,0.0,0.0,0.0,0.0,0.0,0.0,0.0,0.0,0.0,0.0,0.0,0.0,0.0,0.0,0.0,0.0,0.0,0.0,0.0,0.0,0.0,0.0,0.0,0.0,0.0,0.0,0.0,0.0,0.0,0.0,0.0,0.0,0.0,0.0,0.0,0.0,0.0,0.0,0.0,0.9436,0.9422,0.9197,0.0,0.8721,0.0,0.0,0.0,0.0,0.0,0.0,0.0,0.0,0.0,0.0,0.0,0.0,0.0,0.0,0.0,0.0,0.0,0.0,0.0,0.0,0.0,0.0,0.0,0.0,0.0,0.0,0.0,0.0,0.0,0.0,0.0,0.0,0.0,0.0,0.0,0.0,0.0,0.0,0.0,0.0,0.0,0.0,0.0,0.0,0.0,0.0,0.0,0.0,0.0,0.0,0.0,0.0,0.0,0.0,0.0,0.0,0.0,0.0,0.0,0.0,0.0,0.0,0.0,0.0,0.0,0.0,0.0,0.0,0.0,0.0,0.0,0.0,0.0,0.0,0.0,0.0,0.0,0.0,0.0,0.0,0.0,0.0,0.0,0.0,0.0,0.0,0.0,0.0,0.0,0.0,0.0,0.0,0.0,0.0,0.0,0.0,0.0,0.0,0.0,0.0,0.0,0.0,0.0,0.0,0.0,0.0,0.0,0.0,0.0,0.0,0.9486,0.9486,0.9392,0.9284,0.0,0.0,0.0,0.0,0.0,0.0,0.0,0.0,0.0,0.0,0.0,0.0,0.0,0.0,0.0,0.0,0.0,0.0,0.0,0.0,0.0,0.0,0.0,0.0,0.0,0.0,0.0,0.0,0.0,0.0,0.0,0.0,0.0,0.0,0.0,0.0,0.0,0.0,0.0,0.0,0.0,0.0,0.0,0.0,0.0,0.0,0.0,0.0,0.0,0.0,0.0,0.0,0.0,0.0,0.0,0.0,0.0,0.0,0.0,0.0,0.0,0.0,0.0,0.0,0.0,0.0,0.0,0.0,0.0,0.0,0.0,0.0,0.0,0.0,0.0,0.0,0.0,0.0,0.0,0.0,0.0,0.0,0.0,0.0,0.0,0.0,0.0,0.0,0.0,0.0,0.0,0.0,0.0,0.0,0.0,0.0,0.0,0.0,0.0,0.0,0.0,0.0,0.0,0.0,0.0,0.0,0.0,0.0,0.0,0.0,0.9486,0.9486,0.9486,0.9486,0.9486,0.9486,0.0,0.0,0.0,0.0,0.0,0.0,0.0,0.0,0.0,0.0,0.0,0.0,0.0,0.0,0.0,0.0,0.0,0.0,0.0,0.0,0.0,0.0,0.0,0.0,0.0,0.0,0.0,0.0,0.0,0.0,0.0,0.0,0.0,0.0,0.0,0.0,0.0,0.0,0.0,0.0,0.0,0.0,0.0,0.0,0.0,0.0,0.0,0.0,0.0,0.0,0.0,0.0,0.0,0.0,0.0,0.0,0.0,0.0,0.0,0.0,0.0,0.0,0.0,0.0,0.0,0.0,0.0,0.0,0.0,0.0,0.0,0.0,0.0,0.0,0.0,0.0,0.0,0.0,0.0,0.0,0.0,0.0,0.0,0.0,0.0,0.0,0.0,0.0,0.0,0.0,0.0,0.0,0.0,0.0,0.0,0.0,0.0,0.0,0.0,0.0,0.0,0.0,0.0,0.0,0.0,0.0,0.0,0.0,0.9486,0.9486,0.9486,0.9486,0.9486,0.9486,0.0,0.0,0.0,0.0,0.0,0.0,0.0,0.0,0.0,0.0,0.0,0.0,0.0,0.0,0.0,0.0,0.0,0.0,0.0,0.0,0.0,0.0,0.0,0.0,0.0,0.0,0.0,0.0,0.0,0.0,0.0,0.0,0.0,0.0,0.0,0.0,0.0,0.0,0.0,0.0,0.0,0.0,0.0,0.0,0.0,0.0,0.0,0.0,0.0,0.0,0.0,0.0,0.0,0.0,0.0,0.0,0.0,0.0,0.0,0.0,0.0,0.0,0.0,0.0,0.0,0.0,0.0,0.0,0.0,0.0,0.0,0.0,0.0,0.0,0.0,0.0,0.0,0.0,0.0,0.0,0.0,0.0,0.0,0.0,0.0,0.0,0.0,0.0,0.0,0.0,0.0,0.0,0.0,0.0,0.0,0.0,0.0,0.0,0.0,0.0,0.0,0.0,0.0,0.0,0.0,0.0,0.0,0.0,0.0,0.9486,0.9486,0.9486,0.9486,0.9486,0.9486,0.0,0.0,0.0,0.0,0.0,0.0,0.0,0.0,0.0,0.0,0.0,0.0,0.0,0.0,0.0,0.0,0.0,0.0,0.0,0.0,0.0,0.0,0.0,0.0,0.0,0.0,0.0,0.0,0.0,0.0,0.0,0.0,0.0,0.0,0.0,0.0,0.0,0.0,0.0,0.0,0.0,0.0,0.0,0.0,0.0,0.0,0.0,0.0,0.0,0.0,0.0,0.0,0.0,0.0,0.0,0.0,0.0,0.0,0.0,0.0,0.0,0.0,0.0,0.0,0.0,0.0,0.0,0.0,0.0,0.0,0.0,0.0,0.0,0.0,0.0,0.0,0.0,0.0,0.0,0.0,0.0,0.0,0.0,0.0,0.0,0.0,0.0,0.0,0.0,0.0,0.0,0.0,0.0,0.0,0.0,0.0,0.0,0.0,0.0,0.0,0.0,0.0,0.0,0.0,0.0,0.0,0.0,0.0,0.0,0.9486,0.0,0.9552,0.962,0.9542,0.9544,0.0,0.0,0.0,0.0,0.0,0.0,0.0,0.0,0.0,0.0,0.0,0.0,0.0,0.0,0.0,0.0,0.0,0.0,0.0,0.0,0.0,0.0,0.0,0.0,0.0,0.0,0.0,0.0,0.0,0.0,0.0,0.0,0.0,0.0,0.0,0.0,0.0,0.0,0.0,0.0,0.0,0.0,0.0,0.0,0.0,0.0,0.0,0.0,0.0,0.0,0.0,0.0,0.0,0.0,0.0,0.0,0.0,0.0,0.0,0.0,0.0,0.0,0.0,0.0,0.0,0.0,0.0,0.0,0.0,0.0,0.0,0.0,0.0,0.0,0.0,0.0,0.0,0.0,0.0,0.0,0.0,0.0,0.0,0.0,0.0,0.0,0.0,0.0,0.0,0.0,0.0,0.0,0.0,0.0,0.0,0.0,0.0,0.0,0.0,0.0,0.0,0.0,0.0,0.0,0.0,0.0,0.0,0.0,0.9518,0.952,0.9518,0.9642,0.9889,0.9664,0.9638,0.0,0.0,0.0,0.0,0.0,0.0,0.0,0.0,0.0,0.0,0.0,0.0,0.0,0.0,0.0,0.0,0.0,0.0,0.0,0.0,0.0,0.0,0.0,0.0,0.0,0.0,0.0,0.0,0.0,0.0,0.0,0.0,0.0,0.0,0.0,0.0,0.0,0.0,0.0,0.0,0.0,0.0,0.0,0.0,0.0,0.0,0.0,0.0,0.0,0.0,0.0,0.0,0.0,0.0,0.0,0.0,0.0,0.0,0.0,0.0,0.0,0.0,0.0,0.0,0.0,0.0,0.0,0.0,0.0,0.0,0.0,0.0,0.0,0.0,0.0,0.0,0.0,0.0,0.0,0.0,0.0,0.0,0.0,0.0,0.0,0.0,0.0,0.0,0.0,0.0,0.0,0.0,0.0,0.0,0.0,0.0,0.0,0.0,0.0,0.0,0.0,0.0,0.0,0.0,0.0,0.0,0.0,0.0,0.0,1.0057,1.0051,1.0088,1.0166,1.01,1.0094,0.0,0.0,0.0,0.0,0.0,0.0,0.0,0.0,0.0,0.0,0.0,0.0,0.0,0.0,0.0,0.0,0.0,0.0,0.0,0.0,0.0,0.0,0.0,0.0,0.0,0.0,0.0,0.0,0.0,0.0,0.0,0.0,0.0,0.0,0.0,0.0,0.0,0.0,0.0,0.0,0.0,0.0,0.0,0.0,0.0,0.0,0.0,0.0,0.0,0.0,0.0,0.0,0.0,0.0,0.0,0.0,0.0,0.0,0.0,0.0,0.0,0.0,0.0,0.0,0.0,0.0,0.0,0.0,0.0,0.0,0.0,0.0,0.0,0.0,0.0,0.0,0.0,0.0,0.0,0.0,0.0,0.0,0.0,0.0,0.0,0.0,0.0,0.0,0.0,0.0,0.0,0.0,0.0,0.0,0.0,0.0,0.0,0.0,0.0,0.0,0.0,0.0,0.0,0.0,0.0,0.0,0.0,0.0,0.0,1.0599,1.0394,1.0358,1.0436,1.0355,1.0349,1.0448,0.0,0.0,0.0,0.0,0.0,0.0,0.0,0.0,0.0,0.0,0.0,0.0,0.0,0.0,0.0,0.0,0.0,0.0,0.0,0.0,0.0,0.0,0.0,0.0,0.0,0.0,0.0,0.0,0.0,0.0,0.0,0.0,0.0,0.0,0.0,0.0,0.0,0.0,0.0,0.0,0.0,0.0,0.0,0.0,0.0,0.0,0.0,0.0,0.0,0.0,0.0,0.0,0.0,0.0,0.0,0.0,0.0,0.0,0.0,0.0,0.0,0.0,0.0,0.0,0.0,0.0,0.0,0.0,0.0,0.0,0.0,0.0,0.0,0.0,0.0,0.0,0.0,0.0,0.0,0.0,0.0,0.0,0.0,0.0,0.0,0.0,0.0,0.0,0.0,0.0,0.0,0.0,0.0,0.0,0.0,0.0,0.0,0.0,0.0,0.0,0.0,0.0,0.0,0.0,0.0,0.0,0.0,0.0,1.1108,1.0593,1.0469,1.0722,1.0481,1.0463,0.0,0.0,0.0,0.0,0.0,0.0,0.0,0.0,0.0,0.0,0.0,0.0,0.0,0.0,0.0,0.0,0.0,0.0,0.0,0.0,0.0,0.0,0.0,0.0,0.0,0.0,0.0,0.0,0.0,0.0,0.0,0.0,0.0,0.0,0.0,0.0,0.0,0.0,0.0,0.0,0.0,0.0,0.0,0.0,0.0,0.0,0.0,0.0,0.0,0.0,0.0,0.0,0.0,0.0,0.0,0.0,0.0,0.0,0.0,0.0,0.0,0.0,0.0,0.0,0.0,0.0,0.0,0.0,0.0,0.0,0.0,0.0,0.0,0.0,0.0,0.0,0.0,0.0,0.0,0.0,0.0,0.0,0.0,0.0,0.0,0.0,0.0,0.0,0.0,0.0,0.0,0.0,0.0,0.0,0.0,0.0,0.0,0.0,0.0,0.0,0.0,0.0,0.0,0.0,0.0,0.0,0.0,0.0,0.0,1.1096,1.0969,1.0927,1.099,1.0924,1.0918,0.0,0.0,0.0,0.0,0.0,0.0,0.0,0.0,0.0,0.0,0.0,0.0,0.0,0.0,0.0,0.0,0.0,0.0,0.0,0.0,0.0,0.0,0.0,0.0,0.0,0.0,0.0,0.0,0.0,0.0,0.0,0.0,0.0,0.0,0.0,0.0,0.0,0.0,0.0,0.0,0.0,0.0,0.0,0.0,0.0,0.0,0.0,0.0,0.0,0.0,0.0,0.0,0.0,0.0,0.0,0.0,0.0,0.0,0.0,0.0,0.0,0.0,0.0,0.0,0.0,0.0,0.0,0.0,0.0,0.0,0.0,0.0,0.0,0.0,0.0,0.0,0.0,0.0,0.0,0.0,0.0,0.0,0.0,0.0,0.0,0.0,0.0,0.0,0.0,0.0,0.0,0.0,0.0,0.0,0.0,0.0,0.0,0.0,0.0,0.0,0.0,0.0,0.0,0.0,0.0,0.0,0.0,0.0,1.1108,1.1108,1.1108,1.1108,1.1108,1.1108,1.1108,0.0,0.0,0.0,0.0,0.0,0.0,0.0,0.0,0.0,0.0,0.0,0.0,0.0,0.0,0.0,0.0,0.0,0.0,0.0,0.0,0.0,0.0,0.0,0.0,0.0,0.0,0.0,0.0,0.0,0.0,0.0,0.0,0.0,0.0,0.0,0.0,0.0,0.0,0.0,0.0,0.0,0.0,0.0,0.0,0.0,0.0,0.0,0.0,0.0,0.0,0.0,0.0,0.0,0.0,0.0,0.0,0.0,0.0,0.0,0.0,0.0,0.0,0.0,0.0,0.0,0.0,0.0,0.0,0.0,0.0,0.0,0.0,0.0,0.0,0.0,0.0,0.0,0.0,0.0,0.0,0.0,0.0,0.0,0.0,0.0,0.0,0.0,0.0,0.0,0.0,0.0,0.0,0.0,0.0,0.0,0.0,0.0,0.0,0.0,0.0,0.0,0.0,0.0,0.0,0.0,0.0,0.0,0.0,1.1139,1.1108,1.1108,1.1108,1.1111,1.1195,1.1214,0.0,0.0,0.0,0.0,0.0,0.0,0.0,0.0,0.0,0.0,0.0,0.0,0.0,0.0,0.0,0.0,0.0,0.0,0.0,0.0,0.0,0.0,0.0,0.0,0.0,0.0,0.0,0.0,0.0,0.0,0.0,0.0,0.0,0.0,0.0,0.0,0.0,0.0,0.0,0.0,0.0,0.0,0.0,0.0,0.0,0.0,0.0,0.0,0.0,0.0,0.0,0.0,0.0,0.0,0.0,0.0,0.0,0.0,0.0,0.0,0.0,0.0,0.0,0.0,0.0,0.0,0.0,0.0,0.0,0.0,0.0,0.0,0.0,0.0,0.0,0.0,0.0,0.0,0.0,0.0,0.0,0.0,0.0,0.0,0.0,0.0,0.0,0.0,0.0,0.0,0.0,0.0,0.0,0.0,0.0,0.0,0.0,0.0,0.0,0.0,0.0,0.0,0.0,0.0,0.0,0.0,0.0,0.0,1.126,1.1111,1.1108,1.1108,1.1108,1.187,1.1907,0.0,0.0,0.0,0.0,0.0,0.0,0.0,0.0,0.0,0.0,0.0,0.0,0.0,0.0,0.0,0.0,0.0,0.0,0.0,0.0,0.0,0.0,0.0,0.0,0.0,0.0,0.0,0.0,0.0,0.0,0.0,0.0,0.0,0.0,0.0,0.0,0.0,0.0,0.0,0.0,0.0,0.0,0.0,0.0,0.0,0.0,0.0,0.0,1.3246,0.0,0.0,0.0,0.0,0.0,0.0,0.0,0.0,0.0,0.0,0.0,0.0,0.0,0.0,0.0,0.0,0.0,0.0,0.0,0.0,0.0,0.0,0.0,0.0,0.0,0.0,0.0,0.0,0.0,0.0,0.0,0.0,0.0,0.0,0.0,0.0,0.0,0.0,0.0,0.0,0.0,0.0,0.0,0.0,0.0,0.0,0.0,0.0,0.0,0.0,0.0,0.0,0.0,0.0,0.0,0.0,0.0,0.0,0.0,1.1437,1.1251,1.1232,1.1195,1.1149,1.2397,1.2489,0.0,0.0,0.0,0.0,0.0,0.0,0.0,0.0,0.0,0.0,0.0,0.0,0.0,0.0,0.0,0.0,0.0,0.0,0.0,0.0,0.0,0.0,0.0,0.0,0.0,0.0,0.0,0.0,0.0,0.0,0.0,0.0,0.0,0.0,0.0,0.0,0.0,0.0,0.0,0.0,0.0,0.0,0.0,0.0,0.0,0.0,0.0,0.0,0.0,0.0,0.0,0.0,0.0,0.0,0.0,0.0,0.0,0.0,0.0,0.0,0.0,0.0,0.0,0.0,0.0,0.0,0.0,0.0,0.0,0.0,0.0,0.0,0.0,0.0,0.0,0.0,0.0,0.0,0.0,0.0,0.0,0.0,0.0,0.0,0.0,0.0,0.0,0.0,0.0,0.0,0.0,0.0,0.0,0.0,0.0,0.0,0.0,0.0,0.0,0.0,0.0,0.0,0.0,0.0,0.0,0.0,0.0,1.1586,1.158,1.1446,1.1524,1.1487,1.1372,1.2872,1.3009,1.1533,0.0,0.0,0.0,0.0,0.0,0.0,0.0,0.0,0.0,0.0,0.0,0.0,0.0,0.0,0.0,0.0,0.0,0.0,0.0,0.0,0.0,0.0,0.0,0.0,0.0,0.0,0.0,0.0,0.0,0.0,0.0,0.0,0.0,0.0,0.0,0.0,0.0,0.0,1.1828,1.2638,0.0,0.0,0.0,0.0,0.0,0.0,0.0,0.0,1.5082,0.0,0.0,0.0,0.0,0.0,0.0,0.0,0.0,0.0,0.0,0.0,0.0,0.0,0.0,0.0,0.0,0.0,0.0,0.0,0.0,0.0,0.0,0.0,0.0,0.0,0.0,0.0,0.0,0.0,0.0,0.0,0.0,0.0,0.0,0.0,0.0,0.0,0.0,0.0,0.0,0.0,0.0,0.0,0.0,0.0,0.0,0.0,0.0,0.0,0.0,0.0,0.0,0.0,0.0,0.0,0.0,1.1657,1.1521,1.1521,1.166,1.2156,1.2402,1.2372,1.3235,1.351,1.3198,0.0,0.0,0.0,0.0,0.0,0.0,0.0,0.0,0.0,0.0,0.0,0.0,0.0,0.0,0.0,0.0,0.0,0.0,0.0,0.0,0.0,0.0,0.0,0.0,0.0,0.0,0.0,0.0,0.0,0.0,0.0,0.0,0.0,0.0,0.0,0.0,0.0,0.0,0.0,1.4306,1.4514,0.0,0.0,0.0,0.0,0.0,0.0,0.0,0.0,1.5235,0.0,0.0,0.0,0.0,0.0,0.0,0.0,0.0,0.0,0.0,0.0,0.0,0.0,0.0,0.0,0.0,0.0,0.0,0.0,0.0,0.0,0.0,0.0,0.0,0.0,0.0,0.0,0.0,0.0,0.0,0.0,0.0,0.0,0.0,0.0,0.0,0.0,0.0,0.0,0.0,0.0,0.0,0.0,0.0,0.0,0.0,0.0,0.0,0.0,0.0,0.0,0.0,0.0,0.0,0.0,1.1697,1.1808,1.1873,1.1882,1.2551,1.2854,1.2796,1.3863,1.4385,0.0,0.0,0.0,0.0,0.0,0.0,0.0,0.0,0.0,0.0,0.0,0.0,0.0,0.0,0.0,0.0,0.0,0.0,0.0,0.0,0.0,0.0,0.0,0.0,0.0,0.0,0.0,0.0,0.0,0.0,0.0,0.0,0.0,0.0,0.0,0.0,0.0,0.0,0.0,0.0,1.4968,1.521,1.5843,0.0,0.0,0.0,0.0,0.0,0.0,1.5737,1.5772,0.0,0.0,0.0,0.0,0.0,0.0,0.0,0.0,0.0,0.0,0.0,0.0,0.0,0.0,0.0,0.0,0.0,0.0,0.0,0.0,0.0,0.0,0.0,0.0,0.0,0.0,0.0,0.0,0.0,0.0,0.0,0.0,0.0,0.0,0.0,0.0,0.0,0.0,0.0,0.0,0.0,0.0,0.0,0.0,0.0,0.0,0.0,0.0,0.0,0.0,0.0,0.0,0.0,0.0,0.0,1.1888,1.2366,1.2574,1.2537,1.3422,1.3829,1.3693,1.4997,1.5617,0.0,0.0,0.0,0.0,0.0,0.0,0.0,0.0,0.0,0.0,0.0,0.0,0.0,0.0,0.0,0.0,0.0,0.0,0.0,0.0,0.0,0.0,0.0,0.0,0.0,0.0,0.0,0.0,0.0,0.0,0.0,0.0,0.0,0.0,0.0,0.0,0.0,0.0,0.0,0.0,0.0,1.5693,1.6297,1.6384,0.0,0.0,0.0,0.0,1.5684,1.6201,0.0,0.0,0.0,0.0,0.0,0.0,0.0,0.0,0.0,0.0,0.0,0.0,0.0,0.0,0.0,0.0,0.0,0.0,0.0,0.0,0.0,0.0,0.0,0.0,0.0,0.0,0.0,0.0,0.0,0.0,0.0,0.0,0.0,0.0,0.0,0.0,0.0,0.0,0.0,0.0,0.0,0.0,0.0,0.0,0.0,0.0,0.0,0.0,0.0,0.0,0.0,0.0,0.0,0.0,0.0,0.0,1.2503,1.3298,1.3866,1.426,1.5577,1.6288,1.6268,1.7055,1.7324,0.0,0.0,0.0,0.0,0.0,0.0,0.0,0.0,0.0,0.0,0.0,0.0,0.0,0.0,0.0,0.0,0.0,0.0,0.0,0.0,0.0,0.0,0.0,0.0,0.0,0.0,0.0,0.0,0.0,0.0,0.0,0.0,0.0,0.0,0.0,0.0,0.0,0.0,0.0,0.0,0.0,1.6236,1.5693,1.5631,1.5525,0.0,0.0,1.5693,1.6376,1.7069,0.0,0.0,0.0,0.0,0.0,0.0,0.0,0.0,0.0,0.0,0.0,0.0,0.0,0.0,0.0,0.0,0.0,0.0,0.0,0.0,0.0,0.0,0.0,0.0,0.0,0.0,0.0,0.0,0.0,0.0,0.0,0.0,0.0,0.0,0.0,0.0,0.0,0.0,0.0,0.0,0.0,0.0,0.0,0.0,0.0,0.0,0.0,0.0,0.0,0.0,0.0,0.0,0.0,0.0,0.0,1.2407,1.2625,1.3689,1.4311,1.4535,1.6049,1.6864,1.6874,1.7597,1.7784,0.0,0.0,0.0,0.0,0.0,0.0,0.0,0.0,0.0,0.0,0.0,0.0,0.0,0.0,0.0,0.0,0.0,0.0,0.0,0.0,0.0,0.0,0.0,0.0,0.0,0.0,0.0,0.0,0.0,0.0,0.0,0.0,0.0,0.0,0.0,0.0,0.0,0.0,0.0,0.0,0.0,0.0,1.6254,1.6664,0.0,0.0,0.0,1.6871,1.6793,0.0,0.0,0.0,0.0,0.0,0.0,0.0,0.0,0.0,0.0,0.0,0.0,0.0,0.0,0.0,0.0,0.0,0.0,0.0,0.0,0.0,0.0,0.0,0.0,0.0,0.0,0.0,0.0,0.0,0.0,0.0,0.0,0.0,0.0,0.0,0.0,0.0,0.0,0.0,0.0,0.0,0.0,0.0,0.0,0.0,0.0,0.0,0.0,0.0,0.0,0.0,0.0,0.0,0.0,0.0,0.0,0.0,1.2825,1.4501,1.5272,1.5104,1.6704,1.7577,1.7596,1.8109,0.0,0.0,0.0,0.0,0.0,0.0,0.0,0.0,0.0,0.0,0.0,0.0,0.0,0.0,0.0,0.0,0.0,0.0,0.0,0.0,0.0,0.0,0.0,0.0,0.0,0.0,0.0,1.2073,0.0,0.0,0.0,0.0,0.0,0.0,0.0,0.0,0.0,0.0,0.0,0.0,0.0,0.0,1.5667,1.675,1.7364,1.7794,0.0,0.0,1.775,1.7384,1.7888,1.8096,0.0,0.0,0.0,0.0,0.0,0.0,0.0,0.0,0.0,0.0,0.0,0.0,0.0,0.0,0.0,0.0,0.0,0.0,0.0,0.0,0.0,0.0,0.0,0.0,0.0,0.0,0.0,0.0,0.0,0.0,0.0,0.0,0.0,0.0,0.0,0.0,0.0,0.0,0.0,0.0,0.0,0.0,0.0,0.0,0.0,0.0,0.0,0.0,0.0,0.0,0.0,0.0,0.0,0.0,0.0,1.3465,1.6262,1.733,1.6637,1.8259,1.914,1.915,1.9189,1.911,0.0,0.0,0.0,0.0,0.0,0.0,0.0,0.0,0.0,0.0,0.0,0.0,0.0,0.0,0.0,0.0,0.0,0.0,0.0,0.0,0.0,0.0,0.0,0.0,0.0,0.0,0.0,0.0,0.0,0.0,0.0,0.0,0.0,0.0,0.0,0.0,0.0,0.0,0.0,0.0,0.0,1.5833,1.6767,1.694,1.7235,0.0,0.0,1.7762,1.84,1.8872,1.919,1.9117,0.0,0.0,0.0,0.0,0.0,0.0,0.0,0.0,0.0,0.0,0.0,0.0,0.0,0.0,0.0,0.0,0.0,0.0,0.0,0.0,0.0,0.0,0.0,0.0,0.0,0.0,0.0,0.0,0.0,0.0,0.0,0.0,0.0,0.0,0.0,0.0,0.0,0.0,0.0,0.0,0.0,0.0,0.0,0.0,0.0,0.0,0.0,0.0,0.0,0.0,0.0,0.0,0.0,1.39,1.421,1.6178,1.7281,1.7535,1.8677,1.9292,1.9292,1.9292,1.9221,0.0,0.0,0.0,0.0,0.0,0.0,0.0,0.0,0.0,0.0,0.0,0.0,0.0,0.0,0.0,0.0,0.0,0.0,0.0,0.0,0.0,0.0,0.0,0.0,0.0,0.0,0.0,0.0,1.259,1.2884,1.3397,0.0,0.0,0.0,0.0,0.0,0.0,0.0,0.0,0.0,0.0,1.6732,1.7203,1.7896,0.0,0.0,1.8702,1.8709,1.8979,1.9189,1.9286,1.9286,1.9223,0.0,0.0,0.0,0.0,0.0,0.0,0.0,0.0,0.0,0.0,0.0,0.0,0.0,0.0,0.0,0.0,0.0,0.0,0.0,0.0,0.0,0.0,0.0,0.0,0.0,0.0,0.0,0.0,0.0,0.0,0.0,0.0,0.0,0.0,0.0,0.0,0.0,0.0,0.0,0.0,0.0,0.0,0.0,0.0,0.0,0.0,0.0,0.0,0.0,0.0,0.0,0.0,1.4357,1.4716,1.6529,1.7634,1.8007,1.8846,1.9292,1.9292,1.9292,1.9241,0.0,0.0,0.0,0.0,0.0,0.0,0.0,0.0,0.0,0.0,0.0,0.0,0.0,0.0,0.0,0.0,0.0,0.0,0.0,0.0,0.0,0.0,0.0,0.0,0.0,0.0,0.0,0.0,1.3371,1.3881,1.439,0.0,0.0,0.0,0.0,0.0,0.0,0.0,0.0,0.0,0.0,1.7624,1.7977,1.8757,1.9286,1.9286,1.9404,1.9482,1.9482,1.9599,1.9696,1.9686,0.0,0.0,0.0,0.0,0.0,0.0,0.0,0.0,0.0,0.0,0.0,0.0,0.0,0.0,0.0,0.0,0.0,0.0,0.0,0.0,0.0,0.0,0.0,0.0,0.0,0.0,0.0,0.0,0.0,0.0,1.1108,0.0,0.0,0.0,0.0,0.0,0.0,0.0,0.0,0.0,0.0,0.0,0.0,0.0,0.0,0.0,0.0,0.0,0.0,0.0,0.0,0.0,0.0,1.5505,1.4761,1.7648,1.8797,1.8068,1.8847,1.9292,1.9292,1.9292,1.9292,1.9292,0.0,0.0,0.0,0.0,0.0,0.0,0.0,0.0,0.0,0.0,0.0,0.0,0.0,0.0,0.0,0.0,0.0,0.0,0.0,0.0,0.0,0.0,0.0,0.0,0.0,0.0,1.3695,1.4734,1.5426,0.0,0.0,0.0,0.0,0.0,0.0,0.0,0.0,0.0,0.0,1.8165,1.8443,1.9149,1.9296,1.9354,1.9325,1.9658,1.9893,1.9902,2.0263,2.0576,0.0,0.0,0.0,0.0,0.0,0.0,0.0,0.0,0.0,0.0,0.0,0.0,0.0,0.0,0.0,0.0,0.0,0.0,0.0,0.0,0.0,0.0,0.0,0.0,0.0,0.0,0.0,1.2094,1.21,0.0,0.0,0.0,0.0,0.0,0.0,0.0,0.0,0.0,0.0,0.0,1.2254,1.1991,0.0,0.0,0.0,0.0,0.0,0.0,0.0,0.0,0.0,0.0,0.0,0.0,1.5357,1.5882,1.7555,1.8567,1.8847,1.9153,1.9292,1.9292,1.9292,1.9292,1.9292,0.0,0.0,0.0,0.0,0.0,0.0,0.0,0.0,0.0,0.0,0.0,0.0,0.0,0.0,0.0,0.0,0.0,0.0,0.0,0.0,0.0,0.0,0.0,0.0,0.0,1.4059,0.0,0.0,0.0,0.0,0.0,0.0,0.0,0.0,0.0,0.0,0.0,1.7898,1.8993,1.9355,1.9613,1.9874,2.0271,2.0526,0.0,0.0,0.0,0.0,0.0,0.0,0.0,0.0,0.0,0.0,0.0,0.0,0.0,0.0,1.9668,1.8694,1.8535,1.8396,1.7999,0.0,0.0,0.0,0.0,0.0,0.0,0.0,0.0,0.0,0.0,0.0,0.0,0.0,0.0,0.0,0.0,1.2905,0.0,0.0,0.0,0.0,0.0,0.0,0.0,0.0,1.2439,1.2386,1.2631,1.2399,1.2418,0.0,1.2512,1.266,0.0,0.0,0.0,0.0,0.0,0.0,0.0,0.0,1.5799,1.6846,1.7907,1.8736,1.9263,1.9292,1.9292,1.9292,1.9292,1.9292,1.9292,1.937,1.937,0.0,0.0,0.0,0.0,0.0,0.0,0.0,0.0,0.0,0.0,0.0,0.0,0.0,0.0,0.0,0.0,0.0,0.0,0.0,0.0,0.0,0.0,0.0,1.5279,0.0,0.0,0.0,0.0,0.0,0.0,0.0,0.0,0.0,1.9169,1.9058,1.9311,2.007,2.0375,2.0544,2.0544,0.0,0.0,0.0,0.0,0.0,0.0,0.0,2.078,2.0712,2.0702,2.0693,2.0605,2.0605,2.0605,2.0605,0.0,0.0,1.9665,1.9559,1.9512,1.939,1.9352,1.9212,1.8731,1.8646,1.8466,0.0,0.0,0.0,0.0,0.0,0.0,0.0,0.0,1.1893,1.2539,0.0,1.3592,0.0,0.0,0.0,0.0,0.0,1.2751,0.0,0.0,1.3253,1.3085,1.3279,1.31,1.3387,1.4054,1.3167,1.3135,1.3819,1.3396,0.0,0.0,0.0,0.0,0.0,0.0,1.6866,1.7698,1.8728,1.9292,1.9292,1.9292,1.9292,1.9292,1.9292,1.9292,1.9302,1.9469,1.9518,1.9321,1.9498,0.0,0.0,0.0,0.0,0.0,0.0,0.0,0.0,0.0,0.0,0.0,0.0,0.0,0.0,0.0,0.0,0.0,0.0,0.0,0.0,1.6592,0.0,0.0,0.0,0.0,0.0,0.0,0.0,0.0,0.0,0.0,2.03,2.043,2.076,2.1144,0.0,0.0,0.0,0.0,2.1224,2.1195,2.1215,2.1205,2.1205,2.1186,2.1128,2.0955,0.0,0.0,2.0634,2.0595,2.0605,2.0605,2.0605,2.0605,2.0576,2.0537,2.0547,2.0537,2.0508,2.0576,2.0566,2.0391,2.0382,1.3584,0.0,0.0,0.0,0.0,1.3573,1.4248,1.5423,1.4676,1.4546,1.4856,1.4856,0.0,0.0,0.0,0.0,0.0,0.0,1.4643,1.4675,1.4351,1.3972,1.3588,1.3382,1.373,1.4472,1.3612,1.4357,1.6427,1.5143,1.4195,1.3717,0.0,0.0,0.0,0.0,1.7526,1.7928,1.8836,1.9292,1.9292,1.9292,1.9292,1.9292,1.9292,1.9292,1.9292,1.936,1.9429,1.9518,1.9557,0.0,0.0,0.0,0.0,0.0,0.0,0.0,0.0,0.0,0.0,0.0,0.0,0.0,0.0,0.0,0.0,0.0,0.0,0.0,1.7187,1.8006,1.8701,0.0,0.0,0.0,0.0,0.0,0.0,0.0,0.0,0.0,2.1147,2.1071,2.1122,0.0,0.0,2.1416,2.1426,2.154,2.1569,2.1436,0.0,0.0,0.0,2.1215,2.1176,2.1128,2.0993,2.0887,2.0819,2.0702,2.0605,2.0605,2.0605,2.0605,2.0605,2.0605,2.0605,2.0605,2.0605,2.0605,2.0605,2.0605,2.0576,1.5177,1.5048,1.4986,1.4938,1.4966,1.5198,1.5961,1.696,1.6144,1.5866,1.5996,1.6191,1.5456,1.4126,1.4544,0.0,0.0,0.0,1.6108,1.6274,1.5577,1.4987,1.4517,1.4467,1.4725,1.5205,1.5005,1.5894,1.7761,1.6959,1.6092,1.5219,0.0,0.0,1.6119,1.7232,1.8058,1.8517,1.9025,1.9292,1.9292,1.9292,1.9292,1.9292,1.9292,1.9331,1.942,1.9489,1.9578,1.9715,1.9823,1.9892,0.0,0.0,0.0,0.0,0.0,0.0,0.0,0.0,0.0,0.0,0.0,1.8909,1.8995,0.0,0.0,0.0,1.9014,1.8774,1.8734,1.9136,0.0,0.0,0.0,0.0,0.0,0.0,0.0,2.0975,2.1349,2.1617,2.1617,2.1531,2.1483,2.1598,2.1617,2.1617,2.1626,0.0,2.175,2.1646,2.1626,2.1569,2.1464,2.1445,2.1416,2.133,2.1137,2.0993,2.0916,2.0799,2.0702,2.0615,2.0605,2.0605,2.0605,2.0605,2.0605,2.0605,2.0605,2.0605,2.0605,2.0605,2.0605,1.7157,1.7946,1.6641,1.6013,1.5959,1.6732,1.7135,1.7233,1.6818,1.6798,1.7104,1.7543,1.7319,1.6605,1.6376,0.0,1.789,1.72,1.7436,1.8309,1.6969,1.6124,1.5781,1.6003,1.6131,1.6168,1.6829,1.7465,1.8129,1.8647,1.8645,1.8089,1.7365,1.729,1.7791,1.8037,1.8551,1.9337,1.932,1.9292,1.9292,1.9292,1.9292,1.9292,1.9292,1.941,1.9597,1.9775,1.9902,1.9932,2.0176,2.0186,1.9971,0.0,0.0,0.0,0.0,0.0,0.0,0.0,0.0,0.0,0.0,0.0,0.0,0.0,0.0,0.0,2.0479,0.0,2.0625,2.0069,0.0,0.0,0.0,2.0314,2.1128,2.1388,2.1522,2.1531,0.0,0.0,2.185,2.1891,2.1931,2.1911,2.1881,2.1869,2.1901,2.1943,2.1902,2.1963,2.1922,2.1921,2.1966,2.1955,2.1908,2.1754,2.144,2.1247,2.1072,2.0926,2.0848,2.0673,2.0625,2.0605,2.0605,2.0605,2.0605,2.0605,2.0605,2.0605,2.0605,2.0605,2.0605,1.8547,1.9549,1.9933,1.9421,1.8299,1.7766,1.8333,1.9585,1.8871,1.8577,1.8663,1.8766,1.8711,1.8534,1.8462,1.8959,1.9823,1.9653,1.9359,1.8976,1.8624,1.7674,1.6253,1.6286,1.6676,1.7235,1.6814,1.7731,1.9784,1.9371,1.9392,1.986,1.9703,1.9344,1.8874,1.9249,1.9546,1.9738,1.9467,1.9292,1.9292,1.9292,1.9292,1.9292,1.9292,1.94,1.9587,1.9655,1.9833,2.0186,2.0264,2.0352,2.0421,2.0274,0.0,0.0,0.0,0.0,0.0,0.0,0.0,0.0,0.0,2.0166,2.0206,0.0,2.0303,0.0,2.0576,2.0664,2.0819,2.0673,0.0,0.0,2.0983,2.1021,2.1387,2.1464,2.155,2.1712,2.2079,2.2325,2.2345,2.2645,2.2863,2.2863,2.2553,2.2469,2.2811,2.2863,2.2863,2.2842,2.2822,2.2873,2.2822,2.2863,2.2822,2.2803,2.2326,2.1944,2.1895,2.1339,2.0867,2.0838,2.0702,2.0625,2.0595,2.0605,2.0595,2.0605,2.0605,2.0605,2.0605,2.0605,2.0605,2.0478,2.13,2.1456,2.1255,2.0806,2.0248,2.051,2.1233,2.0604,1.9994,1.9454,1.929,1.9414,1.9773,1.9773,2.0039,2.0488,2.0683,2.0511,2.0041,1.9804,1.9065,1.7977,1.8088,1.8334,1.8683,1.8711,1.9536,2.0932,2.0546,2.0556,2.103,2.103,2.0802,2.0334,2.0223,2.016,2.016,1.9767,1.9576,1.9557,1.9393,1.9292,1.9311,1.94,1.9537,1.9745,1.9843,2.0078,2.0411,2.043,2.0489,2.0605,2.0489,2.0401,0.0,0.0,0.0,0.0,0.0,0.0,0.0,0.0,0.0,0.0,0.0,2.0479,2.0605,2.0605,2.0673,2.0877,2.0964,2.1119,2.1311,2.1407,2.1522,2.1617,2.1811,2.1992,2.2099,2.2522,2.2811,2.2821,2.3029,2.3277,2.3463,2.3297,2.3132,2.3173,2.3194,2.3194,2.3194,2.3194,2.3194,2.3194,2.3194,2.3194,2.3184,2.2887,2.2612,2.2522,2.1947,2.1448,2.135,2.1016,2.0732,2.0741,2.0644,2.0605,2.0605,2.0605,2.0605,2.0605,2.0605,2.0605,2.2452,2.3015,2.219,2.2318,2.3059,2.3059,2.2794,2.2359,2.1998,2.123,2.0169,1.9774,2.0016,2.0729,2.0663,2.0656,2.0694,2.1015,2.1159,2.1143,2.0706,2.0303,1.9974,2.0192,2.0181,2.0019,2.1019,2.1575,2.1687,2.1698,2.1698,2.1698,2.1698,2.1698,2.167,2.1004,2.0601,2.05,2.0161,1.9968,1.9968,1.9661,1.9507,1.9498,1.9649,1.9819,2.0017,2.0205,2.0401,2.0586,2.0605,2.0605,2.0605,2.0605,2.0508,0.0,2.0294,0.0,0.0,0.0,0.0,0.0,0.0,0.0,0.0,2.0605,2.0605,2.0605,2.0605,2.0702,2.0935,2.1149,2.1382,2.1603,2.1847,2.1983,2.2004,2.2355,2.2593,2.2584,2.2997,2.3277,2.3287,2.3318,2.3536,2.3898,2.395,2.3815,2.3494,2.3422,2.3432,2.336,2.337,2.3474,2.3443,2.3422,2.3412,2.3401,2.3339,2.3226,2.3074,2.2634,2.2218,2.2009,2.1509,2.1054,2.1005,2.082,2.0634,2.0605,2.0605,2.0605,2.0605,2.0605,2.0605,2.3299,2.4171,2.3837,2.38,2.3969,2.3957,2.351,2.2785,2.2702,2.2536,2.2278,2.1889,2.181,2.1918,2.1627,2.1489,2.1469,2.1551,2.1577,2.1566,2.1483,2.1008,2.0238,2.0272,2.0283,2.0235,2.0464,2.0943,2.1698,2.1698,2.1698,2.1698,2.1698,2.1698,2.1698,0.0,0.0,0.0,2.0427,2.039,2.0381,2.0526,2.0593,2.0594,2.047,0.0,2.0675,2.0428,2.0401,2.0586,2.0605,0.0,0.0,0.0,0.0,0.0,0.0,0.0,0.0,0.0,0.0,0.0,2.0547,2.0566,2.0605,2.0605,2.0605,2.0605,2.0605,2.0741,2.1109,2.1527,2.1926,2.2269,2.2668,2.2946,2.2936,2.3018,2.3049,2.308,2.3484,2.3774,2.3784,2.4053,2.427,2.4342,2.4384,2.4353,2.4249,2.4208,2.4239,2.4249,2.4198,2.4239,2.426,2.4239,2.4177,2.4229,2.3971,2.3774,2.3712,2.3217,2.2798,2.2727,2.216,2.1679,2.1511,2.1124,2.0819,2.0634,2.0605,2.0605,2.0605,2.0605,2.0605,2.4261,0.0,2.439,2.4279,0.0,2.4198,2.3947,2.3529,2.3291,2.3087,2.2895,2.2672,2.2604,2.2595,2.2382,2.2279,2.2291,2.23,2.2282,2.2291,2.2302,2.2052,2.1585,2.1594,2.1478,2.1292,2.1283,2.1432,2.1685,2.1698,2.1698,2.1698,2.1698,2.1698,2.1698,2.1698,2.1508,2.1094,2.0894,2.0848,2.0976,2.0938,2.0951,2.1046,0.0,0.0,0.0,0.0,0.0,0.0,0.0,0.0,0.0,0.0,0.0,2.045,2.045,2.045,2.044,2.045,2.0508,2.0586,2.0605,2.0605,2.0605,2.0605,2.0644,2.0741,2.0948,2.1262,2.1665,2.2108,2.2522,2.2813,2.3069,2.3194,2.3225,2.3411,2.3546,2.3587,2.3929,2.4198,2.4209,2.4353,2.4487,2.4507,2.4507,2.4507,2.4507,2.4507,2.4507,2.4507,2.4507,2.4497,2.4507,2.4507,2.4518,2.4477,2.4332,2.4388,2.4765,2.4404,2.4046,2.4004,2.3483,2.2901,2.2311,2.171,2.1213,2.1095,2.082,2.0615,2.0605,2.0605,2.0605,2.5027,2.4566,2.4504,2.439,2.4198,2.4198,2.4198,2.4174,0.0,0.0,0.0,2.305,2.3014,2.2993,2.2929,2.2889,2.2889,2.2889,2.2889,2.2889,2.2889,2.2889,2.2889,2.2889,2.2742,2.24,2.2403,2.2229,2.1916,2.1906,2.1918,2.1918,2.1927,2.1881,2.1808,2.1733,2.1729,2.1756,2.1436,2.1381,2.1598,2.1366,2.1304,2.1472,2.1616,2.1673,2.1683,2.1821,2.1915,2.1896,2.1533,2.1317,2.1318,2.1016,2.083,2.084,2.084,2.084,2.082,2.083,2.083,2.082,2.083,2.0762,2.0615,2.0674,2.0771,2.0937,2.1402,2.186,2.2219,2.2716,2.3094,2.3298,2.3391,2.3443,2.3453,2.3764,2.4002,2.4053,2.4301,2.4497,2.4497,2.4487,2.4507,2.4507,2.4507,2.4507,2.4507,2.4507,2.4507,2.4507,2.4507,2.4529,2.4711,2.4786,2.4796,2.5062,2.5052,2.5221,2.5754,2.5759,2.5508,2.522,2.4777,2.4036,2.3185,2.2332,2.178,2.172,2.1184,2.0723,2.0713,2.0644,2.0605,2.5137,2.4821,2.46,2.4378,2.4198,2.4198,2.4198,2.4202,2.4125,2.4058,2.4006,2.3599,2.3419,2.3389,2.3059,2.2889,2.2889,2.2889,2.2889,0.0,2.2889,2.2889,2.2889,2.2889,2.2876,2.2821,2.281,2.2782,2.2739,2.2718,2.2727,2.2718,2.2727,2.2547,2.2222,2.1861,2.1819,2.2041,2.1985,2.1979,2.2025,2.2364,2.2544,2.2558,2.2416,2.2349,2.237,2.2059,2.1915,2.1905,2.1847,2.1807,2.1797,2.1729,2.1709,2.172,2.172,2.1709,2.172,2.1709,2.1709,2.172,2.172,2.1397,2.0684,2.0918,2.1133,2.1182,2.1757,2.2198,2.2473,2.3042,2.3535,2.3795,2.4105,2.4311,2.427,2.4332,2.4384,2.4384,2.4466,2.4507,2.4507,2.4507,2.4507,2.4507,2.4507,2.4507,2.4507,2.4507,2.4507,2.4507,2.4507,2.4807,2.5337,2.5621,2.5872,2.6628,2.6628,2.6597,2.6885,2.6855,2.6572,2.5875,2.5449,2.473,2.3743,2.2858,2.2421,2.2219,2.1698,2.1172,2.1123,2.0889,2.0635,2.5357,2.5125,2.4993,2.4711,2.4362,2.4251,2.4198,2.4198,2.4198,2.4198,2.4183,2.3984,2.3889,2.3871,2.3684,2.3602,2.3602,2.3614,2.3602,2.3602,2.3623,2.3602,2.359,2.359,2.3468,2.3233,2.3212,2.3102,2.291,2.2889,2.2889,2.2889,2.2889,2.2812,2.2632,2.2449,2.2373,2.2423,2.2229,2.2228,2.2462,2.2684,2.2849,2.2958,2.2862,2.283,2.283,2.2655,2.2558,2.2558,2.2343,2.2227,2.2227,2.2021,2.1915,2.1915,2.1915,2.1915,2.1915,2.1915,2.1915,2.1915,2.1915,2.1749,2.1338,2.1465,2.1623,2.1745,2.2355,2.2822,2.304,2.3646,2.4102,2.4208,2.4405,2.4497,2.4507,2.4507,2.4507,2.4507,2.4507,2.4507,2.4507,2.4507,2.4507,2.4507,2.4507,2.4507,2.4507,2.4507,2.4518,2.454,2.4892,2.5327,2.5767,2.6225,2.6627,2.7069,2.7098,2.7324,2.77,2.7861,2.7678,2.7322,2.6721,2.611,2.543,2.4095,2.3371,2.334,2.2462,2.1845,2.1564,2.124,2.0879,2.5525,2.5296,2.5296,2.4981,2.4492,2.4328,2.4251,2.4198,2.4198,2.4198,2.4198,2.4198,2.4198,2.4198,2.4198,2.4202,2.4198,2.4198,2.4189,2.4198,2.4198,2.4198,2.4198,2.4198,2.4024,2.3688,2.3651,2.3495,2.323,2.3181,2.3202,2.3181,2.3087,2.3032,2.3041,2.2999,2.2952,2.2922,2.2672,2.262,2.2792,2.2836,2.2958,2.309,2.3091,2.3112,2.3112,2.3112,2.3112,2.3092,2.28,2.2635,2.2636,2.2344,2.2168,2.2168,2.2178,2.2168,2.2168,2.2168,2.2168,2.2168,2.2178,2.2168,2.2168,2.2168,2.2182,2.233,2.2908,2.3391,2.359,2.41,2.4507,2.4507,2.4507,2.4507,2.4507,2.4507,2.4507,2.4507,2.4507,2.4507,2.4507,2.4507,2.4507,2.4507,2.4507,2.4507,2.4507,2.4507,2.4529,2.4871,2.5379,2.5861,2.6069,2.6853,2.7455,2.7637,2.779,2.8153,2.8633,2.8791,2.8621,2.8413,2.7889,2.7277,2.6961,2.5432,2.4377,2.4428,2.3402,2.2292,2.1907,2.1621,2.1172,2.5538,2.5321,2.5308,2.5002,2.4529,2.4489,2.4353,2.4214,2.4198,2.4198,2.4198,2.4198,2.4198,2.4198,2.4198,2.4198,2.4198,2.4198,2.4198,2.4198,2.4198,2.4198,2.4198,2.4198,2.4183,2.4125,2.4103,2.407,2.4002,2.4021,2.4061,2.4033,2.3663,2.3444,2.3443,2.3326,2.3392,2.3604,2.3807,2.355,2.2862,2.298,2.308,2.3091,2.3112,2.3112,2.3112,2.3112,2.3112,2.3112,2.3073,2.3023,2.3023,2.2994,2.2975,2.2975,2.2975,2.2985,2.2975,2.3006,2.2956,2.2985,2.2956,2.2946,2.2946,2.2965,2.283,2.2714,2.3241,2.3708,2.3812,2.4219,2.4497,2.4507,2.4507,2.4507,2.4507,2.4507,2.4507,2.4507,2.4507,2.4507,2.4507,2.4507,2.4507,2.4507,2.4507,2.4507,2.4518,2.4625,2.485,2.5421,2.5809,2.6225,2.6895,2.7758,2.8522,2.9241,2.9475,2.9456,2.9495,2.9514,2.9456,2.8831,2.8432,2.8001,2.7344,2.6106,2.5398,2.5362,2.4315,2.2774,2.2126,2.2031,2.1777,2.5635,2.5516,2.5538,2.5223,2.476,2.4575,2.439,2.4211,2.4198,2.4198,2.4198,2.4198,2.4198,2.4198,2.4198,2.4198,2.4198,2.4198,2.4198,2.4198,2.4198,2.4198,2.4198,2.4198,2.4198,2.4198,2.4198,2.4198,2.4198,2.4198,2.4198,2.4192,2.399,2.3917,2.3923,2.3985,2.4031,2.407,2.4309,2.422,2.3787,2.3585,2.3514,2.3474,2.3259,2.3112,2.3112,2.3112,2.3112,2.3112,2.3112,2.3112,2.3112,2.3112,2.3112,2.3112,2.3112,2.3112,2.3112,2.3112,2.3112,2.3112,2.3112,2.3112,2.3112,2.3112,2.3078,2.3166,2.3534,2.3797,2.3851,2.4218,2.4507,2.4507,2.4507,2.4507,2.4507,2.4507,2.4507,2.4507,2.4507,2.4507,2.4507,2.4507,2.4507,2.4507,2.4507,2.4507,2.4518,2.4914,2.5379,2.5819,2.6638,2.7454,2.7931,2.8692,2.9348,2.9672,2.9779,2.9779,2.9779,2.9779,2.9634,2.9268,2.887,2.871,2.8811,2.7476,2.6504,2.6385,2.5907,2.4618,2.3968,2.3843,2.3559,2.5815,2.5706,2.5696,2.544,2.5002,2.4809,2.4551,2.4291,2.4288,2.4239,2.4202,2.4198,2.4198,2.4198,2.4198,2.4198,2.4198,2.4198,2.4198,2.4198,2.4198,2.4198,2.4198,2.4198,2.4198,2.4198,2.4198,2.4198,2.4198,2.4198,2.4198,2.4198,2.4198,2.4239,2.4313,2.4501,2.4606,2.4618,2.4842,2.4905,2.4719,2.4377,2.4093,2.3955,2.3629,2.3464,2.3453,2.3357,2.3287,2.3288,2.317,2.3112,2.3112,2.3112,2.3112,2.3112,2.3112,2.3112,2.3112,2.3112,2.3112,2.3112,2.3112,2.3112,2.3112,2.3112,2.3177,2.3342,2.3635,2.384,2.3949,2.4261,2.4497,2.4507,2.4507,2.4507,2.4507,2.4507,2.4507,2.4507,2.4507,2.4507,2.4507,2.4507,2.4507,2.4507,2.4507,2.4507,2.4625,2.5211,2.5851,2.6152,2.7506,2.8343,2.8552,2.916,2.9682,2.9779,2.9779,2.9779,2.9779,2.9779,2.9779,2.9495,2.9089,2.8971,2.9199,2.8363,2.7303,2.7351,2.6837,2.5968,2.5218,2.5327,2.5196,2.6101,2.5715,2.5696,2.5538,2.5284,2.5257,2.4944,2.4467,2.4489,2.439,2.4214,2.4198,2.4198,2.4198,2.4198,2.4198,2.4198,2.4198,2.4198,2.4198,2.4198,2.4198,2.4198,2.4198,2.4198,2.4198,2.4198,2.4198,2.4198,2.4198,2.4198,2.4198,2.4214,2.4304,2.4489,2.4747,2.5008,2.5192,2.5458,2.5615,2.5571,2.5227,2.4818,2.4451,2.4332,2.4285,2.4266,2.3955,2.3781,2.3781,2.3386,2.3151,2.3121,2.3112,2.3112,2.3112,2.3112,2.3112,2.3112,2.3112,2.3112,2.3112,2.3112,2.3112,2.3112,2.3112,2.3134,2.3134,2.358,2.3905,2.4142,2.4336,2.4507,2.4507,2.4507,2.4507,2.4507,2.4507,2.4507,2.4507,2.4507,2.4507,2.4507,2.4507,2.4507,2.4518,2.4518,2.4583,2.4786,2.5358,2.6225,2.6996,2.7861,2.8532,2.8601,2.9229,2.9702,2.9779,2.9779,2.9779,2.9779,2.9779,2.9779,2.9779,2.9624,2.9524,2.9566,2.9023,2.7999,2.7525,2.7079,2.6393,2.6365,2.5961,2.5934,2.613,2.5693,2.5696,2.5538,2.5318,2.5296,2.5002,2.4517,2.4504,2.4378,2.4226,2.4198,2.4198,2.4198,2.4198,2.4198,2.4198,2.4198,2.4198,2.4198,2.4198,2.4198,2.4198,2.4198,2.4198,2.4198,2.4198,2.4198,2.4198,2.4198,2.4198,2.4226,2.4328,2.4418,2.4563,2.4944,2.5211,2.5321,2.5574,2.5696,2.5686,2.5552,2.5398,2.5199,2.4686,2.4424,2.4424,2.4245,2.4189,2.4188,2.4022,2.3817,2.3553,2.3259,2.3112,2.3112,2.3112,2.3112,2.3112,2.3112,2.3112,2.3112,2.3112,2.3112,2.3112,2.3112,2.3166,2.3352,2.3613,2.3905,2.4164,2.4379,2.4507,2.4507,2.4507,2.4507,2.4507,2.4507,2.4507,2.4507,2.4507,2.4507,2.4507,2.4507,2.4507,2.455,2.4977,2.5263,2.5568,2.6556,2.7577,2.8001,2.8722,2.9326,2.9326,2.9524,2.9779,2.9779,2.9779,2.9779,2.9779,2.9779,2.9779,2.9779,2.9779,2.9769,2.9663,2.9395,2.847,2.8273,2.7762,2.7367,2.759,2.7174,2.7255,2.6208,2.5923,2.5764,2.5586,2.5428,2.544,2.5174,2.4772,2.4674,2.4501,2.4316,2.4226,2.4198,2.4198,2.4198,2.4198,2.4198,2.4198,2.4198,2.4198,2.4198,2.4198,2.4198,2.4198,2.4198,2.4198,2.4198,2.4198,2.4202,2.4263,2.4301,2.4304,2.4514,2.4674,2.4797,2.5125,2.5333,2.5452,2.562,2.5696,2.5696,2.5696,2.5696,2.5618,2.5132,2.4808,2.482,2.4695,2.464,2.4598,2.449,2.4276,2.3983,2.3573,2.3327,2.3318,2.3191,2.3112,2.3112,2.3112,2.3112,2.3112,2.3112,2.3112,2.3112,2.3112,2.3232,2.3461,2.3667,2.3905,2.4164,2.439,2.4507,2.4507,2.4507,2.4507,2.4507,2.4507,2.4507,2.4507,2.4507,2.4507,2.4507,2.4507,2.4647,2.4861,2.5453,2.5829,2.6359,2.7445,2.8502,2.8583,2.9189,2.9614,2.9663,2.9721,2.9779,2.9779,2.9779,2.9779,2.9779,2.9779,2.9779,2.9779,2.9779,2.9779,2.9679,2.948,2.9294,2.9121,2.8645,2.8097,2.8259,2.8369,2.8209,2.6409,2.6299,2.5881,2.5706,2.5659,2.5659,2.5525,2.5223,2.4993,2.4735,2.4477,2.4291,2.4214,2.4198,2.4198,2.4198,2.4198,2.4198,2.4198,2.4198,2.4198,2.4198,2.4198,2.4198,2.4198,2.4198,2.4198,2.4198,2.4211,2.4378,2.4467,2.4529,2.4781,2.5015,2.5272,2.5308,2.5452,2.5611,2.5706,2.5696,2.5696,2.5696,2.5696,2.5696,2.5628,2.5589,2.5618,2.5283,2.508,2.5053,2.4705,2.4442,2.4383,2.4023,2.381,2.373,2.3386,2.3151,2.312,2.3131,2.3112,2.3112,2.3112,2.3112,2.3112,2.3112,2.3221,2.3471,2.3677,2.3895,2.4164,2.44,2.4507,2.4507,2.4507,2.4507,2.4507,2.4507,2.4507,2.4507,2.4507,2.4507,2.4507,2.4625,2.4914,2.5484,2.5965,2.639,2.7068,2.8061,2.8492,2.8722,2.9258,2.974,2.9779,2.9779,2.9779,2.9779,2.9779,2.9779,2.9779,2.9779,2.9779,2.9779,2.9779,2.9779,2.9721,2.9512,2.9258,2.9054,2.8788,2.858,2.853,2.85,2.85,2.6638,2.636,2.5881,2.5696,2.5696,2.5696,2.5538,2.5296,2.5198,2.4929,2.4563,2.444,2.4328,2.4226,2.4198,2.4198,2.4198,2.4198,2.4211,2.4211,2.4202,2.4198,2.4198,2.4198,2.4198,2.4198,2.4198,2.4198,2.4239,2.4403,2.4504,2.4587,2.4956,2.5198,2.5321,2.5477,2.5645,2.5684,2.5696,2.5696,2.5696,2.5696,2.5696,2.5696,2.5696,2.5696,2.5686,2.5571,2.5515,2.5505,2.5376,2.5162,2.4865,2.4463,2.4206,2.4168,2.3818,2.3573,2.3545,2.3288,2.3121,2.3112,2.3112,2.3112,2.3112,2.3112,2.3232,2.3471,2.3688,2.3905,2.4164,2.44,2.4497,2.4507,2.4507,2.4507,2.4507,2.4507,2.4507,2.4507,2.4507,2.4507,2.4636,2.4903,2.5474,2.5965,2.6822,2.7718,2.8091,2.8762,2.9368,2.9468,2.9763,2.9779,2.9779,2.9779,2.9779,2.9779,2.9779,2.9779,2.9779,2.9779,2.9779,2.9779,2.9779,2.974,2.9682,2.9485,2.9212,2.9005,2.8756,2.863,2.853,2.85,2.85,2.6865,2.6553,2.5962,2.5696,2.5696,2.5696,2.5608,2.543,2.5333,2.51,2.4831,2.4578,2.4449,2.4325,2.4226,2.4251,2.4291,2.4251,2.4251,2.4288,2.4217,2.4202,2.4198,2.4198,2.4198,2.4214,2.4288,2.4313,2.4325,2.4624,2.4797,2.487,2.5235,2.5452,2.5465,2.5599,2.5696,2.5696,2.5696,2.5696,2.5696,2.5696,2.5696,2.5696,2.5696,2.5696,2.5696,2.5696,2.5696,2.5696,2.5696,2.5571,2.5315,2.4902,2.4658,2.458,2.4287,2.4035,2.3984,2.3631,2.3368,2.3358,2.3199,2.3112,2.3112,2.3112,2.3243,2.3559,2.3721,2.3937,2.4261,2.4411,2.4497,2.4507,2.4507,2.4507,2.4507,2.4507,2.4507,2.4507,2.4507,2.4647,2.5041,2.5358,2.6142,2.674,2.7758,2.8722,2.8932,2.9417,2.9675,2.9782,2.9792,2.9779,2.9779,2.9779,2.9779,2.9779,2.9779,2.9779,2.9779,2.9779,2.9779,2.9779,2.9779,2.9679,2.9602,2.9348,2.9072,2.8895,2.8736,2.861,2.85,2.85,2.85,2.7018,2.6892,2.6098,2.5735,2.5706,2.5696,2.5684,2.5645,2.5452,2.5308,2.5162,2.4772,2.4538,2.4452,2.4313,2.4338,2.4452,2.4365,2.4387,2.444,2.4341,2.4239,2.4202,2.4198,2.4198,2.4226,2.4378,2.4489,2.4501,2.4968,2.5296,2.526,2.5501,2.5672,2.5659,2.5696,2.5696,2.5696,2.5696,2.5696,2.5696,2.5696,2.5696,2.5696,2.5696,2.5696,2.5696,2.5696,2.5696,2.5696,2.5696,2.5686,2.5608,2.5332,2.5119,2.509,2.4686,2.4481,2.4354,2.4062,2.383,2.3799,2.3445,2.3141,2.321,2.3171,2.3288,2.37,2.3786,2.3992,2.4368,2.4507,2.4507,2.4507,2.4507,2.4507,2.4507,2.4507,2.4507,2.4507,2.455,2.4807,2.5558,2.5819,2.673,2.7841,2.8482,2.902,2.9417,2.9702,2.976,2.9779,2.9779,2.9779,2.9779,2.9779,2.9779,2.9779,2.9779,2.9779,2.9779,2.9779,2.9779,2.9779,2.975,2.9641,2.9482,2.9248,2.9032,2.8853,2.8707,2.857,2.85,2.85,2.85,2.7318,2.695,2.6433,2.601,2.5715,2.5696,2.5696,2.5696,2.5633,2.5477,2.525,2.4953,2.4689,2.4504,2.4477,2.4464,2.4538,2.4649,2.4723,2.4735,2.4517,2.4328,2.4226,2.4202,2.4202,2.4239,2.4443,2.4504,2.4563,2.5076,2.5308,2.5296,2.5574,2.5696,2.5696,2.5696,2.5696,2.5696,2.5696,2.5696,2.5696,2.5696,2.5696,2.5696,2.5696,2.5696,2.5696,2.5696,2.5696,2.5696,2.5696,2.5696,2.5686,2.5569,2.5505,2.5459,2.5158,2.4926,2.4826,2.4502,2.4266,2.4207,2.3846,2.3633,2.3592,2.3287,2.3371,2.3689,2.3808,2.3982,2.439,2.4507,2.4507,2.4507,2.4507,2.4507,2.4507,2.4507,2.4507,2.4507,2.4518,2.4999,2.5704,2.6462,2.7212,2.8313,2.901,2.9427,2.9702,2.9779,2.9779,2.9779,2.9779,2.9779,2.9779,2.9779,2.9779,2.9779,2.9779,2.9779,2.9779,2.9779,2.9779,2.9779,2.9721,2.9621,2.9443,2.9248,2.904,2.8794,2.8667,2.852,2.851,2.85,2.85,2.7532,2.7226,2.6641,2.624,2.5971,2.5808,2.5696,2.5696,2.5696,2.5623,2.5428,2.5198,2.4968,2.4833,2.4735,2.4747,2.4833,2.4892,2.4956,2.5005,2.4664,2.4452,2.4353,2.4316,2.4387,2.4514,2.4711,2.4821,2.4919,2.5272,2.5443,2.5491,2.5623,2.5696,2.5696,2.5696,2.5696,2.5696,2.5696,2.5696,2.5696,2.5696,2.5696,2.5696,2.5696,2.5696,2.5696,2.5696,2.5696,2.5696,2.5696,2.5696,2.5696,2.5696,2.5696,2.5698,2.5466,2.534,2.5285,2.4953,2.4719,2.4619,2.4297,2.4092,2.3975,2.3651,2.3585,2.4033,2.3918,2.4055,2.4379,2.4507,2.4507,2.4507,2.4507,2.4507,2.4507,2.4507,2.4507,2.4572,2.485,2.5358,2.6224,2.7109,2.7999,2.885,2.9446,2.9663,2.9779,2.9779,2.9779,2.9779,2.9779,2.9779,2.9779,2.9779,2.9779,2.9779,2.9779,2.9779,2.9779,2.9779,2.9769,2.975,2.9679,2.9553,2.9336,2.9121,2.8882,2.8697,2.858,2.853,2.851,2.85,2.85,2.7731,2.7633,2.6849,2.6477,2.6328,2.5952,2.5764,2.5696,2.5696,2.5706,2.5623,2.5394,2.5247,2.5272,2.5017,2.5051,2.5247,2.5125,2.5149,2.5103,2.487,2.4649,2.4649,2.4492,2.4612,2.4833,2.5162,2.5235,2.5284,2.5528,2.5672,2.5659,2.5684,2.5696,2.5696,2.5696,2.5696,2.5696,2.5696,2.5696,2.5696,2.5696,2.5696,2.5696,2.5696,2.5696,2.5696,2.5696,2.5696,2.5696,2.5696,2.5696,2.5696,2.5696,2.5696,2.5696,2.5657,2.5637,2.564,2.5322,2.5149,2.509,2.4736,2.4481,2.4393,2.4113,2.4009,2.439,2.4121,2.4168,2.439,2.4507,2.4507,2.4507,2.4507,2.4507,2.4507,2.4507,2.4529,2.4636,2.5327,2.5996,2.7088,2.7901,2.8653,2.9248,2.9702,2.9731,2.9779,2.9779,2.9779,2.9779,2.9779,2.9779,2.9779,2.9779,2.9779,2.9779,2.9779,2.9779,2.9779,2.9779,2.976,2.9721,2.9592,2.9385,2.9108,2.8902,2.8724,2.8618,2.853,2.851,2.85,2.85,2.85,2.7995,2.7686,2.75,2.7015,2.6448,2.6289,2.6042,2.5715,2.5696,2.5696,2.5635,2.5418,2.533,2.5308,2.526,2.5269,2.5355,2.5416,2.5477,2.5272,2.5211,2.5125,2.5027,2.4747,2.4664,2.4944,2.5186,2.5296,2.5379,2.5552,2.5696,2.5696,2.5696,2.5696,2.5696,2.5696,2.5696,2.5696,2.5696,2.5696,2.5696,2.5696,2.5696,2.5696,2.5696,2.5696,2.5696,2.5696,2.5696,2.5696,2.5696,2.5696,2.5696,2.5696,2.5696,2.5696,2.5696,2.5696,2.5676,2.5601,2.5552,2.5486,2.5176,2.4934,2.4914,2.4531,2.4378,2.4481,2.4404,2.438,2.4484,2.4507,2.4507,2.4507,2.4507,2.4507,2.4507,2.4507,2.4733,2.5147,2.5168,2.5642,2.774,2.7627,2.8403,2.9446,2.9779,2.9779,2.9779,2.9779,2.9779,2.9779,2.9779,2.9779,2.9779,2.9779,2.9779,2.9779,2.9779,2.9779,2.9779,2.976,2.9731,2.9621,2.946,2.9226,2.8959,2.8843,2.8705,2.8598,2.85,2.85,2.85,2.85,2.85,2.8168,2.7953,2.7783,2.7441,2.6976,2.6575,2.6272,2.6013,2.5796,2.5696,2.5672,2.5538,2.5489,2.5489,2.5489,2.5489,2.5513,2.5623,2.5623,2.5477,2.5379,2.5357,2.5416,2.5137,2.5015,2.526,2.5406,2.5489,2.5538,2.5611,2.5696,2.5696,2.5696,2.5696,2.5696,2.5696,2.5696,2.5696,2.5696,2.5696,2.5696,2.5696,2.5696,2.5696,2.5696,2.5696,2.5696,2.5696,2.5696,2.5696,2.5696,2.5696,2.5696,2.5696,2.5696,2.5696,2.5696,2.5696,2.5696,2.5696,2.5686,2.5696,2.5474,2.5418,2.5295,2.498,2.491,2.4927,2.4778,2.45,2.4505,2.4507,2.4507,2.4507,2.4507,2.4507,2.4518,2.4508,2.4626,2.5211,2.5558,2.634,2.7191,2.7748,2.8502,2.9721,2.9779,2.9779,2.9779,2.9779,2.9779,2.9779,2.9779,2.9779,2.9779,2.9779,2.9779,2.9779,2.9779,2.9779,2.9779,2.974,2.9702,2.9531,2.9343,2.9126,2.89,2.8794,2.8677,2.858,2.85,2.85,2.85,2.85,2.85,2.8301,2.8262,2.7936,2.7764,2.7578,2.6836,2.6455,2.6321,2.5903,2.5696,2.5696,2.5696,2.5659,2.5684,2.5672,2.5696,2.5684,2.5684,2.5659,2.5635,2.5489,2.5513,2.5562,2.5465,2.5416,2.5684,2.5672,2.5672,2.5672,2.5696,2.5696,2.5696,2.5696,2.5696,2.5696,2.5696,2.5696,2.5696,2.5696,2.5696,2.5696,2.5696,2.5696,2.5696,2.5696,2.5696,2.5696,2.5696,2.5696,2.5696,2.5696,2.5696,2.5696,2.5696,2.5696,2.5696,2.5696,2.5696,2.5696,2.5696,2.5696,2.5696,2.5686,2.5676,2.5581,2.5405,2.534,2.5257,2.5046,2.4595,2.4608,2.4528,2.4518,2.4507,2.4507,2.4561,2.4679,2.4711,2.4882,2.5263,2.6122,2.7018,2.7841,2.8522,2.9219,2.9763,2.9769,2.9779,2.9779,2.9779,2.9779,2.9779,2.9779,2.9779,2.9779,2.9779,2.9779,2.9779,2.9779,2.9779,2.976,2.965,2.955,2.9395,2.9206,2.8998,2.8823,2.8667,2.858,2.851,2.85,2.85,2.85,2.85,2.85,2.8301,2.8291,2.8226,2.8001,2.764,2.7132,2.6696,2.6348,2.5923,2.5696,2.5696,2.5696,2.5696,2.5696,2.5696,2.5696,2.5696,2.5696,2.5696,2.5696,2.5623,2.5659,2.5647,2.5635,2.5645,2.5684,2.5696,2.5696,2.5696,2.5696,2.5696,2.5696,2.5696,2.5696,2.5696,2.5696,2.5696,2.5696,2.5696,2.5696,2.5696,2.5696,2.5696,2.5696,2.5696,2.5696,2.5696,2.5696,2.5696,2.5696,2.5696,2.5696,2.5696,2.5696,2.5696,2.5696,2.5696,2.5696,2.5696,2.5696,2.5696,2.5696,2.5696,2.5696,2.5679,2.5635,2.5558,2.5419,2.5185,2.4882,2.5053,2.4838,2.457,2.4528,2.4667,2.4849,2.5337,2.5673,2.5934,2.6463,2.7069,2.7526,2.8273,2.8882,2.9317,2.9682,2.9769,2.9779,2.9779,2.9779,2.9779,2.9779,2.9779,2.9779,2.9779,2.9779,2.9779,2.9779,2.9779,2.9779,2.9721,2.955,2.9402,2.9255,2.9108,2.8944,2.8756,2.857,2.852,2.85,2.85,2.85,2.85,2.85,2.85,2.8301,2.8301,2.8301,2.8187,2.7904,2.7275,2.6892,2.6618,2.601,2.5696,2.5696,2.5696,2.5696,2.5696,2.5696,2.5696,2.5696,2.5696,2.5696,2.5696,2.5696,2.5696,2.5696,2.5696,2.5696,2.5696,2.5696,2.5696,2.5696,2.5696,2.5696,2.5696,2.5696,2.5696,2.5696,2.5696,2.5696,2.5696,2.5696,2.5696,2.5696,2.5696,2.5696,2.5696,2.5696,2.5696,2.5696,2.5696,2.5696,2.5696,2.5696,2.5696,2.5696,2.5696,2.5696,2.5696,2.5696,2.5696,2.5696,2.5696,2.5696,2.5696,2.5696,2.5696,2.5696,2.5684,2.5694,2.5661,2.5834,2.5656,2.5573,2.5315,2.5128,2.4998,2.5217,2.5573,2.5959,2.6639,2.7265,2.7755,2.7953,2.8233,2.8574,2.9069,2.9365,2.9582,2.975,2.9779,2.9779,2.9779,2.9779,2.9779,2.9779,2.9779,2.9779,2.9779,2.9779,2.9779,2.9779,2.9779,2.9702,2.9521,2.9334,2.917,2.9013,2.8825,2.8699,2.851,2.851,2.85,2.85,2.85,2.85,2.85,2.85,2.8301,2.8301,2.8301,2.8301,2.8154,2.736,2.6999,2.6846,2.6057,2.5696,2.5696,2.5696,2.5696,2.5696,2.5696,2.5696,2.5696,2.5696,2.5696,2.5696,2.5696,2.5696,2.5696,2.5696,2.5696,2.5696,2.5696,2.5696,2.5696,2.5696,2.5696,2.5696,2.5696,2.5696,2.5696,2.5696,2.5696,2.5696,2.5696,2.5696,2.5696,2.5696,2.5696,2.5696,2.5696,2.5696,2.5696,2.5696,2.5696,2.5696,2.5696,2.5696,2.5696,2.5696,2.5696,2.5696,2.5696,2.5696,2.5696,2.5696,2.5696,2.5696,2.5696,2.5696,2.5732,2.5776,2.5863,2.6034,2.6153,2.6313,2.605,2.5929,2.5689,2.5638,2.6063,2.6701,2.6998,2.7588,2.8465,2.8769,2.8787,2.8917,2.9197,2.9277,2.9582,2.9634,2.9779,2.9779,2.9779,2.9779,2.9779,2.9779,2.9779,2.9779,2.9779,2.9779,2.9779,2.9779,2.9779,2.9779,2.9663,2.9502,2.9307,2.9101,2.8833,2.8667,2.8548,2.85,2.85,2.85,2.85,2.85,2.85,2.85,2.85,2.8301,2.8301,2.8301,2.8301,2.8141,2.735,2.6989,2.6862,2.6057,2.5706,2.5696,2.5696,2.5696,2.5696,2.5696,2.5696,2.5696,2.5696,2.5696,2.5696,2.5696,2.5696,2.5696,2.5696,2.5696,2.5696,2.5696,2.5696,2.5696,2.5696,2.5696,2.5696,2.5696,2.5696,2.5696,2.5696,2.5696,2.5696,2.5696,2.5696,2.5696,2.5696,2.5696,2.5696,2.5696,2.5696,2.5696,2.5696,2.5696,2.5696,2.5696,2.5696,2.5696,2.5696,2.5696,2.5696,2.5696,2.5696,2.5696,2.5696,2.5696,2.5696,2.5696,2.5696,2.5793,2.5987,2.6228,2.6744,2.6539,2.6433,2.6455,2.6234,2.595,2.6284,2.6876,2.7654,2.8152,2.8743,2.9587,2.9741,2.9747,2.9662,2.9734,2.9752,2.9769,2.9779,2.9779,2.9779,2.9779,2.9779,2.9779,2.9779,2.9779,2.9779,2.9779,2.9779,2.9779,2.9779,2.9779,2.9779,2.9663,2.9505,2.926,2.9035,2.8766,2.8588,2.853,2.85,2.85,2.85,2.85,2.85,2.85,2.85,2.85,2.8301,2.8301,2.8301,2.8168,2.7897,2.7275,2.6862,2.655,2.5979,2.5696,2.5696,2.5696,2.5696,2.5696,2.5696,2.5696,2.5696,2.5696,2.5696,2.5696,2.5696,2.5696,2.5696,2.5696,2.5696,2.5696,2.5696,2.5696,2.5696,2.5696,2.5696,2.5696,2.5696,2.5696,2.5696,2.5696,2.5696,2.5696,2.5696,2.5696,2.5696,2.5696,2.5696,2.5696,2.5696,2.5696,2.5696,2.5696,2.5696,2.5696,2.5696,2.5696,2.5696,2.5696,2.5696,2.5696,2.5696,2.5696,2.5696,2.5696,2.5696,2.5696,2.5708,2.5769,2.5917,2.6171,2.6448,2.6842,2.6859,2.6867,2.7095,2.7335,2.6919,2.7059,2.7888,2.8383,2.9158,3.0074,3.0651,3.0668,3.0643,3.0429,3.0178,2.998,2.9892,2.9779,2.9779,2.9779,2.9779,2.9779,2.9779,2.9779,2.9779,2.9779,2.9779,2.9779,2.9779,2.9779,2.9779,2.976,2.9672,2.9517,2.9231,2.8995,2.8746,2.861,2.853,2.85,2.85,2.85,2.85,2.85,2.85,2.85,2.85,2.8246,2.8135,2.8135,2.7962,2.7643,2.709,2.6692,2.6367,2.5913,2.5696,2.5696,2.5696,2.5696,2.5696,2.5696,2.5696,2.5696,2.5696,2.5696,2.5696,2.5696,2.5696,2.5696,2.5696,2.5696,2.5696,2.5696,2.5696,2.5696,2.5696,2.5696,2.5696,2.5696,2.5696,2.5696,2.5696,2.5696,2.5696,2.5696,2.5696,2.5696,2.5696,2.5696,2.5696,2.5696,2.5696,2.5696,2.5696,2.5696,2.5696,2.5696,2.5696,2.5696,2.5696,2.5696,2.5696,2.5696,2.5696,2.5696,2.5696,2.5696,2.5696,2.5745,2.5842,2.6171,2.6412,2.6687,2.6996,2.7122,2.7231,2.743,2.7886,2.773,2.8059,2.9038,2.9387,2.984,3.0783,3.1356,3.1354,3.1223,3.0922,3.0645,3.0269,3.003,2.9842,2.9779,2.9779,2.9779,2.9779,2.9779,2.9779,2.9779,2.9779,2.9779,2.9779,2.9779,2.9779,2.9779,2.9699,2.9602,2.9407,2.9143,2.8917,2.8719,2.86,2.85,2.85,2.85,2.85,2.85,2.85,2.85,2.85,2.85,2.8093,2.7754,2.7744,2.7692,2.7607,2.679,2.6426,2.6311,2.5871,2.5696,2.5696,2.5696,2.5696,2.5696,2.5696,2.5696,2.5696,2.5696,2.5696,2.5696,2.5696,2.5696,2.5696,2.5696,2.5696,2.5696,2.5696,2.5696,2.5696,2.5696,2.5696,2.5696,2.5696,2.5696,2.5696,2.5696,2.5696,2.5696,2.5696,2.5696,2.5696,2.5696,2.5696,2.5696,2.5696,2.5696,2.5696,2.5696,2.5696,2.5696,2.5696,2.5696,2.5696,2.5696,2.5696,2.5696,2.5696,2.5696,2.5696,2.5696,2.5696,2.5696,2.5745,2.5914,2.6352,2.6448,2.6736,2.7141,2.7262,2.7297,2.7321,2.7467,2.8158,2.8663,2.9636,3.0529,3.0951,3.1536,3.2026,3.202,3.18,3.1461,3.1185,3.0834,3.0334,3.0131,2.9804,2.9779,2.9779,2.9779,2.9779,2.9779,2.9779,2.9779,2.9779,2.9779,2.9779,2.9779,2.9779,2.9628,2.9467,2.9255,2.9062,2.8865,2.8677,2.859,2.85,2.85,2.85,2.85,2.85,2.85,2.85,2.85,2.85,2.7402,2.7246,2.7005,2.6897,2.6868,2.6558,2.624,2.5974,2.5774,2.5696,2.5696,2.5696,2.5696,2.5696,2.5696,2.5696,2.5696,2.5696,2.5696,2.5696,2.5696,2.5696,2.5696,2.5696,2.5696,2.5696,2.5696,2.5696,2.5696,2.5696,2.5696,2.5696,2.5696,2.5696,2.5696,2.5696,2.5696,2.5696,2.5696,2.5696,2.5696,2.5696,2.5696,2.5696,2.5696,2.5696,2.5696,2.5696,2.5696,2.5696,2.5696,2.5696,2.5696,2.5696,2.5696,2.5696,2.5696,2.5696,2.5696,2.5696,2.5696,2.5696,2.572,2.5914,2.6436,2.6496,2.6772,2.7095,2.7357,2.744,2.7369,2.8327,2.9303,2.9452,3.0102,3.1236,3.1901,3.2352,3.2567,3.2503,3.224,3.1938,3.1687,3.1424,3.0896,3.0409,3.0068,2.9779,2.9779,2.9779,2.9779,2.9779,2.9779,2.9779,2.9779,2.9779,2.9779,2.9779,2.9779,2.9602,2.9411,2.9248,2.9054,2.8835,2.8657,2.856,2.85,2.85,2.85,2.85,2.85,2.85,2.85,2.85,2.85,2.6931,2.6784,2.6514,2.6399,2.638,2.625,2.6001,2.5745,2.5706,2.5696,2.5696,2.5696,2.5696,2.5696,2.5696,2.5696,2.5696,2.5696,2.5696,2.5696,2.5696,2.5696,2.5696,2.5696,2.5696,2.5696,2.5696,2.5696,2.5696,2.5696,2.5696,2.5696,2.5696,2.5696,2.5696,2.5696,2.5696,2.5696,2.5696,2.5696,2.5696,2.5696,2.5696,2.5696,2.5696,2.5696,2.5696,2.5696,2.5696,2.5696,2.5696,2.5696,2.5696,2.5696,2.5696,2.5696,2.5696,2.5696,2.5696,2.5696,2.5696,2.5696,2.5696,2.5987,2.6316,2.6508,2.6748,2.724,2.7501,2.7715,2.7786,2.8991,3.0022,3.0238,3.0913,3.189,3.2296,3.2703,3.287,3.2952,3.269,3.2476,3.2252,3.1951,3.125,3.066,3.008,2.9829,2.9779,2.9779,2.9779,2.9779,2.9779,2.9779,2.9779,2.9779,2.9779,2.9779,2.974,2.9563,2.9397,2.9212,2.8976,2.8719,2.857,2.852,2.85,2.85,2.85,2.85,2.85,2.85,2.85,2.85,2.85,2.6748,2.6416,2.6389,2.638,2.6321,2.5903,2.5715,2.5696,2.5696,2.5696,2.5696,2.5696,2.5696,2.5696,2.5696,2.5696,2.5696,2.5696,2.5696,2.5696,2.5696,2.5696,2.5696,2.5696,2.5696,2.5696,2.5696,2.5696,2.5696,2.5696,2.5696,2.5696,2.5696,2.5696,2.5696,2.5696,2.5696,2.5696,2.5696,2.5696,2.5696,2.5696,2.5696,2.5696,2.5696,2.5696,2.5696,2.5696,2.5696,2.5696,2.5696,2.5696,2.5696,2.5696,2.5696,2.5696,2.5696,2.5696,2.5696,2.5696,2.5696,2.5696,2.5708,2.5951,2.634,2.6532,2.6868,2.7514,2.8046,2.8515,2.898,2.9612,3.0475,3.1103,3.1735,3.2286,3.2689,3.2896,3.3049,3.3113,3.3113,3.3038,3.2839,3.2466,3.1667,3.0952,3.0218,2.9892,2.9842,2.9792,2.9792,2.9779,2.9779,2.9779,2.9779,2.9779,2.9779,2.9779,2.9692,2.9505,2.9319,2.9123,2.8877,2.86,2.852,2.85,2.85,2.85,2.85,2.85,2.85,2.85,2.85,2.85,2.85,2.6059,2.5932,2.592,2.5945,2.5913,2.5764,2.5696,2.5696,2.5696,2.5696,2.5696,2.5696,2.5696,2.5696,2.5696,2.5696,2.5696,2.5696,2.5696,2.5696,2.5696,2.5696,2.5696,2.5696,2.5696,2.5696,2.5696,2.5696,2.5696,2.5696,2.5696,2.5696,2.5696,2.5696,2.5696,2.5696,2.5696,2.5696,2.5696,2.5696,2.5696,2.5696,2.5696,2.5696,2.5696,2.5696,2.5696,2.5696,2.5696,2.5696,2.5696,2.5696,2.5696,2.5696,2.5696,2.5696,2.5696,2.5696,2.5696,2.5696,2.5696,2.5696,2.5732,2.5951,2.6412,2.6484,2.7086,2.7977,2.8643,2.9153,2.9681,3.0565,3.1325,3.1558,3.2088,3.2646,3.3027,3.3049,3.3113,3.3113,3.3113,3.3113,3.2989,3.2753,3.2066,3.1541,3.0874,3.0193,2.998,2.9854,2.9804,2.9792,2.9779,2.9779,2.9779,2.9779,2.9779,2.9779,2.9621,2.9382,2.9197,2.9032,2.8818,2.856,2.853,2.85,2.85,2.85,2.85,2.85,2.85,2.85,2.85,2.85,2.85,2.5696,2.5696,2.5696,2.5696,2.5696,2.5696,2.5696,2.5696,2.5696,2.5696,2.5696,2.5696,2.5696,2.5696,2.5696,2.5696,2.5696,2.5696,2.5696,2.5696,2.5696,2.5696,2.5696,2.5696,2.5696,2.5696,2.5696,2.5696,2.5696,2.5696,2.5696,2.5696,2.5696,2.5696,2.5696,2.5696,2.5696,2.5696,2.5696,2.5696,2.5696,2.5696,2.5696,2.5696,2.5696,2.5696,2.5696,2.5696,2.5696,2.5696,2.5696,2.5696,2.5696,2.5696,2.5696,2.5696,2.5696,2.5696,2.5696,2.5696,2.5696,2.5696,2.5696,2.6137,2.6752,2.7078,2.7954,2.876,2.9337,2.9954,3.0666,3.1592,3.2033,3.2275,3.246,3.3027,3.3092,3.3113,3.3113,3.3113,3.3113,3.3113,3.3088,3.2839,3.2451,3.2016,3.1566,3.0899,3.0244,3.008,2.9942,2.9867,2.9817,2.9779,2.9779,2.9779,2.9779,2.9779,2.9573,2.9314,2.9138,2.8971,2.8746,2.856,2.853,2.85,2.85,2.85,2.85,2.85,2.85,2.85,2.85,2.85,2.85,2.5696,2.5696,2.5696,2.5696,2.5696,2.5696,2.5696,2.5696,2.5696,2.5696,2.5696,2.5696,2.5696,2.5696,2.5696,2.5696,2.5696,2.5696,2.5696,2.5696,2.5696,2.5696,2.5696,2.5696,2.5696,2.5696,2.5696,2.5696,2.5696,2.5696,2.5696,2.5696,2.5696,2.5696,2.5696,2.5696,2.5696,2.5696,2.5696,2.5696,2.5696,2.5696,2.5696,2.5696,2.5696,2.5696,2.5696,2.5696,2.5696,2.5696,2.5696,2.5696,2.5696,2.5696,2.5696,2.5696,2.5696,2.5696,2.5696,2.5696,2.5905,2.5977,2.5989,2.666,2.7355,2.7875,2.8796,2.9829,3.0633,3.1136,3.1746,3.2318,3.2874,3.2939,3.295,3.3113,3.3113,3.3113,3.3113,3.3113,3.3113,3.3113,3.3113,3.2914,3.2738,3.2539,3.2139,3.1702,3.1072,3.0485,3.0297,2.9993,2.9917,2.9792,2.9779,2.9779,2.9779,2.9779,2.9502,2.9255,2.9089,2.8912,2.8687,2.854,2.852,2.85,2.85,2.85,2.85,2.85,2.85,2.85,2.85,2.85,2.85,2.5696,2.5696,2.5696,2.5696,2.5696,2.5696,2.5696,2.5696,2.5696,2.5696,2.5696,2.5696,2.5696,2.5696,2.5696,2.5696,2.5696,2.5696,2.5696,2.5696,2.5696,2.5696,2.5696,2.5696,2.5696,2.5696,2.5696,2.5696,2.5696,2.5696,2.5696,2.5696,2.5696,2.5696,2.5696,2.5696,2.5696,2.5696,2.5696,2.5696,2.5696,2.5696,2.5696,2.5696,2.5696,2.5696,2.5696,2.5696,2.5696,2.5696,2.5696,2.5696,2.5696,2.5696,2.5696,2.5696,2.5696,2.5696,2.5696,2.5696,2.5905,2.6466,2.6791,2.7234,2.7934,2.8705,2.9624,3.0643,3.147,3.189,3.2275,3.2799,3.3113,3.3113,3.3113,3.3113,3.3113,3.3113,3.3113,3.3113,3.3113,3.3113,3.3113,3.3088,3.2927,3.2876,3.2677,3.23,3.184,3.125,3.0613,3.0297,3.0068,2.9955,2.9817,2.9779,2.9779,2.974,2.9453,2.9216,2.9069,2.8885,2.8637,2.853,2.851,2.85,2.85,2.85,2.85,2.85,2.85,2.85,2.85,2.85,2.85,2.5696,2.5696,2.5696,2.5696,2.5696,2.5696,2.5696,2.5696,2.5696,2.5696,2.5696,2.5696,2.5696,2.5696,2.5696,2.5696,2.5696,2.5696,2.5696,2.5696,2.5696,2.5696,2.5696,2.5696,2.5696,2.5696,2.5696,2.5696,2.5696,2.5696,2.5696,2.5696,2.5696,2.5696,2.5696,2.5696,2.5696,2.5696,2.5696,2.5696,2.5696,2.5696,2.5696,2.5696,2.5696,2.5696,2.5696,2.5696,2.5696,2.5696,2.5696,2.5696,2.5696,2.5696,2.5696,2.5696,2.5696,2.5696,2.5696,2.5696,2.6066,2.6612,2.7305,2.7921,2.8704,2.9556,3.044,3.1358,3.19,3.2405,3.2788,3.3113,3.3113,3.3113,3.3113,3.3113,3.3113,3.3113,3.3113,3.3113,3.3113,3.3113,3.3113,3.3113,3.3101,3.3038,3.2977,3.2813,3.2403,3.1916,3.1162,3.0573,3.0322,3.0131,2.9967,2.9779,2.9779,2.9682,2.9388,2.917,2.9042,2.8835,2.859,2.851,2.85,2.85,2.85,2.85,2.85,2.85,2.85,2.85,2.85,2.85,2.85,2.5696,2.5696,2.5696,2.5696,2.5696,2.5696,2.5696,2.5696,2.5696,2.5696,2.5696,2.5696,2.5696,2.5696,2.5696,2.5696,2.5696,2.5696,2.5696,2.5696,2.5696,2.5696,2.5696,2.5696,2.5696,2.5696,2.5696,2.5696,2.5696,2.5696,2.5696,2.5696,2.5696,2.5696,2.5696,2.5696,2.5696,2.5696,2.5696,2.5696,2.5696,2.5696,2.5696,2.5696,2.5696,2.5696,2.5696,2.5696,2.5696,2.5696,2.5696,2.5696,2.5696,2.5696,2.5696,2.5696,2.5696,2.5696,2.5696,2.5696,2.5866,2.6368,2.7028,2.8167,2.9201,3.0215,3.1079,3.1889,3.2481,3.27,3.3027,3.3113,3.3113,3.3113,3.3113,3.3113,3.3113,3.3113,3.3113,3.3113,3.3113,3.3113,3.3113,3.3113,3.3113,3.3113,3.3101,3.304,3.2876,3.2441,3.1752,3.0937,3.056,3.0271,2.993,2.9779,2.9779,2.9634,2.9358,2.917,2.9082,2.8825,2.852,2.85,2.85,2.85,2.85,2.85,2.85,2.85,2.85,2.85,2.85,2.85,2.85,2.5696,2.5696,2.5696,2.5696,2.5696,2.5696,2.5696,2.5696,2.5696,2.5696,2.5696,2.5696,2.5696,2.5696,2.5696,2.5696,2.5696,2.5696,2.5696,2.5696,2.5696,2.5696,2.5696,2.5696,2.5696,2.5696,2.5696,2.5696,2.5696,2.5696,2.5696,2.5696,2.5696,2.5696,2.5696,2.5696,2.5696,2.5696,2.5696,2.5696,2.5696,2.5696,2.5696,2.5696,2.5696,2.5696,2.5696,2.5696,2.5696,2.5696,2.5696,2.5696,2.5696,2.5696,2.5696,2.5696,2.5696,2.5696,2.5696,2.5759,2.6004,2.6972,2.7887,2.8727,2.9681,3.0699,3.158,3.2351,3.2874,3.3027,3.3113,3.3113,3.3113,3.3113,3.3113,3.3113,3.3113,3.3113,3.3113,3.3113,3.3113,3.3113,3.3113,3.3113,3.3113,3.3113,3.3113,3.3101,3.3088,3.2801,3.2227,3.1464,3.0824,3.0447,3.0068,2.9779,2.9779,2.9692,2.9456,2.9277,2.9121,2.8796,2.85,2.85,2.85,2.85,2.85,2.85,2.85,2.85,2.85,2.85,2.85,2.85,2.85,2.5696,2.5696,2.5696,2.5696,2.5696,2.5696,2.5696,2.5696,2.5696,2.5696,2.5696,2.5696,2.5696,2.5696,2.5696,2.5696,2.5696,2.5696,2.5696,2.5696,2.5696,2.5696,2.5696,2.5696,2.5696,2.5696,2.5696,2.5696,2.5696,2.5696,2.5696,2.5696,2.5696,2.5696,2.5696,2.5696,2.5696,2.5696,2.5696,2.5696,2.5696,2.5696,2.5696,2.5696,2.5696,2.5696,2.5696,2.5696,2.5696,2.5696,2.5696,2.5696,2.5696,2.5696,2.5696,2.5696,2.5696,2.5696,2.5696,2.5868,2.6211,2.7261,2.8041,2.8612,3.017,3.1124,3.1447,3.2175,3.2853,3.3081,3.3102,3.3113,3.3113,3.3113,3.3113,3.3113,3.3113,3.3113,3.3113,3.3113,3.3113,3.3113,3.3113,3.3113,3.3113,3.3113,3.3113,3.3113,3.3113,3.309,3.2539,3.1964,3.1275,3.0748,3.0382,3.0043,2.9779,2.9672,2.9573,2.9229,2.8973,2.8719,2.85,2.85,2.85,2.85,2.85,2.85,2.85,2.85,2.85,2.85,2.85,2.85,2.85,2.5696,2.5696,2.5696,2.5696,2.5696,2.5696,2.5696,2.5696,2.5696,2.5696,2.5696,2.5696,2.5696,2.5696,2.5696,2.5696,2.5696,2.5696,2.5696,2.5696,2.5696,2.5696,2.5696,2.5696,2.5696,2.5696,2.5696,2.5696,2.5696,2.5696,2.5696,2.5696,2.5696,2.5696,2.5696,2.5696,2.5696,2.5696,2.5696,2.5696,2.5696,2.5696,2.5696,2.5696,2.5696,2.5696,2.5696,2.5696,2.5696,2.5696,2.5696,2.5696,2.5696,2.5696,2.5696,2.5696,2.5696,2.5696,2.5745,2.5977,2.6478,2.7118,2.7735,2.8971,3.0609,3.138,3.1713,3.2153,3.2819,3.3081,3.3102,3.3113,3.3113,3.3113,3.3113,3.3113,3.3113,3.3113,3.3113,3.3113,3.3113,3.3113,3.3113,3.3113,3.3135,3.3124,3.3145,3.3124,3.3113,3.3077,3.2803,3.2252,3.1662,3.1173,3.0648,3.0181,2.9792,2.9873,2.9744,2.9258,2.8855,2.8707,2.859,2.85,2.85,2.851,2.85,2.85,2.85,2.85,2.85,2.85,2.85,2.85,2.85,2.5696,2.5696,2.5696,2.5696,2.5696,2.5696,2.5696,2.5696,2.5696,2.5696,2.5696,2.5696,2.5696,2.5696,2.5696,2.5696,2.5696,2.5696,2.5696,2.5696,2.5696,2.5696,2.5696,2.5696,2.5696,2.5696,2.5696,2.5696,2.5696,2.5696,2.5696,2.5696,2.5696,2.5696,2.5696,2.5696,2.5696,2.5696,2.5696,2.5696,2.5696,2.5696,2.5696,2.5696,2.5696,2.5696,2.5696,2.5696,2.5696,2.5696,2.5696,2.5696,2.5696,2.5696,2.5696,2.5696,2.5696,2.5832,2.5953,2.6406,2.6986,2.7734,2.8659,3.0102,3.1369,3.2141,3.2438,3.2657,3.3092,3.3092,3.3113,3.3113,3.3113,3.3113,3.3113,3.3113,3.3113,3.3113,3.3113,3.3113,3.3113,3.3113,3.3113,3.3145,3.3208,3.3261,3.3409,3.3388,3.3366,3.3225,3.3166,3.2746,3.2274,3.1311,3.0673,3.0143,2.9808,2.994,3.0059,2.9854,2.9477,2.8885,2.8756,2.901,2.8707,2.853,2.852,2.8657,2.85,2.85,2.85,2.85,2.85,2.85,2.85]}]]